[[{"header":{"parameterUnit":"m.s-1","parameterCategory":1,"la1":31.0,"la2":29.5877,"lo1":-88.7671,"lo2":-86.6584,"dx":0.0162,"dy":0.0185,"nx":115,"ny":88,"refTime":"2022-11-19T06:00:00:Z","depth":0,"parameterNumber":2,"parameterNumberName":"U-component_of_WINDS"},"data":[0.0,0.0,0.0,0.0,0.0,0.0,0.0,0.0,0.0,0.0,0.0,0.0,0.0,0.0,0.0,0.0,0.0,0.0,0.0,0.0,0.0,0.0,0.0,0.0,0.0,0.0,0.0,0.0,0.0,0.0,0.0,0.0,0.0,0.0,0.0,0.0,0.0,0.0,0.0,0.0,0.0,0.0,0.0,0.0,0.0,0.0,0.0,0.0,0.0,0.0,0.0,0.0,0.0,0.0,0.0,0.0,0.0,0.0,0.0,0.0,0.0,0.0,0.0,0.0,0.0,0.0,0.0,0.0,0.0,0.0,0.0,0.0,0.0,0.0,0.0,0.0,0.0,0.0,0.0,0.0,0.0,0.0,0.0,0.0,0.0,0.0,0.0,0.0,0.0,0.0,0.0,0.0,0.0,0.0,0.0,0.0,0.0,0.0,0.0,0.0,0.0,0.0,0.0,0.0,0.0,0.0,0.0,0.0,0.0,0.0,0.0,0.0,0.0,0.0,0.0,0.0,0.0,0.0,0.0,0.0,0.0,0.0,0.0,0.0,0.0,0.0,0.0,0.0,0.0,0.0,0.0,0.0,0.0,0.0,0.0,0.0,0.0,0.0,0.0,0.0,0.0,0.0,0.0,0.0,0.0,0.0,0.0,0.0,0.0,0.0,0.0,0.0,0.0,0.0,0.0,0.0,0.0,0.0,0.0,0.0,0.0,0.0,0.0,0.0,0.0,0.0,0.0,0.0,0.0,0.0,0.0,0.0,0.0,0.0,0.0,0.0,0.0,0.0,0.0,0.0,0.0,0.0,0.0,0.0,0.0,0.0,0.0,0.0,0.0,0.0,0.0,0.0,0.0,0.0,0.0,0.0,0.0,0.0,0.0,0.0,0.0,0.0,0.0,0.0,0.0,0.0,0.0,0.0,0.0,0.0,0.0,0.0,0.0,0.0,0.0,0.0,0.0,0.0,0.0,0.0,0.0,0.0,0.0,0.0,0.0,0.0,0.0,0.0,0.0,0.0,0.0,0.0,0.0,0.0,0.0,0.0,0.0,0.0,0.0,0.0,0.0,0.0,0.0,0.0,0.0,0.0,0.0,0.0,0.0,0.0,0.0,0.0,0.0,0.0,0.0,0.0,0.0,0.0,0.0,0.0,0.0,0.0,0.0,0.0,0.0,0.0,0.0,0.0,0.0,0.0,0.0,0.0,0.0,0.0,0.0,0.0,0.0,0.0,0.0,0.0,0.0,0.0,0.0,0.0,0.0,0.0,0.0,0.0,0.0,0.0,0.0,0.0,0.0,0.0,0.0,0.0,0.0,0.0,0.0,0.0,0.0,0.0,0.0,0.0,0.0,0.0,0.0,0.0,0.0,0.0,0.0,0.0,0.0,0.0,0.0,0.0,0.0,0.0,0.0,0.0,0.0,0.0,0.0,0.0,0.0,0.0,0.0,0.0,0.0,0.0,0.0,0.0,0.0,0.0,0.0,0.0,0.0,0.0,0.0,0.0,0.0,0.0,0.0,0.0,0.0,0.0,0.0,0.0,0.0,0.0,0.0,0.0,0.0,0.0,0.0,0.0,0.0,0.0,0.0,0.0,0.0,0.0,0.0,0.0,0.0,0.0,0.0,0.0,0.0,0.0,0.0,0.0,0.0,0.0,0.0,0.0,0.0,0.0,0.0,0.0,0.0,0.0,0.0,0.0,0.0,0.0,0.0,0.0,0.0,0.0,0.0,0.0,0.0,0.0,0.0,0.0,0.0,0.0,0.0,0.0,0.0,0.0,0.0,0.0,0.0,0.0,0.0,0.0,0.0,0.0,0.0,0.0,0.0,0.0,0.0,0.0,0.0,0.0,0.0,0.0,0.0,0.0,0.0,0.0,0.0,0.0,0.0,0.0,0.0,0.0,0.0,0.0,0.0,0.0,0.0,0.0,0.0,0.0,0.0,0.0,0.0,0.0,0.0,0.0,0.0,0.0,0.0,0.0,0.0,0.0,0.0,0.0,0.0,0.0,0.0,0.0,0.0,0.0,0.0,0.0,0.0,0.0,0.0,0.0,0.0,0.0,0.0,0.0,0.0,0.0,0.0,0.0,0.0,0.0,0.0,0.0,0.0,0.0,0.0,0.0,0.0,0.0,0.0,0.0,0.0,0.0,0.0,0.0,0.0,0.0,0.0,0.0,0.0,0.0,0.0,0.0,0.0,0.0,0.0,0.0,0.0,0.0,0.0,0.0,0.0,0.0,0.0,0.0,0.0,0.0,0.0,0.0,0.0,0.0,0.0,0.0,0.0,0.0,0.0,0.0,0.0,0.0,0.0,0.0,0.0,0.0,0.0,0.0,0.0,0.0,0.0,0.0,0.0,0.0,0.0,0.0,0.0,0.0,0.0,0.0,0.0,0.0,0.0,0.0,0.0,0.0,0.0,0.0,0.0,0.0,0.0,0.0,0.0,0.0,0.0,0.0,0.0,0.0,0.0,0.0,0.0,0.0,0.0,0.0,0.0,0.0,0.0,0.0,0.0,0.0,0.0,0.0,0.0,0.0,0.0,0.0,0.0,0.0,0.0,0.0,0.0,0.0,0.0,0.0,0.0,0.0,0.0,0.0,0.0,0.0,0.0,0.0,0.0,0.0,0.0,0.0,0.0,0.0,0.0,0.0,0.0,0.0,0.0,0.0,0.0,0.0,0.0,0.0,0.0,0.0,0.0,0.0,0.0,0.0,0.0,0.0,0.0,0.0,0.0,0.0,0.0,0.0,0.0,0.0,0.0,0.0,0.0,0.0,0.0,0.0,0.0,0.0,0.0,0.0,0.0,0.0,0.0,0.0,0.0,0.0,0.0,0.0,0.0,0.0,0.0,0.0,0.0,0.0,0.0,0.0,0.0,0.0,0.0,0.0,0.0,0.0,0.0,0.0,0.0,0.0,0.0,0.0,0.0,0.0,0.0,0.0,0.0,0.0,0.0,0.0,0.0,0.0,0.0,0.0,0.0,0.0,0.0,0.0,0.0,0.0,0.0,0.0,0.0,0.0,0.0,0.0,0.0,0.0,0.0,0.0,0.0,0.0,0.0,0.0,0.0,0.0,0.0,0.0,0.0,0.0,0.0,0.0,0.0,0.0,0.0,0.0,0.0,0.0,0.0,0.0,0.0,0.0,0.0,0.0,0.0,0.0,0.0,0.0,0.0,0.0,0.0,0.0,0.0,0.0,0.0,0.0,0.0,0.0,0.0,0.0,0.0,0.0,0.0,0.0,0.0,0.0,0.0,0.0,0.0,0.0,0.0,0.0,0.0,0.0,0.0,0.0,0.0,0.0,0.0,0.0,0.0,0.0,0.0,0.0,0.0,0.0,0.0,0.0,0.0,0.0,0.0,0.0,0.0,0.0,0.0,0.0,0.0,0.0,0.0,0.0,0.0,0.0,0.0,0.0,0.0,0.0,0.0,0.0,0.0,0.0,0.0,0.0,0.0,0.0,0.0,0.0,0.0,0.0,0.0,0.0,0.0,0.0,0.0,0.0,0.0,0.0,0.0,0.0,0.0,0.0,0.0,0.0,0.0,0.0,0.0,0.0,0.0,0.0,0.0,0.0,0.0,0.0,0.0,0.0,0.0,0.0,0.0,0.0,0.0,0.0,0.0,0.0,0.0,0.0,0.0,0.0,0.0,0.0,0.0,0.0,0.0,0.0,0.0,0.0,0.0,0.0,0.0,0.0,0.0,0.0,0.0,0.0,0.0,0.0,0.0,0.0,0.0,0.0,0.0,0.0,0.0,0.0,0.0,0.0,0.0,0.0,0.0,0.0,0.0,0.0,0.0,0.0,0.0,0.0,0.0,0.0,0.0,0.0,0.0,0.0,0.0,0.0,0.0,0.0,0.0,0.0,0.0,0.0,0.0,0.0,0.0,0.0,0.0,0.0,0.0,0.0,0.0,0.0,0.0,0.0,0.0,0.0,0.0,0.0,0.0,0.0,0.0,0.0,0.0,0.0,0.0,0.0,0.0,0.0,0.0,0.0,0.0,0.0,0.0,0.0,0.0,0.0,0.0,0.0,0.0,0.0,0.0,0.0,0.0,0.0,0.0,0.0,0.0,0.0,0.0,0.0,0.0,0.0,0.0,0.0,0.0,0.0,0.0,0.0,0.0,0.0,0.0,0.0,0.0,0.0,0.0,0.0,0.0,0.0,0.0,0.0,0.0,0.0,0.0,0.0,0.0,0.0,0.0,0.0,0.0,0.0,0.0,0.0,0.0,0.0,0.0,0.0,2.3662,0.0,0.0,0.0,2.0103,0.0,0.0,0.0,0.0,0.0,0.0,0.0,0.0,0.0,0.0,0.0,0.0,0.0,0.0,0.0,0.0,0.0,0.0,0.0,0.0,0.0,0.0,0.0,0.0,0.0,0.0,0.0,0.0,0.0,0.0,0.0,0.0,0.0,0.0,0.0,0.0,0.0,0.0,0.0,0.0,0.0,0.0,0.0,0.0,0.0,0.0,0.0,0.0,0.0,0.0,0.0,0.0,0.0,0.0,0.0,0.0,0.0,0.0,0.0,0.0,0.0,0.0,0.0,0.0,0.0,0.0,0.0,0.0,0.0,0.0,0.0,0.0,0.0,0.0,0.0,0.0,0.0,0.0,0.0,0.0,0.0,0.0,0.0,0.0,0.0,0.0,0.0,0.0,0.0,0.0,0.0,0.0,0.0,0.0,0.0,0.0,0.0,0.0,0.0,0.0,0.0,0.0,0.0,0.0,0.0,0.0,0.0,0.0,0.0,0.0,2.3613,2.054,2.5856,2.5779,1.9453,0.0,0.0,0.0,0.0,0.0,0.0,0.0,0.0,0.0,0.0,0.0,0.0,0.0,0.0,0.0,0.0,0.0,0.0,0.0,0.0,0.0,0.0,0.0,0.0,0.0,0.0,0.0,0.0,0.0,0.0,0.0,0.0,0.0,0.0,0.0,0.0,0.0,0.0,0.0,0.0,0.0,0.0,0.0,0.0,0.0,0.0,0.0,0.0,0.0,0.0,0.0,0.0,0.0,0.0,0.0,0.0,0.0,0.0,0.0,0.0,0.0,0.0,0.0,0.0,0.0,0.0,0.0,0.0,0.0,0.0,0.0,0.0,0.0,0.0,0.0,0.0,0.0,0.0,0.0,0.0,0.0,0.0,0.0,0.0,0.0,0.0,0.0,0.0,0.0,0.0,0.0,0.0,0.0,0.0,0.0,0.0,0.0,0.0,0.0,0.0,0.0,0.0,0.0,0.0,0.0,0.0,0.0,0.0,0.0,0.0,0.0,0.0,2.6268,2.6272,2.0755,0.0,0.0,0.0,0.0,0.0,0.0,0.0,0.0,0.0,0.0,0.0,0.0,0.0,0.0,0.0,0.0,0.0,0.0,0.0,0.0,0.0,0.0,0.0,0.0,0.0,0.0,0.0,0.0,0.0,0.0,0.0,0.0,0.0,0.0,0.0,0.0,0.0,0.0,0.0,0.0,0.0,0.0,0.0,0.0,0.0,0.0,0.0,0.0,0.0,0.0,0.0,0.0,0.0,0.0,0.0,0.0,0.0,0.0,0.0,0.0,0.0,0.0,0.0,0.0,0.0,0.0,0.0,0.0,0.0,0.0,0.0,0.0,0.0,0.0,0.0,0.0,0.0,0.0,0.0,0.0,0.0,0.0,0.0,0.0,0.0,0.0,0.0,0.0,0.0,0.0,0.0,0.0,0.0,0.0,0.0,0.0,0.0,0.0,0.0,0.0,0.0,0.0,0.0,0.0,0.0,0.0,0.0,0.0,0.0,0.0,2.1904,2.442,2.5051,0.0,2.4319,0.0,0.0,0.0,0.0,0.0,0.0,0.0,0.0,0.0,0.0,0.0,0.0,0.0,0.0,0.0,0.0,0.0,0.0,0.0,0.0,0.0,0.0,0.0,0.0,0.0,0.0,0.0,0.0,0.0,0.0,0.0,0.0,0.0,0.0,0.0,0.0,0.0,0.0,0.0,0.0,0.0,0.0,0.0,0.0,0.0,0.0,0.0,0.0,0.0,0.0,0.0,0.0,0.0,0.0,0.0,0.0,0.0,0.0,0.0,0.0,0.0,0.0,0.0,0.0,0.0,0.0,0.0,0.0,0.0,0.0,0.0,0.0,0.0,0.0,0.0,0.0,0.0,0.0,0.0,0.0,0.0,0.0,0.0,0.0,0.0,0.0,0.0,0.0,0.0,0.0,0.0,0.0,0.0,0.0,0.0,0.0,0.0,0.0,0.0,0.0,0.0,0.0,0.0,0.0,0.0,0.0,0.0,0.0,0.0,0.0,2.2241,2.4821,2.4917,2.4292,0.0,0.0,0.0,0.0,0.0,0.0,0.0,0.0,0.0,0.0,0.0,0.0,0.0,0.0,0.0,0.0,0.0,0.0,0.0,0.0,0.0,0.0,0.0,0.0,0.0,0.0,0.0,0.0,0.0,0.0,0.0,0.0,0.0,0.0,0.0,0.0,0.0,0.0,0.0,0.0,0.0,0.0,0.0,0.0,0.0,0.0,0.0,0.0,0.0,0.0,0.0,0.0,0.0,0.0,0.0,0.0,0.0,0.0,0.0,0.0,0.0,0.0,0.0,0.0,0.0,0.0,0.0,0.0,0.0,0.0,0.0,0.0,0.0,0.0,0.0,0.0,0.0,0.0,0.0,0.0,0.0,0.0,0.0,0.0,0.0,0.0,0.0,0.0,0.0,0.0,0.0,0.0,0.0,0.0,0.0,0.0,0.0,0.0,0.0,0.0,0.0,0.0,0.0,0.0,0.0,0.0,0.0,0.0,0.0,0.0,2.332,2.395,2.6289,2.5106,2.3725,2.2356,0.0,0.0,0.0,0.0,0.0,0.0,0.0,0.0,0.0,0.0,0.0,0.0,0.0,0.0,0.0,0.0,0.0,0.0,0.0,0.0,0.0,0.0,0.0,0.0,0.0,0.0,0.0,0.0,0.0,0.0,0.0,0.0,0.0,0.0,0.0,0.0,0.0,0.0,0.0,0.0,0.0,0.0,0.0,0.0,0.0,0.0,0.0,0.0,0.0,0.0,0.0,0.0,0.0,0.0,0.0,0.0,0.0,0.0,0.0,0.0,0.0,0.0,0.0,0.0,0.0,0.0,0.0,0.0,0.0,0.0,0.0,0.0,0.0,0.0,0.0,0.0,0.0,0.0,0.0,0.0,0.0,0.0,0.0,0.0,0.0,0.0,0.0,0.0,0.0,0.0,0.0,0.0,0.0,0.0,0.0,0.0,0.0,0.0,0.0,0.0,0.0,0.0,0.0,0.0,0.0,0.0,0.0,0.0,3.0794,2.7703,2.7331,3.0108,2.5505,2.3365,0.0,0.0,0.0,0.0,0.0,0.0,0.0,0.0,0.0,0.0,0.0,0.0,0.0,0.0,0.0,0.0,0.0,0.0,0.0,0.0,0.0,0.0,0.0,0.0,0.0,0.0,0.0,0.0,0.0,0.0,0.0,0.0,0.0,0.0,0.0,0.0,0.0,0.0,0.0,0.0,0.0,0.0,0.0,0.0,0.0,0.0,0.0,0.0,0.0,0.0,0.0,0.0,0.0,0.0,0.0,0.0,0.0,0.0,0.0,0.0,0.0,0.0,0.0,0.0,0.0,0.0,0.0,0.0,0.0,0.0,0.0,0.0,0.0,0.0,0.0,0.0,0.0,0.0,0.0,0.0,0.0,0.0,0.0,0.0,0.0,0.0,0.0,0.0,0.0,0.0,0.0,0.0,0.0,0.0,0.0,0.0,0.0,0.0,0.0,0.0,0.0,0.0,0.0,0.0,0.0,0.0,0.0,0.0,0.0,2.4393,2.5934,2.7577,2.9168,2.6847,2.5758,0.0,0.0,0.0,0.0,0.0,0.0,0.0,0.0,0.0,0.0,0.0,0.0,0.0,0.0,0.0,0.0,0.0,0.0,0.0,0.0,0.0,0.0,0.0,0.0,0.0,0.0,0.0,0.0,0.0,0.0,0.0,0.0,0.0,0.0,0.0,0.0,0.0,0.0,0.0,0.0,0.0,0.0,0.0,0.0,0.0,0.0,0.0,0.0,0.0,0.0,0.0,0.0,0.0,0.0,0.0,0.0,0.0,0.0,0.0,0.0,0.0,0.0,0.0,0.0,0.0,0.0,0.0,0.0,0.0,0.0,0.0,0.0,0.0,0.0,0.0,0.0,0.0,0.0,0.0,0.0,0.0,0.0,0.0,0.0,0.0,0.0,0.0,0.0,0.0,0.0,0.0,0.0,0.0,0.0,0.0,0.0,0.0,0.0,0.0,0.0,0.0,0.0,0.0,0.0,0.0,0.0,0.0,0.0,0.0,2.4492,2.8681,3.0902,3.068,2.8426,2.6657,0.0,0.0,0.0,0.0,0.0,0.0,0.0,0.0,0.0,0.0,0.0,0.0,0.0,0.0,0.0,0.0,0.0,0.0,0.0,0.0,0.0,0.0,0.0,0.0,0.0,0.0,0.0,0.0,0.0,0.0,0.0,0.0,0.0,0.0,0.0,0.0,0.0,0.0,0.0,0.0,0.0,0.0,0.0,0.0,0.0,0.0,0.0,0.0,0.0,0.0,0.0,0.0,0.0,0.0,0.0,0.0,0.0,0.0,0.0,0.0,0.0,0.0,0.0,0.0,0.0,0.0,0.0,0.0,0.0,0.0,0.0,0.0,0.0,0.0,0.0,0.0,0.0,0.0,0.0,0.0,0.0,0.0,0.0,0.0,0.0,0.0,0.0,0.0,0.0,0.0,0.0,0.0,0.0,0.0,0.0,0.0,0.0,0.0,0.0,0.0,0.0,0.0,0.0,0.0,0.0,0.0,0.0,0.0,2.5371,3.2556,3.6509,3.7245,3.5237,3.0104,2.5862,0.0,0.0,0.0,0.0,0.0,0.0,0.0,0.0,0.0,0.0,0.0,0.0,0.0,0.0,0.0,0.0,0.0,0.0,0.0,0.0,0.0,0.0,0.0,0.0,0.0,0.0,0.0,0.0,0.0,0.0,0.0,0.0,0.0,0.0,0.0,0.0,0.0,0.0,0.0,0.0,0.0,0.0,0.0,0.0,0.0,0.0,0.0,0.0,0.0,0.0,0.0,0.0,0.0,0.0,0.0,0.0,0.0,0.0,0.0,0.0,0.0,0.0,0.0,0.0,0.0,0.0,0.0,0.0,0.0,0.0,0.0,0.0,0.0,0.0,0.0,0.0,0.0,0.0,0.0,0.0,0.0,0.0,0.0,0.0,0.0,0.0,0.0,0.0,0.0,0.0,0.0,0.0,0.0,0.0,0.0,0.0,0.0,0.0,0.0,0.0,0.0,0.0,0.0,0.0,0.0,0.0,0.0,0.0,0.0,2.8018,3.4127,3.6919,3.568,3.1256,2.8872,0.0,0.0,0.0,0.0,0.0,0.0,0.0,0.0,0.0,0.0,0.0,0.0,0.0,0.0,0.0,0.0,0.0,0.0,0.0,0.0,0.0,0.0,0.0,0.0,0.0,0.0,0.0,0.0,0.0,0.0,0.0,0.0,0.0,0.0,0.0,0.0,0.0,0.0,0.0,0.0,0.0,0.0,0.0,0.0,0.0,0.0,0.0,0.0,0.0,0.0,0.0,0.0,0.0,0.0,0.0,0.0,0.0,0.0,0.0,0.0,0.0,0.0,0.0,0.0,0.0,0.0,0.0,0.0,0.0,0.0,0.0,0.0,0.0,0.0,0.0,0.0,0.0,0.0,0.0,0.0,0.0,0.0,0.0,0.0,0.0,0.0,0.0,0.0,0.0,0.0,0.0,0.0,0.0,0.0,0.0,0.0,0.0,0.0,0.0,0.0,0.0,0.0,0.0,0.0,0.0,0.0,0.0,0.0,0.0,3.2034,3.814,4.0891,3.9388,3.4686,3.1817,3.1011,0.0,0.0,0.0,0.0,0.0,0.0,0.0,0.0,0.0,0.0,0.0,0.0,0.0,0.0,0.0,0.0,0.0,0.0,0.0,0.0,0.0,0.0,0.0,0.0,0.0,0.0,0.0,0.0,0.0,0.0,0.0,0.0,0.0,0.0,0.0,0.0,0.0,0.0,0.0,0.0,0.0,0.0,0.0,0.0,0.0,0.0,0.0,0.0,0.0,0.0,0.0,0.0,0.0,0.0,0.0,0.0,0.0,0.0,0.0,0.0,0.0,0.0,0.0,0.0,0.0,0.0,0.0,0.0,0.0,0.0,0.0,0.0,0.0,0.0,0.0,0.0,0.0,0.0,0.0,0.0,0.0,0.0,0.0,0.0,0.0,0.0,0.0,0.0,0.0,0.0,0.0,0.0,0.0,0.0,0.0,0.0,0.0,0.0,0.0,0.0,0.0,0.0,0.0,0.0,0.0,0.0,0.0,0.0,4.2183,4.724,4.8281,4.5044,3.9525,3.4514,0.0,0.0,0.0,0.0,0.0,0.0,0.0,0.0,0.0,0.0,0.0,0.0,0.0,0.0,0.0,0.0,0.0,0.0,0.0,0.0,0.0,0.0,0.0,0.0,0.0,0.0,0.0,0.0,0.0,0.0,0.0,0.0,0.0,0.0,0.0,0.0,0.0,0.0,0.0,0.0,0.0,0.0,0.0,0.0,0.0,0.0,0.0,0.0,0.0,0.0,0.0,0.0,0.0,0.0,0.0,0.0,0.0,0.0,0.0,0.0,0.0,0.0,0.0,0.0,0.0,0.0,0.0,0.0,0.0,0.0,0.0,0.0,0.0,0.0,0.0,0.0,0.0,0.0,0.0,0.0,0.0,0.0,0.0,0.0,0.0,0.0,0.0,0.0,0.0,0.0,0.0,0.0,0.0,0.0,0.0,0.0,0.0,0.0,0.0,0.0,0.0,0.0,0.0,0.0,0.0,0.0,0.0,0.0,0.0,4.6011,5.028,5.0518,4.6397,4.0531,3.6357,0.0,0.0,0.0,0.0,0.0,0.0,0.0,0.0,0.0,0.0,0.0,0.0,0.0,0.0,0.0,0.0,0.0,0.0,0.0,0.0,0.0,0.0,0.0,0.0,0.0,0.0,0.0,0.0,0.0,0.0,0.0,0.0,0.0,0.0,0.0,0.0,0.0,0.0,0.0,0.0,0.0,0.0,0.0,0.0,0.0,0.0,0.0,0.0,0.0,0.0,0.0,0.0,0.0,0.0,0.0,0.0,0.0,0.0,0.0,0.0,0.0,0.0,0.0,0.0,0.0,0.0,0.0,0.0,0.0,0.0,0.0,0.0,0.0,0.0,0.0,0.0,0.0,0.0,0.0,0.0,0.0,0.0,0.0,0.0,0.0,0.0,0.0,0.0,0.0,0.0,0.0,0.0,0.0,0.0,0.0,0.0,0.0,0.0,0.0,0.0,0.0,0.0,0.0,0.0,0.0,0.0,0.0,0.0,4.4125,5.0279,5.2459,5.2185,4.9481,4.3797,3.9089,0.0,0.0,0.0,0.0,0.0,0.0,0.0,0.0,0.0,0.0,0.0,0.0,0.0,0.0,0.0,0.0,0.0,0.0,0.0,0.0,0.0,0.0,0.0,0.0,0.0,0.0,0.0,0.0,0.0,0.0,0.0,0.0,0.0,0.0,0.0,0.0,0.0,0.0,0.0,0.0,0.0,0.0,0.0,0.0,0.0,0.0,0.0,0.0,0.0,0.0,0.0,0.0,0.0,0.0,0.0,0.0,0.0,0.0,0.0,0.0,0.0,0.0,0.0,0.0,0.0,0.0,0.0,0.0,0.0,0.0,0.0,0.0,0.0,0.0,0.0,0.0,0.0,0.0,0.0,0.0,0.0,0.0,0.0,0.0,0.0,0.0,0.0,0.0,0.0,0.0,0.0,0.0,0.0,0.0,0.0,0.0,0.0,0.0,0.0,0.0,0.0,0.0,0.0,0.0,0.0,0.0,0.0,0.0,4.6226,5.4398,5.3987,5.3398,5.2778,4.7756,4.2071,0.0,0.0,0.0,0.0,0.0,0.0,0.0,0.0,0.0,0.0,0.0,0.0,0.0,0.0,0.0,0.0,0.0,0.0,0.0,0.0,0.0,0.0,0.0,0.0,0.0,0.0,0.0,0.0,0.0,0.0,0.0,0.0,0.0,0.0,0.0,0.0,0.0,0.0,0.0,0.0,0.0,0.0,0.0,0.0,0.0,0.0,0.0,0.0,0.0,0.0,0.0,0.0,0.0,0.0,0.0,0.0,0.0,0.0,0.0,0.0,0.0,0.0,0.0,0.0,0.0,0.0,0.0,0.0,0.0,0.0,0.0,0.0,0.0,0.0,0.0,0.0,0.0,0.0,0.0,0.0,0.0,0.0,0.0,0.0,0.0,0.0,0.0,0.0,0.0,0.0,0.0,0.0,0.0,0.0,0.0,0.0,0.0,0.0,0.0,0.0,0.0,0.0,0.0,0.0,0.0,0.0,0.0,0.0,4.8054,5.5175,5.4803,5.3774,5.2373,4.7927,4.2805,0.0,0.0,0.0,0.0,0.0,0.0,0.0,0.0,0.0,0.0,0.0,0.0,0.0,0.0,0.0,0.0,0.0,0.0,0.0,0.0,0.0,0.0,0.0,0.0,0.0,0.0,0.0,0.0,0.0,0.0,0.0,0.0,0.0,0.0,0.0,0.0,0.0,0.0,0.0,0.0,0.0,0.0,0.0,0.0,0.0,0.0,0.0,0.0,2.5333,0.0,0.0,0.0,0.0,0.0,0.0,0.0,0.0,0.0,0.0,0.0,0.0,0.0,0.0,0.0,0.0,0.0,0.0,0.0,0.0,0.0,0.0,0.0,0.0,0.0,0.0,0.0,0.0,0.0,0.0,0.0,0.0,0.0,0.0,0.0,0.0,0.0,0.0,0.0,0.0,0.0,0.0,0.0,0.0,0.0,0.0,0.0,0.0,0.0,0.0,0.0,0.0,0.0,0.0,0.0,0.0,0.0,0.0,0.0,4.9417,5.5528,5.4573,5.3467,5.2329,4.9297,4.4334,0.0,0.0,0.0,0.0,0.0,0.0,0.0,0.0,0.0,0.0,0.0,0.0,0.0,0.0,0.0,0.0,0.0,0.0,0.0,0.0,0.0,0.0,0.0,0.0,0.0,0.0,0.0,0.0,0.0,0.0,0.0,0.0,0.0,0.0,0.0,0.0,0.0,0.0,0.0,0.0,0.0,0.0,0.0,0.0,0.0,0.0,0.0,0.0,0.0,0.0,0.0,0.0,0.0,0.0,0.0,0.0,0.0,0.0,0.0,0.0,0.0,0.0,0.0,0.0,0.0,0.0,0.0,0.0,0.0,0.0,0.0,0.0,0.0,0.0,0.0,0.0,0.0,0.0,0.0,0.0,0.0,0.0,0.0,0.0,0.0,0.0,0.0,0.0,0.0,0.0,0.0,0.0,0.0,0.0,0.0,0.0,0.0,0.0,0.0,0.0,0.0,0.0,0.0,0.0,0.0,0.0,0.0,4.5856,5.0141,5.5331,5.4247,5.3198,5.2658,5.0909,4.6009,3.7668,0.0,0.0,0.0,0.0,0.0,0.0,0.0,0.0,0.0,0.0,0.0,0.0,0.0,0.0,0.0,0.0,0.0,0.0,0.0,0.0,0.0,0.0,0.0,0.0,0.0,0.0,0.0,0.0,0.0,0.0,0.0,0.0,0.0,0.0,0.0,0.0,0.0,0.0,2.1858,2.6192,0.0,0.0,0.0,0.0,0.0,0.0,0.0,0.0,2.763,0.0,0.0,0.0,0.0,0.0,0.0,0.0,0.0,0.0,0.0,0.0,0.0,0.0,0.0,0.0,0.0,0.0,0.0,0.0,0.0,0.0,0.0,0.0,0.0,0.0,0.0,0.0,0.0,0.0,0.0,0.0,0.0,0.0,0.0,0.0,0.0,0.0,0.0,0.0,0.0,0.0,0.0,0.0,0.0,0.0,0.0,0.0,0.0,0.0,0.0,0.0,0.0,0.0,0.0,0.0,0.0,4.2049,4.5103,4.9235,5.4471,5.5025,5.4436,5.2898,5.1517,4.6838,3.8684,0.0,0.0,0.0,0.0,0.0,0.0,0.0,0.0,0.0,0.0,0.0,0.0,0.0,0.0,0.0,0.0,0.0,0.0,0.0,0.0,0.0,0.0,0.0,0.0,0.0,0.0,0.0,0.0,0.0,0.0,0.0,0.0,0.0,0.0,0.0,0.0,0.0,0.0,0.0,3.2426,3.3605,0.0,0.0,0.0,0.0,0.0,0.0,0.0,0.0,2.912,0.0,0.0,0.0,0.0,0.0,0.0,0.0,0.0,0.0,0.0,0.0,0.0,0.0,0.0,0.0,0.0,0.0,0.0,0.0,0.0,0.0,0.0,0.0,0.0,0.0,0.0,0.0,0.0,0.0,0.0,0.0,0.0,0.0,0.0,0.0,0.0,0.0,0.0,0.0,0.0,0.0,0.0,0.0,0.0,0.0,0.0,0.0,0.0,0.0,0.0,0.0,0.0,0.0,0.0,0.0,4.2996,4.8228,5.2285,5.4906,5.481,5.4133,5.2921,5.1399,4.6864,0.0,0.0,0.0,0.0,0.0,0.0,0.0,0.0,0.0,0.0,0.0,0.0,0.0,0.0,0.0,0.0,0.0,0.0,0.0,0.0,0.0,0.0,0.0,0.0,0.0,0.0,0.0,0.0,0.0,0.0,0.0,0.0,0.0,0.0,0.0,0.0,0.0,0.0,0.0,0.0,3.3719,3.503,3.6599,0.0,0.0,0.0,0.0,0.0,0.0,3.1137,3.0483,0.0,0.0,0.0,0.0,0.0,0.0,0.0,0.0,0.0,0.0,0.0,0.0,0.0,0.0,0.0,0.0,0.0,0.0,0.0,0.0,0.0,0.0,0.0,0.0,0.0,0.0,0.0,0.0,0.0,0.0,0.0,0.0,0.0,0.0,0.0,0.0,0.0,0.0,0.0,0.0,0.0,0.0,0.0,0.0,0.0,0.0,0.0,0.0,0.0,0.0,0.0,0.0,0.0,0.0,0.0,4.3599,5.0441,5.4475,5.5231,5.454,5.3826,5.3179,5.1506,4.705,0.0,0.0,0.0,0.0,0.0,0.0,0.0,0.0,0.0,0.0,0.0,0.0,0.0,0.0,0.0,0.0,0.0,0.0,0.0,0.0,0.0,0.0,0.0,0.0,0.0,0.0,0.0,0.0,0.0,0.0,0.0,0.0,0.0,0.0,0.0,0.0,0.0,0.0,0.0,0.0,0.0,3.6222,3.9416,3.6874,0.0,0.0,0.0,0.0,3.2883,3.3834,0.0,0.0,0.0,0.0,0.0,0.0,0.0,0.0,0.0,0.0,0.0,0.0,0.0,0.0,0.0,0.0,0.0,0.0,0.0,0.0,0.0,0.0,0.0,0.0,0.0,0.0,0.0,0.0,0.0,0.0,0.0,0.0,0.0,0.0,0.0,0.0,0.0,0.0,0.0,0.0,0.0,0.0,0.0,0.0,0.0,0.0,0.0,0.0,0.0,0.0,0.0,0.0,0.0,0.0,0.0,0.0,4.2074,4.7444,5.1605,5.4206,5.4833,5.4728,5.4056,5.2677,4.8159,0.0,0.0,0.0,0.0,0.0,0.0,0.0,0.0,0.0,0.0,0.0,0.0,0.0,0.0,0.0,0.0,0.0,0.0,0.0,0.0,0.0,0.0,0.0,0.0,0.0,0.0,0.0,0.0,0.0,0.0,0.0,0.0,0.0,0.0,0.0,0.0,0.0,0.0,0.0,0.0,0.0,3.9126,3.6899,3.6234,3.6287,0.0,0.0,3.7815,4.1516,4.2137,0.0,0.0,0.0,0.0,0.0,0.0,0.0,0.0,0.0,0.0,0.0,0.0,0.0,0.0,0.0,0.0,0.0,0.0,0.0,0.0,0.0,0.0,0.0,0.0,0.0,0.0,0.0,0.0,0.0,0.0,0.0,0.0,0.0,0.0,0.0,0.0,0.0,0.0,0.0,0.0,0.0,0.0,0.0,0.0,0.0,0.0,0.0,0.0,0.0,0.0,0.0,0.0,0.0,0.0,0.0,4.0713,4.3552,5.0185,5.4385,5.5799,5.6107,5.5777,5.479,5.3473,4.8721,0.0,0.0,0.0,0.0,0.0,0.0,0.0,0.0,0.0,0.0,0.0,0.0,0.0,0.0,0.0,0.0,0.0,0.0,0.0,0.0,0.0,0.0,0.0,0.0,0.0,0.0,0.0,0.0,0.0,0.0,0.0,0.0,0.0,0.0,0.0,0.0,0.0,0.0,0.0,0.0,0.0,0.0,4.2695,4.0696,0.0,0.0,0.0,4.0033,4.0165,0.0,0.0,0.0,0.0,0.0,0.0,0.0,0.0,0.0,0.0,0.0,0.0,0.0,0.0,0.0,0.0,0.0,0.0,0.0,0.0,0.0,0.0,0.0,0.0,0.0,0.0,0.0,0.0,0.0,0.0,0.0,0.0,0.0,0.0,0.0,0.0,0.0,0.0,0.0,0.0,0.0,0.0,0.0,0.0,0.0,0.0,0.0,0.0,0.0,0.0,0.0,0.0,0.0,0.0,0.0,0.0,0.0,4.4761,5.2712,5.6941,5.7103,5.7094,5.6658,5.5688,5.4413,0.0,0.0,0.0,0.0,0.0,0.0,0.0,0.0,0.0,0.0,0.0,0.0,0.0,0.0,0.0,0.0,0.0,0.0,0.0,0.0,0.0,0.0,0.0,0.0,0.0,0.0,0.0,1.827,0.0,0.0,0.0,0.0,0.0,0.0,0.0,0.0,0.0,0.0,0.0,0.0,0.0,0.0,4.0943,4.664,4.412,4.2424,0.0,0.0,4.2217,4.0958,4.3128,4.3148,0.0,0.0,0.0,0.0,0.0,0.0,0.0,0.0,0.0,0.0,0.0,0.0,0.0,0.0,0.0,0.0,0.0,0.0,0.0,0.0,0.0,0.0,0.0,0.0,0.0,0.0,0.0,0.0,0.0,0.0,0.0,0.0,0.0,0.0,0.0,0.0,0.0,0.0,0.0,0.0,0.0,0.0,0.0,0.0,0.0,0.0,0.0,0.0,0.0,0.0,0.0,0.0,0.0,0.0,0.0,4.4741,5.279,5.7109,5.7094,5.7094,5.7064,5.6944,5.5718,5.1075,0.0,0.0,0.0,0.0,0.0,0.0,0.0,0.0,0.0,0.0,0.0,0.0,0.0,0.0,0.0,0.0,0.0,0.0,0.0,0.0,0.0,0.0,0.0,0.0,0.0,0.0,0.0,0.0,0.0,0.0,0.0,0.0,0.0,0.0,0.0,0.0,0.0,0.0,0.0,0.0,0.0,4.0858,4.4285,4.3948,4.4912,0.0,0.0,4.5067,4.9,4.8934,4.6559,4.0736,0.0,0.0,0.0,0.0,0.0,0.0,0.0,0.0,0.0,0.0,0.0,0.0,0.0,0.0,0.0,0.0,0.0,0.0,0.0,0.0,0.0,0.0,0.0,0.0,0.0,0.0,0.0,0.0,0.0,0.0,0.0,0.0,0.0,0.0,0.0,0.0,0.0,0.0,0.0,0.0,0.0,0.0,0.0,0.0,0.0,0.0,0.0,0.0,0.0,0.0,0.0,0.0,0.0,4.378,4.5487,5.3509,5.7919,5.8321,5.8321,5.8141,5.7739,5.6479,5.2695,0.0,0.0,0.0,0.0,0.0,0.0,0.0,0.0,0.0,0.0,0.0,0.0,0.0,0.0,0.0,0.0,0.0,0.0,0.0,0.0,0.0,0.0,0.0,0.0,0.0,0.0,0.0,0.0,2.9338,3.0231,2.872,0.0,0.0,0.0,0.0,0.0,0.0,0.0,0.0,0.0,0.0,4.4086,4.7095,4.6635,0.0,0.0,4.7804,4.6579,4.9115,4.7571,4.5161,4.2502,4.0357,0.0,0.0,0.0,0.0,0.0,0.0,0.0,0.0,0.0,0.0,0.0,0.0,0.0,0.0,0.0,0.0,0.0,0.0,0.0,0.0,0.0,0.0,0.0,0.0,0.0,0.0,0.0,0.0,0.0,0.0,0.0,0.0,0.0,0.0,0.0,0.0,0.0,0.0,0.0,0.0,0.0,0.0,0.0,0.0,0.0,0.0,0.0,0.0,0.0,0.0,0.0,0.0,4.3902,4.5492,5.3717,5.8094,5.8292,5.8307,5.8071,5.7585,5.6611,5.3553,0.0,0.0,0.0,0.0,0.0,0.0,0.0,0.0,0.0,0.0,0.0,0.0,0.0,0.0,0.0,0.0,0.0,0.0,0.0,0.0,0.0,0.0,0.0,0.0,0.0,0.0,0.0,0.0,3.1774,3.1876,2.9678,0.0,0.0,0.0,0.0,0.0,0.0,0.0,0.0,0.0,0.0,4.6375,4.9363,4.8708,4.8465,5.0009,4.8398,4.7267,4.7992,4.6482,4.4646,4.298,0.0,0.0,0.0,0.0,0.0,0.0,0.0,0.0,0.0,0.0,0.0,0.0,0.0,0.0,0.0,0.0,0.0,0.0,0.0,0.0,0.0,0.0,0.0,0.0,0.0,0.0,0.0,0.0,0.0,0.0,1.6791,0.0,0.0,0.0,0.0,0.0,0.0,0.0,0.0,0.0,0.0,0.0,0.0,0.0,0.0,0.0,0.0,0.0,0.0,0.0,0.0,0.0,0.0,4.334,4.4469,5.3166,5.7316,5.6523,5.648,5.6494,5.6451,5.6026,5.3504,4.8583,0.0,0.0,0.0,0.0,0.0,0.0,0.0,0.0,0.0,0.0,0.0,0.0,0.0,0.0,0.0,0.0,0.0,0.0,0.0,0.0,0.0,0.0,0.0,0.0,0.0,0.0,2.6849,2.8626,2.9681,0.0,0.0,0.0,0.0,0.0,0.0,0.0,0.0,0.0,0.0,4.5848,4.7161,5.0276,4.97,4.9076,4.94,4.8251,4.714,4.6602,4.686,4.5933,0.0,0.0,0.0,0.0,0.0,0.0,0.0,0.0,0.0,0.0,0.0,0.0,0.0,0.0,0.0,0.0,0.0,0.0,0.0,0.0,0.0,0.0,0.0,0.0,0.0,0.0,0.0,2.1573,2.0796,0.0,0.0,0.0,0.0,0.0,0.0,0.0,0.0,0.0,0.0,0.0,4.0788,4.2836,0.0,0.0,0.0,0.0,0.0,0.0,0.0,0.0,0.0,0.0,0.0,0.0,4.3845,4.5562,5.2907,5.668,5.6394,5.6408,5.6408,5.6394,5.5847,5.3279,4.8528,0.0,0.0,0.0,0.0,0.0,0.0,0.0,0.0,0.0,0.0,0.0,0.0,0.0,0.0,0.0,0.0,0.0,0.0,0.0,0.0,0.0,0.0,0.0,0.0,0.0,3.0821,0.0,0.0,0.0,0.0,0.0,0.0,0.0,0.0,0.0,0.0,0.0,4.2704,4.572,4.767,4.9351,5.0872,5.1088,5.1271,0.0,0.0,0.0,0.0,0.0,0.0,0.0,0.0,0.0,0.0,0.0,0.0,0.0,0.0,4.3244,3.7818,3.6348,3.5918,3.5775,0.0,0.0,0.0,0.0,0.0,0.0,0.0,0.0,0.0,0.0,0.0,0.0,0.0,0.0,2.754,0.0,2.5585,0.0,0.0,0.0,0.0,0.0,0.0,0.0,0.0,4.2542,4.5451,4.6223,4.8147,4.7557,0.0,4.5253,4.2812,0.0,0.0,0.0,0.0,0.0,0.0,0.0,0.0,4.4864,4.7353,5.2946,5.5759,5.5438,5.5424,5.5312,5.5101,5.4347,5.2675,4.9978,4.741,4.4869,0.0,0.0,0.0,0.0,0.0,0.0,0.0,0.0,0.0,0.0,0.0,0.0,0.0,0.0,0.0,0.0,0.0,0.0,0.0,0.0,0.0,0.0,0.0,3.388,0.0,0.0,0.0,0.0,0.0,0.0,0.0,0.0,0.0,3.9028,4.285,4.626,4.8112,4.9817,5.1146,5.1786,0.0,0.0,0.0,0.0,0.0,0.0,0.0,4.642,4.6661,4.4905,4.3509,4.3459,4.5738,4.7497,4.7089,0.0,0.0,4.2685,4.1179,4.067,4.0519,4.1194,4.1707,4.1573,4.2836,4.4015,0.0,0.0,0.0,0.0,0.0,0.0,0.0,0.0,3.6677,3.6277,0.0,3.2638,0.0,0.0,0.0,0.0,0.0,3.5089,0.0,0.0,5.1265,5.3713,5.3169,5.3743,5.3102,5.1337,5.1128,5.002,4.7782,4.4232,0.0,0.0,0.0,0.0,0.0,0.0,4.619,4.969,5.3094,5.445,5.3592,5.3546,5.326,5.2721,5.1773,5.1777,5.2606,4.8817,4.663,4.6597,3.9782,0.0,0.0,0.0,0.0,0.0,0.0,0.0,0.0,0.0,0.0,0.0,0.0,0.0,0.0,0.0,0.0,0.0,0.0,0.0,0.0,3.5206,0.0,0.0,0.0,0.0,0.0,0.0,0.0,0.0,0.0,0.0,4.4241,4.6069,4.8641,5.1724,0.0,0.0,0.0,0.0,5.2306,5.2336,5.1217,5.0189,4.9636,4.9901,4.9979,4.9516,0.0,0.0,4.7897,4.9542,5.0414,4.8008,4.9659,5.1187,5.0737,4.7672,4.5599,4.5806,4.5202,4.4699,4.5132,4.7433,4.9595,4.4175,0.0,0.0,0.0,0.0,3.8476,3.9881,4.2234,4.2083,4.1154,3.9655,3.87,0.0,0.0,0.0,0.0,0.0,0.0,4.1975,4.7657,4.9205,5.1296,5.3892,5.4102,5.3653,5.2648,5.2648,5.23,5.1645,5.042,4.5641,3.7721,0.0,0.0,0.0,0.0,4.6183,4.8096,5.1027,5.2439,5.2172,5.2172,5.2077,5.1892,5.1863,5.1982,5.231,5.0903,4.9156,4.7078,4.3669,0.0,0.0,0.0,0.0,0.0,0.0,0.0,0.0,0.0,0.0,0.0,0.0,0.0,0.0,0.0,0.0,0.0,0.0,0.0,3.4202,3.7886,3.9088,0.0,0.0,0.0,0.0,0.0,0.0,0.0,0.0,0.0,4.9393,5.0428,5.1356,0.0,0.0,5.3503,5.3258,5.3845,5.4354,5.4341,5.4012,0.0,0.0,5.1726,5.1187,5.1971,5.2408,5.2378,5.163,5.2139,5.2366,5.1588,5.2109,5.2618,5.2428,5.0933,4.9595,4.9614,4.9419,4.9265,4.9457,5.0581,5.1328,5.0966,4.714,4.4169,4.3498,4.4385,4.4146,4.5709,4.8459,4.828,4.7457,4.6107,4.4843,4.2783,4.0131,3.9247,0.0,0.0,0.0,4.6591,5.1308,5.1715,5.3089,5.5162,5.5221,5.5058,5.4743,5.4516,5.4328,5.4226,5.3584,4.9888,4.3481,0.0,0.0,4.2511,4.5171,4.7567,4.9542,5.091,5.1596,5.1596,5.1345,5.1241,5.123,5.122,5.1365,5.1678,5.1278,5.0486,4.9124,4.6755,4.4459,0.0,0.0,0.0,0.0,0.0,0.0,0.0,0.0,0.0,0.0,0.0,2.8037,0.0,0.0,0.0,0.0,3.5278,3.7378,3.9047,4.1926,0.0,0.0,0.0,0.0,0.0,0.0,0.0,4.7362,4.9173,5.0744,5.2049,5.2671,5.3066,5.3354,5.3786,5.4031,5.387,0.0,5.4534,5.4534,5.4521,5.4299,5.3653,5.2858,5.2664,5.3795,5.3994,5.3994,5.4007,5.4007,5.3853,5.3568,5.348,5.338,5.3011,5.2289,5.1695,5.1491,5.1179,5.096,5.096,5.1501,5.1794,5.5676,5.6012,5.0081,4.8426,4.9612,4.899,5.1062,5.4868,5.4544,5.4162,5.36,5.0775,4.8503,4.6637,4.3606,0.0,4.8777,5.0566,5.2833,5.5719,5.6842,5.7074,5.662,5.659,5.6733,5.6901,5.6339,5.5949,5.5649,5.4377,5.2662,5.0586,4.9395,4.8981,4.9301,4.8671,4.9851,5.2777,5.1997,5.158,5.1554,5.0976,5.069,5.0659,5.0106,5.0165,5.0934,5.052,5.0737,5.1674,4.908,4.713,4.6175,0.0,0.0,0.0,0.0,0.0,0.0,0.0,0.0,0.0,0.0,0.0,0.0,0.0,0.0,0.0,4.3967,0.0,4.6241,4.6353,0.0,0.0,0.0,4.4039,4.4624,4.7467,4.9409,4.9687,0.0,0.0,5.3019,5.3351,5.3936,5.493,5.4403,5.4123,5.4608,5.404,5.3555,5.3677,5.3609,5.3396,5.3085,5.3429,5.4042,5.467,5.51,5.5036,5.4994,5.5036,5.4738,5.4049,5.3948,5.3709,5.2887,5.2722,5.2516,5.2094,5.1376,5.0813,5.0901,5.1359,5.172,5.34,5.4073,5.2547,5.347,5.5846,5.505,5.5313,5.6273,5.6228,5.5307,5.3857,5.375,5.3454,5.2939,5.1481,5.1946,5.3875,5.3175,5.3562,5.4686,5.4502,5.4627,5.4958,5.4987,5.5228,5.5639,5.5022,5.487,5.5194,5.3773,5.2958,5.2734,5.1439,5.0097,4.8971,5.0034,5.0984,5.169,5.1471,5.1381,5.1339,5.0791,5.0487,5.047,4.9981,4.9827,5.0007,4.9976,5.0162,5.065,4.9892,4.9774,5.046,4.3973,0.0,0.0,0.0,0.0,0.0,0.0,0.0,0.0,0.0,3.5464,3.207,0.0,3.8513,0.0,4.7317,4.8824,4.5832,4.6908,0.0,0.0,4.6322,4.68,5.0361,5.0533,5.1099,5.3049,5.3883,5.4232,5.4064,5.4135,5.4098,5.3871,5.4092,5.417,5.3829,5.4021,5.4169,5.4113,5.4072,5.4154,5.3928,5.4134,5.4131,5.3898,5.4241,5.4584,5.4598,5.4598,5.4517,5.4326,5.4298,5.4202,5.394,5.3457,5.2953,5.2811,5.2447,5.212,5.2156,5.2214,5.2181,5.314,5.3912,5.3954,5.5182,5.7051,5.5507,5.4941,5.5109,5.5225,5.4697,5.3768,5.4363,5.4616,5.4566,5.3925,5.3849,5.4234,5.4211,5.3997,5.3711,5.3859,5.4147,5.4471,5.4486,5.4874,5.5591,5.5195,5.4946,5.4837,5.4,5.362,5.3718,5.2867,5.2079,5.1346,5.1342,5.1208,5.0912,5.1147,5.1289,5.1289,5.0971,5.0444,4.9732,4.9902,4.9663,4.8927,4.9167,4.9297,4.9141,4.9071,4.9767,5.1191,4.6869,4.5149,0.0,0.0,0.0,0.0,0.0,0.0,0.0,0.0,0.0,0.0,0.0,4.2601,0.0,4.9494,5.1158,4.7796,4.9564,5.088,5.0819,5.054,5.1399,5.3975,5.3661,5.3739,5.4931,5.4466,5.3888,5.343,5.3268,5.2959,5.2305,5.2945,5.334,5.2872,5.2796,5.277,5.2743,5.2756,5.282,5.2917,5.2919,5.2948,5.2991,5.3247,5.3515,5.3529,5.3782,5.3838,5.3472,5.3627,5.3698,5.3316,5.2874,5.2527,5.2502,5.2375,5.2254,5.2238,5.2226,5.2085,5.3488,5.4161,5.4192,5.4656,5.5247,5.3147,5.2553,5.3113,5.3382,5.3593,5.3728,5.3964,5.4092,5.4107,5.3665,5.3155,5.2665,5.4123,5.4058,5.2817,5.3834,5.4351,5.443,5.443,5.4941,5.5862,5.5784,5.5366,5.4741,5.4576,5.4324,5.4023,5.386,5.4034,5.4396,5.2645,5.1423,5.0829,5.1197,5.1431,5.1389,5.1339,5.0611,4.9229,4.9967,4.9708,4.8335,4.8652,4.8564,4.7895,4.791,4.8773,5.0504,4.9567,4.8791,0.0,4.6853,0.0,0.0,0.0,0.0,0.0,0.0,0.0,0.0,4.7429,4.7829,4.6332,5.1289,5.3611,5.1284,5.318,5.4515,5.4371,5.5241,5.5875,5.5911,5.6106,5.6037,5.5477,5.4119,5.2922,5.2301,5.1999,5.1685,5.1282,5.1884,5.235,5.1966,5.1577,5.1353,5.1027,5.1027,5.1522,5.1313,5.1287,5.1597,5.2095,5.2271,5.2293,5.2346,5.2781,5.291,5.2342,5.263,5.2789,5.203,5.204,5.2055,5.2023,5.1999,5.1961,5.1859,5.1705,5.1694,5.1762,5.1927,5.1943,5.2017,5.2146,5.1704,5.2294,5.3604,5.3885,5.4343,5.478,5.4843,5.5023,5.5217,5.4427,5.3801,5.3343,5.3019,5.2683,5.2395,5.2618,5.303,5.3531,5.3547,5.4117,5.5116,5.4581,5.4674,5.5392,5.4847,5.4538,5.4446,5.4449,5.4253,5.3884,0.0,0.0,0.0,5.2327,5.195,5.1908,5.154,5.1163,5.0812,5.0544,0.0,4.9925,4.9615,4.9183,4.8642,4.9005,0.0,0.0,0.0,0.0,0.0,0.0,0.0,0.0,0.0,0.0,0.0,4.9206,4.9565,4.8749,5.2211,5.3516,5.1259,5.4341,5.6346,5.5867,5.6226,5.6534,5.6479,5.6087,5.5803,5.579,5.5248,5.4474,5.3637,5.3588,5.3302,5.2514,5.2707,5.2713,5.2033,5.2161,5.2049,5.1525,5.2162,5.2745,5.2803,5.2576,5.219,5.0903,5.1492,5.1727,5.1294,5.1432,5.1725,5.1786,5.1878,5.1955,5.1736,5.2227,5.268,5.2482,5.2889,5.304,5.2543,5.2437,5.2329,5.1907,5.1362,5.0996,5.2746,0.0,5.2796,5.2771,0.0,5.2796,5.3385,5.4107,5.3143,5.3318,5.4198,5.4213,5.4298,5.4409,5.3271,5.267,5.245,5.229,5.2209,5.2235,5.2751,5.3148,5.3527,5.3809,5.4261,5.4782,5.442,5.4534,5.5066,5.5033,5.4999,5.4981,5.5257,5.5239,5.4963,5.4981,5.4705,5.4152,5.3607,5.3198,5.2887,5.2628,5.1967,5.0921,0.0,0.0,0.0,0.0,0.0,0.0,0.0,0.0,0.0,0.0,0.0,5.2988,5.1267,5.011,5.014,5.0739,5.1542,5.245,5.3584,5.3748,5.2578,5.4667,5.5434,5.4184,5.5922,5.7094,5.7094,5.7094,5.706,5.6906,5.6785,5.652,5.598,5.54,5.4731,5.3936,5.365,5.3233,5.2449,5.2589,5.2516,5.194,5.2047,5.2084,5.1791,5.2013,5.2331,5.2322,5.2301,5.1988,5.1229,5.1381,5.1723,5.112,5.1249,5.1402,5.146,5.1724,5.1932,5.198,5.249,5.2934,5.2949,5.3217,5.3327,5.3028,5.2934,5.2879,5.2546,5.2039,5.1595,5.4303,5.3909,5.4378,5.4303,5.3926,5.4479,5.4748,5.4604,0.0,0.0,0.0,5.371,5.3677,5.3546,5.2471,5.1917,5.1917,5.2344,5.2553,5.2595,5.3432,5.3858,5.3884,5.4353,5.4647,5.473,5.4748,5.4798,5.4906,5.5433,5.5691,5.5717,5.6143,5.6319,5.6194,5.5767,5.5333,5.4898,5.4597,5.4202,5.3733,5.3708,5.2829,5.1005,5.1783,5.1599,5.0268,5.0912,5.0435,4.8636,4.851,4.9364,5.1157,5.1245,5.2897,5.6475,5.6776,5.6785,5.6921,5.7053,5.6877,5.6232,5.6315,5.6243,5.59,5.6075,5.63,5.645,5.7143,5.753,5.7544,5.7544,5.7377,5.6991,5.7148,5.6908,5.6117,5.554,5.4855,5.4269,5.3586,5.3016,5.236,5.2372,5.2214,5.1806,5.2052,5.2235,5.2194,5.1968,5.1766,5.1649,5.1799,5.1623,5.1339,5.1439,5.1413,5.1313,5.1289,5.1289,5.1372,5.1754,5.2101,5.2031,5.2665,5.3004,5.3111,5.3204,5.3234,5.3137,5.3137,5.3107,5.3066,5.269,5.23,5.4547,5.4496,5.4572,5.4529,5.4504,5.5056,5.5265,5.525,5.4754,5.4819,5.5262,5.5288,5.5114,5.4819,5.4635,5.4408,5.4145,5.422,5.4245,0.0,5.4403,5.4471,5.4471,5.4547,5.483,5.5257,5.5282,5.5534,5.5993,5.6527,5.6784,5.6759,5.6878,5.6659,5.6244,5.6125,5.6068,5.5942,5.4561,5.3783,5.3708,5.3708,5.3582,5.3239,5.2937,5.2711,5.2443,5.1699,5.1163,5.0837,5.0812,5.1327,5.2354,5.2376,5.329,5.5261,5.5425,5.5679,5.6279,5.6867,5.734,5.7696,5.7125,5.658,5.6308,5.718,5.8117,5.894,5.9023,5.9254,5.9254,5.9152,5.8695,5.7883,5.6721,5.5891,5.5717,5.4585,5.3553,5.2954,5.2943,5.2924,5.2464,5.2614,5.2849,5.2722,5.2804,5.2812,5.2779,5.2754,5.2491,5.2178,5.2382,5.2259,5.1673,5.1729,5.1797,5.1373,5.1389,5.144,5.144,5.1556,5.1656,5.1522,5.2137,5.2473,5.2539,5.2926,5.2997,5.268,5.2574,5.2518,5.245,5.2302,5.2193,5.5308,5.5082,5.5358,5.5308,5.5082,5.5591,5.5974,5.6219,5.5854,5.5543,5.5346,5.532,5.5232,5.5099,5.4898,5.4739,5.4597,5.4597,5.4597,5.4622,5.4924,5.5207,5.5458,5.5465,5.5936,5.6671,5.6426,5.657,5.7097,5.738,5.7481,5.7481,5.7481,5.7374,5.7123,5.6803,5.6609,5.6602,5.5598,5.4913,5.4637,5.4612,5.4479,5.4202,5.3951,5.3833,5.3808,5.303,5.2452,5.2176,5.1875,5.2016,5.2646,5.2981,5.3751,5.5044,5.5428,5.5782,5.6167,5.6671,5.7244,5.7822,5.7655,5.7428,5.7293,5.732,5.7598,5.8069,5.8488,5.8782,5.8782,5.846,5.7966,5.735,5.6252,5.5514,5.5207,5.4624,5.3977,5.3639,5.3739,5.3795,5.3484,5.3675,5.381,5.383,5.3808,5.3693,5.3397,5.3339,5.3136,5.269,5.2734,5.2685,5.2241,5.2365,5.2407,5.2209,5.2176,5.2176,5.2176,5.2176,5.2151,5.2176,5.2439,5.2574,5.2624,5.2843,5.2893,5.2775,5.2607,5.2582,5.2546,5.2545,5.2454,5.6251,5.5792,5.62,5.6219,5.6011,5.642,5.6828,5.7111,5.6602,5.5987,5.5406,5.5348,5.533,5.5312,5.5063,5.4956,5.4974,5.4956,5.4956,5.5006,5.5408,5.5867,5.6326,5.6376,5.6903,5.775,5.7405,5.7455,5.7876,5.8027,5.8077,5.8077,5.8077,5.8027,5.7901,5.743,5.7136,5.7004,5.6602,5.6143,5.5591,5.5566,5.5365,5.5006,5.4848,5.4798,5.4773,5.4202,5.3708,5.3306,5.2879,5.2826,5.3098,5.3567,5.4246,5.5125,5.5642,5.6053,5.6307,5.649,5.6907,5.7669,5.7917,5.8129,5.8238,5.771,5.7404,5.7626,5.8375,5.8638,5.8453,5.7999,5.7365,5.6723,5.596,5.5438,5.5066,5.4849,5.4724,5.461,5.4597,5.459,5.4597,5.4597,5.455,5.4527,5.4601,5.4394,5.3999,5.3899,5.3688,5.3372,5.3088,5.2895,5.2895,5.2853,5.2853,5.2895,5.2845,5.2795,5.2795,5.2845,5.287,5.282,5.2845,5.2939,5.303,5.3115,5.3199,5.33,5.3377,5.3334,5.336,5.3341,5.3055,5.7374,5.6885,5.6878,5.723,5.76,5.7675,5.7725,5.7725,5.7179,5.662,5.6072,5.6104,5.6072,5.6104,5.6036,5.6018,5.6018,5.6043,5.6018,5.6018,5.6093,5.642,5.6903,5.6885,5.728,5.7851,5.7801,5.7775,5.7976,5.8409,5.861,5.8635,5.8635,5.8384,5.7976,5.7851,5.7556,5.7029,5.6935,5.6659,5.615,5.6125,5.6118,5.6068,5.5566,5.5333,5.5308,5.4823,5.4496,5.4429,5.4353,5.4356,5.4386,5.4474,5.4824,5.5468,5.5607,5.59,5.653,5.6213,5.6547,5.7644,5.7849,5.8223,5.8844,5.8835,5.9137,5.9704,6.0021,5.9688,5.9275,5.8953,5.8115,5.6715,5.5951,5.557,5.5455,5.4998,5.46,5.459,5.4723,5.4622,5.4723,5.4748,5.4672,5.4683,5.4755,5.4727,5.4536,5.4505,5.4502,5.425,5.3632,5.3046,5.2995,5.2895,5.3046,5.2995,5.2945,5.3038,5.3096,5.3046,5.292,5.3239,5.3038,5.3213,5.349,5.3658,5.3826,5.4094,5.4233,5.4373,5.4423,5.4351,5.3944,5.7054,5.6552,5.6527,5.7054,5.7851,5.7901,5.7901,5.7851,5.7261,5.6702,5.6244,5.6219,5.6219,5.6219,5.6219,5.6219,5.6219,5.6219,5.6219,5.6219,5.6219,5.6652,5.7405,5.6821,5.7154,5.8208,5.7725,5.7732,5.8359,5.8886,5.9182,5.9182,5.9182,5.9056,5.8805,5.8202,5.7775,5.7506,5.6878,5.6401,5.6244,5.6219,5.6219,5.6194,5.5993,5.5867,5.5817,5.5358,5.5056,5.5049,5.4798,5.4597,5.4597,5.4597,5.4721,5.4996,5.5059,5.5202,5.5547,5.6062,5.68,5.7812,5.8484,5.9216,5.9972,6.008,6.007,5.9846,5.93,5.8727,5.8409,5.7641,5.6814,5.6098,5.5418,5.5148,5.5441,5.5253,5.5182,5.5483,5.5541,5.5516,5.5541,5.5541,5.539,5.5232,5.529,5.539,5.5157,5.5085,5.5067,5.497,5.4386,5.3959,5.3858,5.3884,5.3884,5.3901,5.3901,5.3884,5.3858,5.3884,5.3909,5.3876,5.3826,5.3901,5.4177,5.4228,5.4353,5.464,5.4615,5.4585,5.4594,5.4612,5.4328,5.7154,5.6721,5.6652,5.7129,5.7901,5.8227,5.8177,5.7876,5.743,5.6878,5.6244,5.6219,5.6219,5.6219,5.6219,5.6219,5.6219,5.6219,5.6219,5.6219,5.6219,5.6721,5.7499,5.6853,5.7129,5.8177,5.7656,5.7681,5.8459,5.8855,5.9056,5.9056,5.9056,5.9075,5.8981,5.8252,5.7801,5.76,5.6803,5.6426,5.6426,5.6426,5.6351,5.6226,5.6351,5.6351,5.62,5.5817,5.5616,5.5591,5.525,5.5031,5.5031,5.5031,5.5031,5.5017,5.492,5.4989,5.516,5.5922,5.6695,5.7463,5.85,5.9198,5.9668,6.0009,5.9929,5.9341,5.8463,5.7911,5.7536,5.6702,5.6036,5.5771,5.5299,5.5232,5.5584,5.5634,5.5767,5.6143,5.6118,5.6219,5.6194,5.6143,5.5993,5.5742,5.5917,5.6075,5.5742,5.5616,5.5616,5.5591,5.5265,5.4906,5.4697,5.4522,5.4597,5.459,5.4532,5.4492,5.4597,5.4587,5.4587,5.4293,5.4529,5.4697,5.478,5.4805,5.4906,5.5006,5.5049,5.5039,5.5182,5.5085,5.5064,5.8309,5.7826,5.7801,5.7826,5.7976,5.8956,5.883,5.7951,5.7851,5.7248,5.6301,5.6219,5.6219,5.6219,5.6219,5.6219,5.6219,5.6219,5.6219,5.6219,5.6219,5.6502,5.7029,5.7004,5.728,5.7857,5.7725,5.775,5.7926,5.7976,5.7951,5.8001,5.8052,5.8027,5.8027,5.7926,5.7625,5.7204,5.6985,5.6935,5.696,5.6935,5.6778,5.6351,5.6702,5.6753,5.6301,5.62,5.615,5.6168,5.6118,5.6093,5.6118,5.6093,5.6068,5.6043,5.5627,5.5588,5.5958,5.5771,5.587,5.6581,5.7424,5.7599,5.7631,5.8503,5.8945,5.8577,5.8377,5.8025,5.7498,5.7259,5.6837,5.6268,5.6173,5.6125,5.6143,5.6093,5.6168,5.6219,5.6219,5.6219,5.6219,5.6219,5.6194,5.6118,5.6168,5.615,5.6118,5.6118,5.6118,5.6118,5.5993,5.5767,5.4881,5.4856,5.4798,5.4823,5.4945,5.4741,5.4622,5.4598,5.4641,5.4684,5.4813,5.5006,5.5257,5.5458,5.5591,5.5717,5.586,5.5906,5.5726,5.6006,5.5968,5.7876,5.7405,5.8108,5.8227,5.8027,5.9031,5.9081,5.8403,5.8052,5.7455,5.6753,5.6351,5.6219,5.6219,5.6219,5.6219,5.6219,5.6219,5.6219,5.6219,5.6219,5.6477,5.691,5.6659,5.6778,5.7204,5.6979,5.6979,5.7355,5.7681,5.7901,5.7901,5.7901,5.7901,5.7851,5.7506,5.738,5.7524,5.7211,5.7029,5.7104,5.7725,5.7656,5.6828,5.7298,5.7305,5.6753,5.7079,5.6953,5.6244,5.6527,5.6552,5.6244,5.6219,5.6351,5.6602,5.62,5.5993,5.6143,5.6018,5.6067,5.6496,5.7415,5.7903,5.8069,5.8875,5.9264,5.8546,5.8587,5.84,5.785,5.7682,5.7419,5.6858,5.6728,5.6577,5.6294,5.6219,5.6219,5.6219,5.6219,5.6219,5.6219,5.6219,5.6219,5.6219,5.6219,5.6219,5.6219,5.6219,5.6219,5.6219,5.6194,5.6093,5.5767,5.5659,5.5659,5.5659,5.567,5.5638,5.5598,5.5505,5.5548,5.5498,5.5483,5.5483,5.5792,5.5817,5.5993,5.6043,5.6219,5.6219,5.6194,5.6219,5.6219,5.7656,5.7481,5.829,5.8403,5.8052,5.9056,5.9207,5.8685,5.8328,5.7851,5.728,5.6903,5.6771,5.6746,5.6728,5.6602,5.6451,5.6301,5.6219,5.6219,5.6219,5.642,5.6627,5.6376,5.6376,5.6652,5.6401,5.6401,5.6753,5.7129,5.7349,5.7323,5.7349,5.733,5.728,5.7104,5.7161,5.7255,5.7085,5.7085,5.733,5.7826,5.8001,5.7681,5.7957,5.7882,5.733,5.77,5.7556,5.6922,5.7104,5.7129,5.6778,5.6746,5.6803,5.6935,5.6677,5.6351,5.6251,5.6376,5.6362,5.6226,5.7184,5.7798,5.7467,5.8429,5.8597,5.8144,5.8306,5.8445,5.8272,5.8152,5.7907,5.743,5.7305,5.7154,5.6821,5.6769,5.6701,5.6533,5.6508,5.6401,5.6244,5.6219,5.6219,5.6219,5.6219,5.6219,5.6219,5.6219,5.6219,5.6219,5.6219,5.6219,5.6043,5.5993,5.5993,5.6011,5.6011,5.6143,5.6219,5.6219,5.6219,5.6219,5.6219,5.6219,5.6219,5.6219,5.6219,5.6219,5.6219,5.6219,5.6219,5.6219,5.6219,5.7901,5.7976,5.8485,5.8434,5.8152,5.9056,5.9207,5.8811,5.8685,5.8353,5.7901,5.7826,5.77,5.7782,5.7506,5.7387,5.6762,5.6274,5.6159,5.62,5.6219,5.6219,5.6269,5.6244,5.6219,5.6276,5.6244,5.6219,5.6294,5.6369,5.6369,5.6294,5.6369,5.642,5.6269,5.6702,5.6728,5.6577,5.6809,5.7236,5.775,5.743,5.7656,5.8409,5.861,5.8428,5.7907,5.7926,5.7876,5.775,5.775,5.7876,5.7625,5.77,5.7581,5.7085,5.696,5.6709,5.6401,5.6659,5.6401,5.6023,5.6656,5.6746,5.5824,5.6713,5.7513,5.73,5.7662,5.8096,5.8529,5.861,5.8403,5.8001,5.7851,5.7876,5.7788,5.7837,5.7654,5.713,5.7011,5.6778,5.6376,5.6276,5.6301,5.6244,5.6219,5.6219,5.6219,5.6219,5.6219,5.6219,5.6219,5.6219,5.6219,5.6194,5.6194,5.6194,5.6168,5.6219,5.6219,5.6219,5.6219,5.6219,5.6219,5.6219,5.6219,5.6219,5.6219,5.6219,5.6219,5.6182,5.6219,5.6219,5.6219,5.8127,5.8504,5.9056,5.893,5.8573,5.9226,5.9382,5.9207,5.888,5.861,5.8384,5.8052,5.7901,5.765,5.7,5.6262,5.5746,5.555,5.5714,5.6159,5.6219,5.6219,5.6219,5.6219,5.6219,5.6219,5.6219,5.6219,5.6219,5.6219,5.6219,5.6219,5.6219,5.6219,5.6219,5.6376,5.6502,5.6778,5.691,5.7111,5.7286,5.7506,5.7801,5.8127,5.851,5.861,5.8459,5.8453,5.8058,5.738,5.728,5.7129,5.6953,5.7474,5.7581,5.7104,5.7029,5.7179,5.7273,5.6778,5.6533,5.6513,5.6891,5.6639,5.5997,5.6891,5.7433,5.7148,5.7549,5.8102,5.856,5.8691,5.8459,5.7951,5.8227,5.8303,5.807,5.7932,5.7807,5.7706,5.7613,5.7355,5.6928,5.6734,5.6609,5.6301,5.6244,5.6244,5.6219,5.6219,5.6219,5.6219,5.6219,5.6219,5.6219,5.6219,5.6219,5.6219,5.6219,5.6219,5.6219,5.6219,5.6219,5.6219,5.6219,5.6219,5.6219,5.6122,5.6081,5.6086,5.6012,5.6042,5.6164,5.6095,5.5917,5.8227,5.8736,5.9282,5.9182,5.8799,5.9257,5.9527,5.9458,5.9156,5.9006,5.8854,5.8113,5.7687,5.7289,5.6115,5.5453,5.521,5.5156,5.5508,5.6122,5.6219,5.6219,5.6219,5.6219,5.6219,5.6219,5.6219,5.6219,5.6219,5.6219,5.6219,5.6219,5.6219,5.6219,5.6244,5.6401,5.6627,5.6734,5.6903,5.7029,5.7029,5.7179,5.7474,5.7851,5.8008,5.8284,5.861,5.8334,5.7857,5.743,5.733,5.723,5.7179,5.765,5.7725,5.7455,5.733,5.7355,5.7273,5.6979,5.6728,5.6778,5.6885,5.6753,5.6477,5.7097,5.733,5.7179,5.7531,5.8052,5.8334,5.861,5.851,5.8259,5.8704,5.883,5.8529,5.8478,5.839,5.8314,5.8202,5.7888,5.7506,5.733,5.7085,5.6652,5.6502,5.6351,5.6301,5.6219,5.6219,5.6219,5.6219,5.6219,5.6219,5.6219,5.6219,5.6219,5.6219,5.6219,5.6219,5.6219,5.6219,5.6219,5.6219,5.6219,5.62,5.5806,5.5652,5.5677,5.5541,5.5007,5.4758,5.5243,5.5217,5.8152,5.8748,5.9243,5.9193,5.8861,5.9307,5.9527,5.9508,5.9284,5.9201,5.8987,5.7874,5.7139,5.6516,5.5269,5.4747,5.5022,5.4953,5.5246,5.5823,5.6109,5.6219,5.6219,5.6219,5.6109,5.5937,5.5956,5.5919,5.5589,5.5625,5.6047,5.5937,5.5919,5.6164,5.6214,5.6702,5.6634,5.6376,5.6684,5.6885,5.6885,5.6527,5.6746,5.7725,5.7405,5.7587,5.8309,5.7706,5.733,5.77,5.7631,5.7832,5.8284,5.8152,5.7957,5.7757,5.7826,5.7323,5.6796,5.7022,5.7179,5.6545,5.6684,5.6759,5.6376,5.6652,5.6953,5.6928,5.7405,5.7851,5.8001,5.8409,5.866,5.8811,5.9131,5.9377,5.9477,5.9408,5.9137,5.8817,5.871,5.8535,5.8008,5.7951,5.7606,5.7129,5.691,5.6684,5.6326,5.6219,5.6219,5.6219,5.6219,5.6219,5.6219,5.6219,5.6219,5.6219,5.62,5.6146,5.6164,5.6164,5.6219,5.6219,5.5858,5.5974,5.5873,5.5365,5.507,5.4991,5.4491,5.3597,5.3752,5.4498,5.4973,5.7684,5.8838,5.9007,5.9137,5.9288,5.9458,5.9508,5.9372,5.8491,5.8173,5.7819,5.6774,5.5922,5.5288,5.4065,5.3634,5.3853,5.3856,5.4189,5.4935,5.5871,5.6182,5.6219,5.6182,5.5681,5.4998,5.4843,5.4434,5.3605,5.3737,5.4111,5.4868,5.4998,5.5404,5.6079,5.6351,5.6351,5.6226,5.6319,5.6426,5.6445,5.6319,5.6527,5.7104,5.706,5.7336,5.7957,5.7405,5.6853,5.6677,5.7054,5.728,5.7562,5.8058,5.8058,5.7556,5.765,5.76,5.6935,5.6728,5.6696,5.6778,5.6552,5.6351,5.6244,5.6326,5.6426,5.6502,5.6903,5.7481,5.7901,5.8409,5.8836,5.9232,5.9408,5.9527,5.9527,5.9502,5.9433,5.9332,5.9257,5.8961,5.8654,5.8453,5.8152,5.738,5.7035,5.686,5.6502,5.6219,5.6219,5.6219,5.6219,5.6219,5.6219,5.6219,5.6219,5.6219,5.6164,5.6011,5.6054,5.6072,5.6146,5.6219,5.5084,5.4819,5.4788,5.4534,5.4411,5.4223,5.4041,5.3549,5.3934,5.4526,5.4937,5.746,5.8633,5.8633,5.8795,5.8984,5.9028,5.8984,5.8809,5.804,5.7484,5.7072,5.5768,5.4643,5.3736,5.2445,5.236,5.299,5.3031,5.3552,5.4414,5.5109,5.5386,5.5423,5.5423,5.4806,5.3737,5.3667,5.3285,5.2774,5.2622,5.3266,5.4248,5.4397,5.501,5.6146,5.6219,5.6219,5.6219,5.6219,5.6219,5.6219,5.6219,5.6502,5.6828,5.6835,5.6928,5.738,5.7179,5.6853,5.6677,5.6853,5.7129,5.738,5.7706,5.7882,5.7612,5.7656,5.7355,5.7054,5.6702,5.6577,5.6602,5.6326,5.6244,5.6269,5.6376,5.6552,5.6627,5.7236,5.7788,5.8208,5.871,5.9112,5.9408,5.9527,5.9527,5.9527,5.9527,5.9527,5.9527,5.9483,5.9408,5.9081,5.9056,5.8585,5.7939,5.7556,5.7179,5.6702,5.6445,5.6219,5.6219,5.6219,5.6219,5.6164,5.6127,5.5497,5.5497,5.5084,5.514,5.5232,5.5275,5.517,5.4862,5.4126,5.3728,5.3818,5.3778,5.3427,5.335,5.3449,5.3694,5.391,5.4693,5.5051,5.7267,5.8168,5.8207,5.8227,5.8227,5.8251,5.8227,5.807,5.7429,5.6949,5.631,5.4899,5.3394,5.2043,5.1142,5.1124,5.2349,5.2273,5.3086,5.3737,5.4192,5.4135,5.383,5.4434,5.3718,5.2617,5.2389,5.2374,5.2203,5.2275,5.3152,5.4079,5.4397,5.5121,5.6131,5.6369,5.6326,5.6495,5.6552,5.6502,5.6426,5.6376,5.6552,5.6702,5.6634,5.6753,5.7104,5.7136,5.7136,5.7211,5.7035,5.7204,5.7625,5.733,5.7437,5.7964,5.7487,5.7035,5.6903,5.6759,5.6659,5.6326,5.6301,5.6276,5.6426,5.6803,5.7104,5.7104,5.8083,5.8535,5.8811,5.9232,5.9408,5.9527,5.9527,5.9527,5.9527,5.9527,5.9527,5.9527,5.9527,5.9527,5.9527,5.9458,5.9257,5.8409,5.8033,5.7581,5.7085,5.6666,5.6426,5.6219,5.6219,5.6219,5.6127,5.6017,5.5127,5.449,5.3718,5.3511,5.3643,5.3667,5.354,5.3262,5.3077,5.3125,5.3312,5.3066,5.2616,5.2992,5.3477,5.3416,5.3437,5.4717,5.5449,5.6417,5.7314,5.7611,5.775,5.7745,5.7745,5.7548,5.7151,5.6053,5.5406,5.4737,5.3448,5.2106,5.0752,5.0505,5.0641,5.118,5.1281,5.1777,5.2845,5.3001,5.2332,5.2203,5.3247,5.3058,5.1624,5.1104,5.1123,5.1143,5.1413,5.2279,5.4154,5.4569,5.5194,5.6586,5.6778,5.7079,5.7424,5.7474,5.7179,5.6878,5.6809,5.6684,5.6552,5.6659,5.7104,5.7575,5.7681,5.7907,5.7932,5.7179,5.6853,5.7575,5.733,5.723,5.7336,5.7236,5.6809,5.6483,5.6477,5.6376,5.6376,5.6652,5.6835,5.6878,5.7355,5.7675,5.7782,5.8309,5.8886,5.9232,5.9408,5.9502,5.9527,5.9527,5.9527,5.9527,5.9527,5.9527,5.9527,5.9527,5.9527,5.9527,5.9527,5.9257,5.8805,5.8428,5.8027,5.7537,5.7023,5.6666,5.6401,5.5871,5.5736,5.5478,5.5029,5.3868,5.3096,5.2393,5.1959,5.207,5.2304,5.2282,5.231,5.2345,5.2431,5.2437,5.2319,5.1845,5.2688,5.3644,5.409,5.4589,5.5431,5.5787,5.5777,5.6394,5.6614,5.6594,5.6434,5.6414,5.6194,5.5671,5.4864,5.4189,5.3676,5.2747,5.1614,5.0349,5.0302,5.0463,5.0649,5.0698,5.1046,5.1624,5.1662,5.103,5.039,5.1455,5.1624,5.0059,4.9867,5.0079,5.0546,5.095,5.2007,5.424,5.4659,5.5545,5.6787,5.7029,5.7305,5.7656,5.7625,5.7405,5.7405,5.7405,5.7154,5.6702,5.686,5.7204,5.7405,5.7198,5.7575,5.7775,5.7029,5.6702,5.7575,5.7355,5.7136,5.733,5.6828,5.6903,5.6846,5.6753,5.6728,5.6972,5.728,5.7355,5.7556,5.7951,5.8208,5.8384,5.8736,5.9212,5.9477,5.9527,5.9527,5.9527,5.9527,5.9527,5.9527,5.9527,5.9527,5.9527,5.9527,5.9527,5.9527,5.9527,5.9477,5.9131,5.8755,5.8353,5.8058,5.7543,5.6992,5.6505,5.5664,5.5146,5.4806,5.3905,5.2412,5.1609,5.0914,5.0638,5.0603,5.088,5.1158,5.121,5.1285,5.1213,5.1211,5.111,5.1888,5.3199,5.4306,5.5085,5.5852,5.6494,5.6575,5.5311,5.559,5.5611,5.5371,5.5027,5.4946,5.4681,5.4211,5.3822,5.3472,5.2995,5.256,5.1682,5.0651,5.0327,5.0459,5.0577,5.041,5.0507,5.1355,5.105,5.0449,5.0023,5.0682,5.0876,4.932,4.9438,5.0062,5.1162,5.1455,5.2939,5.4605,5.5129,5.6054,5.6912,5.7179,5.743,5.7801,5.7681,5.7556,5.7775,5.7807,5.7524,5.7079,5.696,5.7029,5.7029,5.6828,5.6897,5.7725,5.6878,5.6947,5.7323,5.728,5.7054,5.7506,5.6456,5.6425,5.7074,5.7,5.6844,5.7713,5.7983,5.8027,5.8127,5.8478,5.8736,5.8956,5.9207,5.9433,5.9527,5.9527,5.9527,5.9527,5.9527,5.9527,5.9527,5.9527,5.9527,5.9527,5.9527,5.9527,5.9527,5.9527,5.9527,5.9433,5.9037,5.8647,5.8327,5.7869,5.7193,5.6383,5.551,5.3854,5.3285,5.3152,5.1592,5.0683,4.9873,4.9822,4.9729,5.0215,5.0603,5.0203,5.0166,5.0331,5.0904,5.1538,5.2543,5.3915,5.5248,5.6383,5.7053,5.7549,5.7342,5.5128,5.5209,5.5209,5.4946,5.4498,5.4173,5.374,5.3369,5.3181,5.2956,5.2499,5.2394,5.1796,5.0979,5.0458,5.0481,5.0473,5.0079,5.0468,5.1605,5.1258,5.0429,5.0759,5.1455,5.147,5.0721,5.0565,5.1647,5.3162,5.3892,5.4423,5.6011,5.6196,5.668,5.7412,5.775,5.7826,5.8077,5.8108,5.8108,5.8001,5.7951,5.77,5.7179,5.7129,5.7029,5.696,5.691,5.7204,5.775,5.723,5.6992,5.6837,5.6486,5.6281,5.6189,5.5411,5.5453,5.6707,5.6244,5.6524,5.7506,5.8259,5.8535,5.8685,5.8936,5.9056,5.9257,5.9357,5.9527,5.9527,5.9527,5.9527,5.9527,5.9527,5.9527,5.9527,5.9527,5.9527,5.9527,5.9527,5.9527,5.9527,5.9527,5.9527,5.9347,5.8959,5.8497,5.8059,5.7585,5.7011,5.6147,5.5219,5.3318,5.1589,5.1616,5.1002,5.0246,4.9672,4.9706,4.9761,5.0092,5.0163,5.0071,5.0145,5.0448,5.1124,5.1903,5.3437,5.4977,5.6375,5.7771,5.7946,5.8068,5.7844,5.4439,5.4418,5.4171,5.3779,5.3367,5.3163,5.2686,5.2102,5.2062,5.1685,5.1329,5.1411,5.1084,5.0333,5.0315,5.0461,5.0479,5.0218,5.0934,5.2045,5.1355,5.1123,5.1605,5.2408,5.2636,5.2584,5.2736,5.3243,5.4649,5.4444,5.5429,5.6625,5.6979,5.738,5.7851,5.8177,5.8403,5.8579,5.8428,5.8309,5.8284,5.8284,5.7983,5.7606,5.7374,5.7179,5.6652,5.6577,5.6702,5.6767,5.611,5.577,5.5448,5.4984,5.4658,5.4954,5.4377,5.4632,5.6172,5.6137,5.6953,5.8419,5.8736,5.8861,5.8886,5.8905,5.8855,5.9062,5.9408,5.9527,5.9527,5.9502,5.9527,5.9527,5.9527,5.9527,5.9527,5.9527,5.9527,5.9527,5.9527,5.9527,5.9527,5.9527,5.9527,5.927,5.8881,5.8315,5.7685,5.692,5.6216,5.5143,5.4042,5.2441,5.0715,5.0458,5.0391,4.9697,4.9382,4.9431,4.9723,5.0014,5.0308,5.0419,5.0554,5.0979,5.1568,5.2513,5.4263,5.5986,5.7415,5.8469,5.8516,5.8478,5.8196,5.366,5.3618,5.3163,5.2726,5.2416,5.2312,5.1853,5.1202,5.1139,5.0654,4.9891,5.04,5.0269,4.9795,5.0244,5.0863,5.1057,5.1108,5.2026,5.3053,5.2294,5.2145,5.2712,5.3304,5.3699,5.3948,5.4546,5.4977,5.5273,5.5095,5.5732,5.6619,5.743,5.7631,5.7706,5.7932,5.861,5.8453,5.8252,5.7983,5.8259,5.8434,5.8259,5.7782,5.7725,5.7198,5.6394,5.6294,5.6012,5.5713,5.5028,5.4347,5.3911,5.2906,5.2764,5.3499,5.3225,5.4141,5.5622,5.5897,5.6726,5.8795,5.8716,5.883,5.883,5.8428,5.8152,5.8535,5.8987,5.9282,5.9257,5.9408,5.9502,5.9527,5.9527,5.9527,5.9527,5.9527,5.9527,5.9527,5.9527,5.9463,5.94,5.9386,5.9367,5.8667,5.8251,5.7364,5.6687,5.566,5.4833,5.376,5.2608,5.1258,5.0093,4.9531,4.9404,4.9062,4.8984,4.907,4.9488,4.9885,5.0241,5.07,5.1599,5.2023,5.253,5.3281,5.4975,5.6662,5.833,5.9106,5.9029,5.8685,5.8341,5.3161,5.314,5.2664,5.2458,5.2333,5.2042,5.1602,5.1118,5.1055,5.0549,4.955,4.9827,4.9998,5.0308,5.1376,5.2042,5.2248,5.2489,5.3454,5.4862,5.4173,5.3742,5.4341,5.5343,5.4899,5.4924,5.5497,5.5944,5.5959,5.5866,5.6219,5.6841,5.6778,5.6671,5.7236,5.7487,5.6979,5.6803,5.7029,5.7211,5.7387,5.7782,5.7631,5.738,5.7129,5.6786,5.6161,5.5951,5.5657,5.462,5.4459,5.3817,5.2845,5.1624,5.1363,5.1637,5.2091,5.3139,5.5562,5.5445,5.5975,5.8044,5.8284,5.8102,5.8001,5.8077,5.7926,5.7976,5.8504,5.8761,5.8861,5.9182,5.9382,5.9402,5.9276,5.9357,5.9413,5.9282,5.9307,5.9527,5.9527,5.9336,5.9234,5.9226,5.9115,5.8335,5.7494,5.6541,5.5453,5.4308,5.2973,5.1793,5.126,5.0059,4.9418,4.8854,4.8609,4.8399,4.8607,4.8708,4.8838,4.9323,5.0539,5.1124,5.192,5.2979,5.3788,5.4711,5.5919,5.7198,5.8642,5.9212,5.9438,5.9006,5.8434,5.2499,5.2664,5.2228,5.2084,5.2042,5.1874,5.135,5.0781,5.0675,4.9891,4.8887,4.9166,4.9469,5.0006,5.1512,5.2449,5.2726,5.3247,5.4509,5.5625,5.5146,5.4769,5.5386,5.5901,5.5754,5.5699,5.5864,5.6109,5.6219,5.6269,5.6477,5.6878,5.6778,5.6803,5.696,5.733,5.7399,5.7273,5.7129,5.7186,5.7387,5.743,5.7387,5.7418,5.7098,5.6296,5.5448,5.5448,5.479,5.3646,5.3048,5.2569,5.1742,5.0742,5.009,5.1239,5.1447,5.2723,5.4649,5.4422,5.582,5.7238,5.7706,5.728,5.7173,5.7499,5.7675,5.7424,5.7907,5.8183,5.8234,5.8453,5.8529,5.8604,5.8755,5.891,5.8985,5.9062,5.9081,5.9282,5.9278,5.86,5.813,5.8136,5.7828,5.7132,5.614,5.5044,5.3796,5.2412,5.1009,4.953,4.9263,4.8934,4.8546,4.8148,4.8017,4.7946,4.8325,4.832,4.8048,4.8602,5.0185,5.0626,5.0628,5.2112,5.4339,5.5661,5.6443,5.7617,5.8881,5.9212,5.9458,5.8998,5.8482,5.1727,5.1894,5.1812,5.1792,5.1792,5.1792,5.1329,5.0633,5.0612,4.9785,4.8868,4.917,4.9385,4.9612,5.1247,5.234,5.2679,5.383,5.5029,5.5497,5.5497,5.5441,5.5864,5.62,5.62,5.6219,5.6146,5.6219,5.6219,5.6244,5.6401,5.6803,5.6677,5.6709,5.6878,5.7054,5.7198,5.7173,5.6878,5.6953,5.7179,5.6979,5.6725,5.6564,5.6271,5.5484,5.4031,5.4157,5.3628,5.237,5.1712,5.1328,5.06,4.9774,4.9566,5.0487,5.0957,5.2058,5.36,5.4363,5.5553,5.6648,5.7179,5.6677,5.6495,5.7072,5.7355,5.6828,5.733,5.7581,5.77,5.7826,5.8027,5.8077,5.8052,5.822,5.8299,5.8195,5.7872,5.7627,5.7339,5.6608,5.6352,5.6677,5.6435,5.587,5.4847,5.3549,5.2161,5.0643,4.9867,4.863,4.8651,4.8525,4.8038,4.771,4.7528,4.7638,4.804,4.8537,4.8628,4.9323,5.0705,5.0562,5.0081,5.2217,5.5038,5.5966,5.6929,5.8173,5.9212,5.9347,5.9382,5.8802,5.7619,5.0886,5.0612,5.1455,5.175,5.175,5.1792,5.1497,5.095,5.1034,5.0738,5.021,5.0289,5.0108,5.0262,5.1354,5.2391,5.2759,5.3892,5.5127,5.5882,5.6127,5.6036,5.6219,5.6219,5.6219,5.6219,5.6219,5.6219,5.6219,5.6219,5.6226,5.6251,5.6394,5.6301,5.6351,5.6545,5.6595,5.6559,5.6309,5.6162,5.6207,5.588,5.5207,5.4042,5.4031,5.3629,5.1716,5.2366,5.2247,5.0921,5.0746,5.0389,4.9705,4.9173,4.9344,4.9979,5.0858,5.1957,5.319,5.4358,5.5626,5.6439,5.6652,5.6344,5.6269,5.6244,5.6294,5.6401,5.6853,5.701,5.723,5.7481,5.7575,5.7549,5.7474,5.7643,5.7555,5.7095,5.6733,5.6076,5.5379,5.4681,5.3445,5.3482,5.3719,5.3185,5.2231,5.0971,5.0307,4.9131,4.9045,4.8537,4.8599,4.8341,4.774,4.7372,4.7047,4.7568,4.8184,4.9112,4.9869,5.0742,5.1372,5.1359,5.1278,5.3499,5.5096,5.5356,5.6224,5.8392,5.9317,5.8641,5.8059,5.7388,5.5685,5.0548,5.0443,5.0781,5.095,5.0971,5.1244,5.1097,5.0823,5.1286,5.1579,5.1597,5.1573,5.1752,5.2264,5.3163,5.3904,5.4307,5.5077,5.573,5.6054,5.6219,5.6219,5.6219,5.6244,5.6219,5.6219,5.6219,5.6219,5.6219,5.6219,5.6219,5.6219,5.6219,5.6219,5.6219,5.6164,5.6164,5.5974,5.565,5.53,5.4644,5.3857,5.2939,5.1936,5.1784,5.1446,5.0481,5.1058,5.0586,4.9991,4.9861,4.9489,4.9231,4.8957,4.9277,5.0037,5.1045,5.2314,5.3201,5.4265,5.5218,5.6145,5.6344,5.6219,5.6219,5.6219,5.6219,5.6294,5.6339,5.6466,5.6584,5.6702,5.6771,5.6846,5.6891,5.6955,5.6431,5.5712,5.5038,5.4141,5.3474,5.2786,5.1358,5.0007,5.0301,5.0371,4.9415,4.8568,4.8079,4.7748,4.7684,4.7513,4.7512,4.7445,4.6821,4.6622,4.6511,4.7453,4.838,4.9369,5.0416,5.1297,5.1823,5.1895,5.1883,5.2828,5.3609,5.4086,5.5406,5.7375,5.7618,5.6989,5.6425,5.5815,5.3857,4.9934,4.9806,4.9806,5.004,5.0421,5.0738,5.0802,5.0781,5.1454,5.2392,5.3088,5.3229,5.3584,5.4266,5.4505,5.496,5.507,5.5527,5.5935,5.6198,5.6376,5.6426,5.6426,5.6451,5.6527,5.6401,5.6244,5.6219,5.6219,5.6219,5.6219,5.6219,5.6219,5.6219,5.6164,5.5919,5.5846,5.5644,5.4645,5.3927,5.3166,5.2093,5.0779,5.0033,4.9873,4.9271,4.8686,4.8766,4.8821,4.8408,4.8328,4.8542,4.8678,4.8933,4.9378,5.0419,5.1805,5.3157,5.3732,5.4514,5.5275,5.6122,5.6244,5.6219,5.6219,5.6219,5.6219,5.6182,5.6036,5.5846,5.5809,5.5657,5.5034,5.4771,5.5281,5.5304,5.4246,5.3398,5.2825,5.2116,5.1111,4.9622,4.8734,4.7308,4.7377,4.763,4.7359,4.6789,4.6632,4.6406,4.6359,4.6187,4.6016,4.5883,4.5709,4.618,4.6767,4.7817,4.8723,4.959,5.0588,5.154,5.2266,5.2397,5.2306,5.199,5.2671,5.3863,5.4992,5.6245,5.5841,5.5147,5.4318,5.3521,5.178,4.8866,4.8437,4.8479,4.9188,5.0188,5.04,5.0612,5.095,5.1684,5.3054,5.472,5.5223,5.553,5.5544,5.5336,5.5424,5.5613,5.562,5.5775,5.6329,5.6552,5.6809,5.6835,5.6803,5.6652,5.6784,5.6502,5.6219,5.6219,5.6219,5.6219,5.6017,5.5846,5.5919,5.6047,5.538,5.5047,5.4732,5.2954,5.2217,5.132,5.029,4.9027,4.789,4.7895,4.737,4.6841,4.6882,4.7021,4.6995,4.6893,4.6977,4.6954,4.8251,4.8907,4.9263,5.2273,5.3916,5.4483,5.5515,5.5992,5.6164,5.6219,5.6219,5.6219,5.6219,5.6109,5.5962,5.557,5.5158,5.4806,5.4397,5.3643,5.3185,5.3718,5.3459,5.2432,5.1308,5.0751,5.0009,4.7737,4.5776,4.5226,4.4696,4.4667,4.4775,4.4935,4.5044,4.523,4.5289,4.5389,4.5314,4.5184,4.5548,4.5741,4.6331,4.705,4.8098,4.9101,5.0032,5.0957,5.1947,5.2507,5.2775,5.3117,5.3183,5.3499,5.4018,5.4528,5.4727,5.3963,5.3191,5.2336,5.1155,4.9461,4.809,4.7939,4.7939,4.8178,4.8716,4.9572,5.004,5.0506,5.2183,5.4064,5.5703,5.6796,5.7467,5.7455,5.7297,5.7098,5.72,5.6557,5.6636,5.6635,5.6652,5.6451,5.6502,5.6602,5.6527,5.6451,5.6269,5.6164,5.6219,5.6054,5.5754,5.5497,5.4862,5.4942,5.5053,5.4583,5.3887,5.2916,5.162,5.0384,4.8759,4.7904,4.6819,4.5266,4.5858,4.5816,4.5306,4.5636,4.5841,4.6064,4.6063,4.6103,4.6164,4.737,4.747,4.8086,5.0517,5.343,5.4806,5.6047,5.6182,5.6146,5.62,5.62,5.6219,5.6219,5.5956,5.5515,5.509,5.4639,5.4234,5.4029,5.336,5.2461,5.2404,5.1789,5.0879,4.9673,4.8751,4.7836,4.6106,4.5042,4.4285,4.4145,4.3991,4.3906,4.4258,4.4452,4.4654,4.4669,4.4705,4.4725,4.476,4.5294,4.5789,4.6409,4.7585,4.8899,4.9778,5.0538,5.1472,5.2256,5.2452,5.2569,5.3556,5.4441,5.3947,5.3473,5.3163,5.2938,5.2322,5.1526,5.0628,4.9151,4.725,4.7463,4.7441,4.7463,4.7463,4.7615,4.8565,4.9166,4.9976,5.2556,5.4604,5.5882,5.7648,5.8583,5.8658,5.8666,5.8309,5.8083,5.7412,5.6784,5.6753,5.6627,5.6577,5.6552,5.6451,5.6627,5.6371,5.5957,5.5754,5.5681,5.546,5.5072,5.4378,5.336,5.302,5.3096,5.2717,5.2026,5.0788,4.9425,4.8173,4.6937,4.6004,4.5138,4.4593,4.4566,4.4629,4.4767,4.4977,4.5122,4.5392,4.5454,4.5454,4.5535,4.6042,4.6325,4.7368,4.915,5.1961,5.3637,5.4223,5.4223,5.4695,5.5589,5.6182,5.6102,5.5882,5.5527,5.5084,5.4583,5.3986,5.3502,5.3332,5.203,5.1062,5.0323,4.9719,4.828,4.7029,4.691,4.5941,4.5413,4.4453,4.3877,4.3815,4.3771,4.373,4.375,4.3945,4.4141,4.4177,4.4272,4.4317,4.4499,4.5012,4.573,4.6536,4.7893,4.9619,5.0409,5.1021,5.1485,5.2155,5.2281,5.2597,5.3797,5.4377,5.3409,5.2867,5.258,5.1877,5.1054,5.0123,4.9039,4.7427,4.5636,4.6985,4.6985,4.6985,4.6985,4.7072,4.7506,4.8178,4.9295,5.2718,5.4456,5.5077,5.8045,5.8985,5.8628,5.8559,5.8039,5.7256,5.698,5.6692,5.6515,5.6609,5.6734,5.6803,5.6803,5.6548,5.6276,5.5831,5.5183,5.4918,5.4304,5.3916,5.3176,5.1781,5.0988,5.0601,5.017,4.9604,4.848,4.7577,4.6553,4.5697,4.4872,4.4551,4.4315,4.4298,4.4242,4.4252,4.4214,4.4036,4.398,4.3898,4.3836,4.4371,4.5637,4.6304,4.7346,4.8871,5.032,5.1697,5.2099,5.2731,5.3774,5.501,5.5772,5.5791,5.5275,5.5016,5.436,5.3704,5.3101,5.2574,5.1069,4.9609,4.8781,4.8028,4.6767,4.5169,4.4596,4.4842,4.4535,4.4227,4.3733,4.3753,4.3691,4.3691,4.3691,4.3691,4.373,4.3887,4.3867,4.3983,4.4138,4.4366,4.4769,4.5596,4.6791,4.8294,5.007,5.0713,5.1312,5.1736,5.2177,5.2555,5.32,5.4272,5.4378,5.3572,5.2726,5.1974,5.1189,5.0345,4.9209,4.8286,4.6405,4.4842,4.6505,4.6505,4.6505,4.6483,4.6527,4.6658,4.7573,4.9359,5.2386,5.4013,5.4534,5.7588,5.8597,5.8095,5.7179,5.7203,5.693,5.6576,5.6439,5.6408,5.6453,5.6433,5.6415,5.6373,5.6102,5.5627,5.5115,5.4546,5.4066,5.3313,5.2241,5.1436,5.0235,4.8938,4.7849,4.7129,4.693,4.6691,4.6086,4.5573,4.5094,4.4546,4.4393,4.4217,4.4198,4.4082,4.3906,4.3828,4.3691,4.3691,4.3691,4.3691,4.3836,4.4371,4.4904,4.6766,4.8102,4.9383,5.0985,5.1816,5.2275,5.2826,5.4167,5.4285,5.4421,5.4365,5.4296,5.3691,5.2987,5.2459,5.1674,5.0277,4.8901,4.8009,4.7009,4.5454,4.4083,4.3898,4.4103,4.4042,4.3691,4.3691,4.3691,4.3691,4.3691,4.3691,4.3691,4.3691,4.3691,4.3691,4.373,4.3926,4.4235,4.4612,4.6124,4.7405,4.8914,5.0332,5.1176,5.1763,5.1989,5.2449,5.2954,5.3559,5.4253,5.4248,5.3854,5.303,5.2234,5.0902,4.9962,4.87,4.7347,4.5697,4.463,4.6308,4.6308,4.6308,4.6308,4.6308,4.6308,4.6987,4.8503,5.1741,5.3368,5.3744,5.7135,5.8284,5.7531,5.6843,5.6468,5.6258,5.6073,5.5838,5.5553,5.6089,5.5973,5.5904,5.5664,5.525,5.4735,5.4157,5.3667,5.3006,5.1862,5.0721,4.9469,4.8545,4.7211,4.6104,4.5637,4.5307,4.5326,4.5199,4.4925,4.4748,4.459,4.4375,4.4256,4.4256,4.3926,4.3769,4.3711,4.3691,4.3691,4.3691,4.3691,4.3691,4.3794,4.3939,4.5454,4.588,4.6947,4.8124,4.8855,5.0011,5.1081,5.1827,5.1697,5.2489,5.2949,5.3124,5.2992,5.244,5.1851,5.0902,4.9906,4.8783,4.771,4.6164,4.4617,4.4103,4.3774,4.3733,4.3733,4.3691,4.3691,4.3691,4.3691,4.3691,4.3691,4.3691,4.3691,4.3691,4.3691,4.3691,4.3789,4.41,4.4514,4.6161,4.7819,4.9344,5.0821,5.2208,5.2657,5.2534,5.2642,5.3138,5.3513,5.3935,5.386,5.3704,5.3351,5.2593,5.1281,5.0212,4.9371,4.7786,4.5535,4.4851,4.6308,4.6308,4.6308,4.6308,4.6308,4.6308,4.6352,4.6815,5.0861,5.2505,5.3017,5.6493,5.7744,5.705,5.6358,5.5605,5.5306,5.5141,5.4881,5.4417,5.5292,5.5364,5.4854,5.4754,5.3875,5.3389,5.2753,5.192,5.1536,5.039,4.8899,4.743,4.6651,4.5739,4.5209,4.4927,4.4773,4.4694,4.4869,4.4837,4.4793,4.4666,4.4549,4.4569,4.4178,4.3711,4.3711,4.3691,4.3691,4.3691,4.3691,4.3691,4.3691,4.3691,4.3836,4.4042,4.4494,4.5067,4.59,4.6466,4.6748,4.7328,4.7527,4.9072,5.0695,5.1916,5.2264,5.2364,5.1909,5.135,5.0494,4.9157,4.7948,4.6788,4.5413,4.4371,4.3898,4.3691,4.3691,4.3691,4.3691,4.3691,4.3691,4.3691,4.3691,4.3691,4.3691,4.3691,4.3691,4.3691,4.3691,4.3691,4.3918,4.4474,4.6042,4.7726,4.9543,5.1134,5.2653,5.2767,5.2139,5.254,5.3268,5.3347,5.336,5.3554,5.3483,5.3365,5.3072,5.1967,5.099,5.0245,4.8403,4.5738,4.4771,4.6308,4.6308,4.6308,4.6308,4.6308,4.6308,4.633,4.6599,4.9869,5.1683,5.2555,5.4771,5.6362,5.6458,5.5156,5.4423,5.4651,5.4157,5.3712,5.3864,5.4492,5.4256,5.3393,5.3241,5.2231,5.0928,5.0137,4.9853,4.9061,4.8226,4.7452,4.6286,4.5718,4.5471,4.4589,4.4513,4.4787,4.4609,4.4982,4.4922,4.4648,4.4725,4.4705,4.4276,4.373,4.3691,4.3691,4.3691,4.3691,4.3691,4.3691,4.3691,4.3691,4.3691,4.3691,4.3794,4.4186,4.4555,4.4862,4.5311,4.5982,4.6908,4.7844,4.8934,5.0034,5.095,5.1455,5.152,5.1408,5.0866,4.9987,4.8545,4.7169,4.5941,4.4781,4.4227,4.3691,4.3691,4.3691,4.3691,4.3691,4.3691,4.3691,4.3691,4.3691,4.3691,4.3691,4.3691,4.3691,4.3691,4.3691,4.3691,4.3691,4.4432,4.6103,4.7827,4.9761,5.122,5.2635,5.2383,5.1801,5.1728,5.1924,5.2415,5.267,5.2788,5.3252,5.4079,5.3571,5.2339,5.0975,4.9886,4.8089,4.5596,4.4832,4.6308,4.6308,4.6308,4.6308,4.6398,4.6922,4.7184,4.7667,4.9868,5.1381,5.2287,5.3988,5.4946,5.5201,5.3985,5.3151,5.357,5.351,5.2891,5.2885,5.3343,5.3148,5.2585,5.1768,5.0643,4.9335,4.8701,4.8101,4.6931,4.6629,4.6145,4.5308,4.534,4.5169,4.4316,4.4922,4.5197,4.5041,4.5471,4.5256,4.4687,4.4764,4.4705,4.416,4.3848,4.3769,4.3691,4.3691,4.3691,4.3691,4.3691,4.3691,4.3691,4.3691,4.3691,4.3793,4.4082,4.4432,4.4617,4.5006,4.5617,4.6203,4.6243,4.6586,4.7688,4.866,5.041,5.063,5.137,5.1002,4.9769,4.8407,4.709,4.584,4.4699,4.3877,4.3691,4.3691,4.3691,4.3691,4.3691,4.3691,4.3691,4.3691,4.3691,4.3691,4.3691,4.3691,4.3691,4.3691,4.3691,4.3753,4.3815,4.5189,4.7307,4.8776,5.0145,5.1486,5.2755,5.2582,5.2185,5.0972,5.0478,5.0633,5.1078,5.1831,5.2465,5.3436,5.3331,5.2101,5.0674,4.9295,4.737,4.5657,4.4856,4.6308,4.6308,4.6308,4.6308,4.6486,4.7704,4.8204,4.8468,5.0158,5.1142,5.1558,5.3245,5.3141,5.3285,5.337,5.2324,5.2021,5.2864,5.2394,5.1704,5.2573,5.1726,5.0965,5.0372,4.9057,4.802,4.7273,4.6391,4.5413,4.5493,4.5364,4.4583,4.4551,4.4666,4.4998,4.5351,4.551,4.5295,4.5373,4.5332,4.5115,4.4899,4.4588,4.4258,4.3965,4.373,4.3691,4.3691,4.3691,4.3691,4.3691,4.3691,4.3691,4.3691,4.3691,4.3753,4.3774,4.3877,4.3877,4.398,4.4021,4.3959,4.3691,4.4432,4.5799,4.729,4.9039,5.0358,5.108,5.0688,4.9474,4.8347,4.705,4.5576,4.4494,4.3691,4.3691,4.3691,4.3691,4.3691,4.3691,4.3691,4.3691,4.3691,4.3691,4.3691,4.3691,4.3691,4.3691,4.3691,4.3691,4.3877,4.4061,4.586,4.7925,4.8757,4.956,5.2075,5.319,5.3034,5.2144,4.955,4.8143,4.8365,4.8936,5.0248,5.1432,5.2431,5.206,5.1651,5.0342,4.8855,4.7367,4.5779,4.4801,4.6308,4.6308,4.6308,4.6308,4.6529,4.7748,4.8104,4.8142,5.0039,5.0254,5.0057,5.1256,5.2487,5.3966,5.3154,5.2313,5.1879,5.256,5.1177,4.9913,5.0892,4.9955,4.9026,4.8693,4.7241,4.6332,4.5602,4.4786,4.4789,4.4999,4.4925,4.4533,4.5236,4.5137,4.4668,4.5099,4.5451,4.5197,4.5058,4.5037,4.492,4.4647,4.4258,4.3965,4.375,4.3711,4.3691,4.3691,4.3691,4.3691,4.3691,4.3691,4.3691,4.3691,4.3691,4.3691,4.3691,4.3691,4.3691,4.3691,4.3691,4.3691,4.3918,4.4679,4.5982,4.7169,4.8921,5.0611,5.0963,5.0163,4.9059,4.8228,4.7009,4.5169,4.3753,4.3691,4.3691,4.3691,4.3691,4.3691,4.3691,4.3691,4.3691,4.3691,4.3691,4.3691,4.3691,4.3691,4.3691,4.3691,4.3691,4.3918,4.4185,4.5352,4.6907,4.7348,4.846,5.1405,5.3223,5.2345,5.0377,4.6828,4.584,4.695,4.7868,4.9032,5.019,5.132,5.1281,5.0814,4.9774,4.8473,4.6992,4.5718,4.4555]},{"header":{"parameterUnit":"m.s-1","parameterCategory":1,"la1":31.0,"la2":29.5877,"lo1":-88.7671,"lo2":-86.6584,"dx":0.0162,"dy":0.0185,"nx":115,"ny":88,"refTime":"2022-11-19T06:00:00:Z","depth":0,"parameterNumber":3,"parameterNumberName":"V-component_of_WINDS"},"data":[0.0,0.0,0.0,0.0,0.0,0.0,0.0,0.0,0.0,0.0,0.0,0.0,0.0,0.0,0.0,0.0,0.0,0.0,0.0,0.0,0.0,0.0,0.0,0.0,0.0,0.0,0.0,0.0,0.0,0.0,0.0,0.0,0.0,0.0,0.0,0.0,0.0,0.0,0.0,0.0,0.0,0.0,0.0,0.0,0.0,0.0,0.0,0.0,0.0,0.0,0.0,0.0,0.0,0.0,0.0,0.0,0.0,0.0,0.0,0.0,0.0,0.0,0.0,0.0,0.0,0.0,0.0,0.0,0.0,0.0,0.0,0.0,0.0,0.0,0.0,0.0,0.0,0.0,0.0,0.0,0.0,0.0,0.0,0.0,0.0,0.0,0.0,0.0,0.0,0.0,0.0,0.0,0.0,0.0,0.0,0.0,0.0,0.0,0.0,0.0,0.0,0.0,0.0,0.0,0.0,0.0,0.0,0.0,0.0,0.0,0.0,0.0,0.0,0.0,0.0,0.0,0.0,0.0,0.0,0.0,0.0,0.0,0.0,0.0,0.0,0.0,0.0,0.0,0.0,0.0,0.0,0.0,0.0,0.0,0.0,0.0,0.0,0.0,0.0,0.0,0.0,0.0,0.0,0.0,0.0,0.0,0.0,0.0,0.0,0.0,0.0,0.0,0.0,0.0,0.0,0.0,0.0,0.0,0.0,0.0,0.0,0.0,0.0,0.0,0.0,0.0,0.0,0.0,0.0,0.0,0.0,0.0,0.0,0.0,0.0,0.0,0.0,0.0,0.0,0.0,0.0,0.0,0.0,0.0,0.0,0.0,0.0,0.0,0.0,0.0,0.0,0.0,0.0,0.0,0.0,0.0,0.0,0.0,0.0,0.0,0.0,0.0,0.0,0.0,0.0,0.0,0.0,0.0,0.0,0.0,0.0,0.0,0.0,0.0,0.0,0.0,0.0,0.0,0.0,0.0,0.0,0.0,0.0,0.0,0.0,0.0,0.0,0.0,0.0,0.0,0.0,0.0,0.0,0.0,0.0,0.0,0.0,0.0,0.0,0.0,0.0,0.0,0.0,0.0,0.0,0.0,0.0,0.0,0.0,0.0,0.0,0.0,0.0,0.0,0.0,0.0,0.0,0.0,0.0,0.0,0.0,0.0,0.0,0.0,0.0,0.0,0.0,0.0,0.0,0.0,0.0,0.0,0.0,0.0,0.0,0.0,0.0,0.0,0.0,0.0,0.0,0.0,0.0,0.0,0.0,0.0,0.0,0.0,0.0,0.0,0.0,0.0,0.0,0.0,0.0,0.0,0.0,0.0,0.0,0.0,0.0,0.0,0.0,0.0,0.0,0.0,0.0,0.0,0.0,0.0,0.0,0.0,0.0,0.0,0.0,0.0,0.0,0.0,0.0,0.0,0.0,0.0,0.0,0.0,0.0,0.0,0.0,0.0,0.0,0.0,0.0,0.0,0.0,0.0,0.0,0.0,0.0,0.0,0.0,0.0,0.0,0.0,0.0,0.0,0.0,0.0,0.0,0.0,0.0,0.0,0.0,0.0,0.0,0.0,0.0,0.0,0.0,0.0,0.0,0.0,0.0,0.0,0.0,0.0,0.0,0.0,0.0,0.0,0.0,0.0,0.0,0.0,0.0,0.0,0.0,0.0,0.0,0.0,0.0,0.0,0.0,0.0,0.0,0.0,0.0,0.0,0.0,0.0,0.0,0.0,0.0,0.0,0.0,0.0,0.0,0.0,0.0,0.0,0.0,0.0,0.0,0.0,0.0,0.0,0.0,0.0,0.0,0.0,0.0,0.0,0.0,0.0,0.0,0.0,0.0,0.0,0.0,0.0,0.0,0.0,0.0,0.0,0.0,0.0,0.0,0.0,0.0,0.0,0.0,0.0,0.0,0.0,0.0,0.0,0.0,0.0,0.0,0.0,0.0,0.0,0.0,0.0,0.0,0.0,0.0,0.0,0.0,0.0,0.0,0.0,0.0,0.0,0.0,0.0,0.0,0.0,0.0,0.0,0.0,0.0,0.0,0.0,0.0,0.0,0.0,0.0,0.0,0.0,0.0,0.0,0.0,0.0,0.0,0.0,0.0,0.0,0.0,0.0,0.0,0.0,0.0,0.0,0.0,0.0,0.0,0.0,0.0,0.0,0.0,0.0,0.0,0.0,0.0,0.0,0.0,0.0,0.0,0.0,0.0,0.0,0.0,0.0,0.0,0.0,0.0,0.0,0.0,0.0,0.0,0.0,0.0,0.0,0.0,0.0,0.0,0.0,0.0,0.0,0.0,0.0,0.0,0.0,0.0,0.0,0.0,0.0,0.0,0.0,0.0,0.0,0.0,0.0,0.0,0.0,0.0,0.0,0.0,0.0,0.0,0.0,0.0,0.0,0.0,0.0,0.0,0.0,0.0,0.0,0.0,0.0,0.0,0.0,0.0,0.0,0.0,0.0,0.0,0.0,0.0,0.0,0.0,0.0,0.0,0.0,0.0,0.0,0.0,0.0,0.0,0.0,0.0,0.0,0.0,0.0,0.0,0.0,0.0,0.0,0.0,0.0,0.0,0.0,0.0,0.0,0.0,0.0,0.0,0.0,0.0,0.0,0.0,0.0,0.0,0.0,0.0,0.0,0.0,0.0,0.0,0.0,0.0,0.0,0.0,0.0,0.0,0.0,0.0,0.0,0.0,0.0,0.0,0.0,0.0,0.0,0.0,0.0,0.0,0.0,0.0,0.0,0.0,0.0,0.0,0.0,0.0,0.0,0.0,0.0,0.0,0.0,0.0,0.0,0.0,0.0,0.0,0.0,0.0,0.0,0.0,0.0,0.0,0.0,0.0,0.0,0.0,0.0,0.0,0.0,0.0,0.0,0.0,0.0,0.0,0.0,0.0,0.0,0.0,0.0,0.0,0.0,0.0,0.0,0.0,0.0,0.0,0.0,0.0,0.0,0.0,0.0,0.0,0.0,0.0,0.0,0.0,0.0,0.0,0.0,0.0,0.0,0.0,0.0,0.0,0.0,0.0,0.0,0.0,0.0,0.0,0.0,0.0,0.0,0.0,0.0,0.0,0.0,0.0,0.0,0.0,0.0,0.0,0.0,0.0,0.0,0.0,0.0,0.0,0.0,0.0,0.0,0.0,0.0,0.0,0.0,0.0,0.0,0.0,0.0,0.0,0.0,0.0,0.0,0.0,0.0,0.0,0.0,0.0,0.0,0.0,0.0,0.0,0.0,0.0,0.0,0.0,0.0,0.0,0.0,0.0,0.0,0.0,0.0,0.0,0.0,0.0,0.0,0.0,0.0,0.0,0.0,0.0,0.0,0.0,0.0,0.0,0.0,0.0,0.0,0.0,0.0,0.0,0.0,0.0,0.0,0.0,0.0,0.0,0.0,0.0,0.0,0.0,0.0,0.0,0.0,0.0,0.0,0.0,0.0,0.0,0.0,0.0,0.0,0.0,0.0,0.0,0.0,0.0,0.0,0.0,0.0,0.0,0.0,0.0,0.0,0.0,0.0,0.0,0.0,0.0,0.0,0.0,0.0,0.0,0.0,0.0,0.0,0.0,0.0,0.0,0.0,0.0,0.0,0.0,0.0,0.0,0.0,0.0,0.0,0.0,0.0,0.0,0.0,0.0,0.0,0.0,0.0,0.0,0.0,0.0,0.0,0.0,0.0,0.0,0.0,0.0,0.0,0.0,0.0,0.0,0.0,0.0,0.0,0.0,0.0,0.0,0.0,0.0,0.0,0.0,0.0,0.0,0.0,0.0,0.0,0.0,0.0,0.0,0.0,0.0,0.0,0.0,0.0,0.0,0.0,0.0,0.0,0.0,0.0,0.0,0.0,0.0,0.0,0.0,0.0,0.0,0.0,0.0,0.0,0.0,0.0,0.0,0.0,0.0,0.0,0.0,0.0,0.0,0.0,0.0,0.0,0.0,0.0,0.0,0.0,0.0,0.0,0.0,0.0,0.0,0.0,0.0,0.0,0.0,0.0,0.0,0.0,0.0,0.0,0.0,0.0,0.0,0.0,0.0,0.0,0.0,0.0,0.0,0.0,0.0,0.0,0.0,0.0,0.0,0.0,0.0,0.0,0.0,0.0,0.0,0.0,0.0,0.0,0.0,0.0,0.0,0.0,0.0,0.0,0.0,0.0,0.0,0.0,0.0,0.0,0.0,0.0,0.0,0.0,0.0,0.0,0.0,0.0,0.0,0.0,0.0,0.0,0.0,0.0,0.0,0.0,0.0,0.0,0.4152,0.0,0.0,0.0,0.2909,0.0,0.0,0.0,0.0,0.0,0.0,0.0,0.0,0.0,0.0,0.0,0.0,0.0,0.0,0.0,0.0,0.0,0.0,0.0,0.0,0.0,0.0,0.0,0.0,0.0,0.0,0.0,0.0,0.0,0.0,0.0,0.0,0.0,0.0,0.0,0.0,0.0,0.0,0.0,0.0,0.0,0.0,0.0,0.0,0.0,0.0,0.0,0.0,0.0,0.0,0.0,0.0,0.0,0.0,0.0,0.0,0.0,0.0,0.0,0.0,0.0,0.0,0.0,0.0,0.0,0.0,0.0,0.0,0.0,0.0,0.0,0.0,0.0,0.0,0.0,0.0,0.0,0.0,0.0,0.0,0.0,0.0,0.0,0.0,0.0,0.0,0.0,0.0,0.0,0.0,0.0,0.0,0.0,0.0,0.0,0.0,0.0,0.0,0.0,0.0,0.0,0.0,0.0,0.0,0.0,0.0,0.0,0.0,0.0,0.0,0.4423,0.3156,0.5363,0.5347,0.2761,0.0,0.0,0.0,0.0,0.0,0.0,0.0,0.0,0.0,0.0,0.0,0.0,0.0,0.0,0.0,0.0,0.0,0.0,0.0,0.0,0.0,0.0,0.0,0.0,0.0,0.0,0.0,0.0,0.0,0.0,0.0,0.0,0.0,0.0,0.0,0.0,0.0,0.0,0.0,0.0,0.0,0.0,0.0,0.0,0.0,0.0,0.0,0.0,0.0,0.0,0.0,0.0,0.0,0.0,0.0,0.0,0.0,0.0,0.0,0.0,0.0,0.0,0.0,0.0,0.0,0.0,0.0,0.0,0.0,0.0,0.0,0.0,0.0,0.0,0.0,0.0,0.0,0.0,0.0,0.0,0.0,0.0,0.0,0.0,0.0,0.0,0.0,0.0,0.0,0.0,0.0,0.0,0.0,0.0,0.0,0.0,0.0,0.0,0.0,0.0,0.0,0.0,0.0,0.0,0.0,0.0,0.0,0.0,0.0,0.0,0.0,0.0,0.5494,0.5472,0.3537,0.0,0.0,0.0,0.0,0.0,0.0,0.0,0.0,0.0,0.0,0.0,0.0,0.0,0.0,0.0,0.0,0.0,0.0,0.0,0.0,0.0,0.0,0.0,0.0,0.0,0.0,0.0,0.0,0.0,0.0,0.0,0.0,0.0,0.0,0.0,0.0,0.0,0.0,0.0,0.0,0.0,0.0,0.0,0.0,0.0,0.0,0.0,0.0,0.0,0.0,0.0,0.0,0.0,0.0,0.0,0.0,0.0,0.0,0.0,0.0,0.0,0.0,0.0,0.0,0.0,0.0,0.0,0.0,0.0,0.0,0.0,0.0,0.0,0.0,0.0,0.0,0.0,0.0,0.0,0.0,0.0,0.0,0.0,0.0,0.0,0.0,0.0,0.0,0.0,0.0,0.0,0.0,0.0,0.0,0.0,0.0,0.0,0.0,0.0,0.0,0.0,0.0,0.0,0.0,0.0,0.0,0.0,0.0,0.0,0.0,0.4208,0.5533,0.5755,0.0,0.5796,0.0,0.0,0.0,0.0,0.0,0.0,0.0,0.0,0.0,0.0,0.0,0.0,0.0,0.0,0.0,0.0,0.0,0.0,0.0,0.0,0.0,0.0,0.0,0.0,0.0,0.0,0.0,0.0,0.0,0.0,0.0,0.0,0.0,0.0,0.0,0.0,0.0,0.0,0.0,0.0,0.0,0.0,0.0,0.0,0.0,0.0,0.0,0.0,0.0,0.0,0.0,0.0,0.0,0.0,0.0,0.0,0.0,0.0,0.0,0.0,0.0,0.0,0.0,0.0,0.0,0.0,0.0,0.0,0.0,0.0,0.0,0.0,0.0,0.0,0.0,0.0,0.0,0.0,0.0,0.0,0.0,0.0,0.0,0.0,0.0,0.0,0.0,0.0,0.0,0.0,0.0,0.0,0.0,0.0,0.0,0.0,0.0,0.0,0.0,0.0,0.0,0.0,0.0,0.0,0.0,0.0,0.0,0.0,0.0,0.0,0.4519,0.588,0.581,0.5566,0.0,0.0,0.0,0.0,0.0,0.0,0.0,0.0,0.0,0.0,0.0,0.0,0.0,0.0,0.0,0.0,0.0,0.0,0.0,0.0,0.0,0.0,0.0,0.0,0.0,0.0,0.0,0.0,0.0,0.0,0.0,0.0,0.0,0.0,0.0,0.0,0.0,0.0,0.0,0.0,0.0,0.0,0.0,0.0,0.0,0.0,0.0,0.0,0.0,0.0,0.0,0.0,0.0,0.0,0.0,0.0,0.0,0.0,0.0,0.0,0.0,0.0,0.0,0.0,0.0,0.0,0.0,0.0,0.0,0.0,0.0,0.0,0.0,0.0,0.0,0.0,0.0,0.0,0.0,0.0,0.0,0.0,0.0,0.0,0.0,0.0,0.0,0.0,0.0,0.0,0.0,0.0,0.0,0.0,0.0,0.0,0.0,0.0,0.0,0.0,0.0,0.0,0.0,0.0,0.0,0.0,0.0,0.0,0.0,0.0,0.5083,0.5488,0.6776,0.5861,0.5239,0.5097,0.0,0.0,0.0,0.0,0.0,0.0,0.0,0.0,0.0,0.0,0.0,0.0,0.0,0.0,0.0,0.0,0.0,0.0,0.0,0.0,0.0,0.0,0.0,0.0,0.0,0.0,0.0,0.0,0.0,0.0,0.0,0.0,0.0,0.0,0.0,0.0,0.0,0.0,0.0,0.0,0.0,0.0,0.0,0.0,0.0,0.0,0.0,0.0,0.0,0.0,0.0,0.0,0.0,0.0,0.0,0.0,0.0,0.0,0.0,0.0,0.0,0.0,0.0,0.0,0.0,0.0,0.0,0.0,0.0,0.0,0.0,0.0,0.0,0.0,0.0,0.0,0.0,0.0,0.0,0.0,0.0,0.0,0.0,0.0,0.0,0.0,0.0,0.0,0.0,0.0,0.0,0.0,0.0,0.0,0.0,0.0,0.0,0.0,0.0,0.0,0.0,0.0,0.0,0.0,0.0,0.0,0.0,0.0,0.9094,0.7391,0.7268,0.8936,0.6042,0.506,0.0,0.0,0.0,0.0,0.0,0.0,0.0,0.0,0.0,0.0,0.0,0.0,0.0,0.0,0.0,0.0,0.0,0.0,0.0,0.0,0.0,0.0,0.0,0.0,0.0,0.0,0.0,0.0,0.0,0.0,0.0,0.0,0.0,0.0,0.0,0.0,0.0,0.0,0.0,0.0,0.0,0.0,0.0,0.0,0.0,0.0,0.0,0.0,0.0,0.0,0.0,0.0,0.0,0.0,0.0,0.0,0.0,0.0,0.0,0.0,0.0,0.0,0.0,0.0,0.0,0.0,0.0,0.0,0.0,0.0,0.0,0.0,0.0,0.0,0.0,0.0,0.0,0.0,0.0,0.0,0.0,0.0,0.0,0.0,0.0,0.0,0.0,0.0,0.0,0.0,0.0,0.0,0.0,0.0,0.0,0.0,0.0,0.0,0.0,0.0,0.0,0.0,0.0,0.0,0.0,0.0,0.0,0.0,0.0,0.5653,0.6745,0.7559,0.7961,0.6959,0.6646,0.0,0.0,0.0,0.0,0.0,0.0,0.0,0.0,0.0,0.0,0.0,0.0,0.0,0.0,0.0,0.0,0.0,0.0,0.0,0.0,0.0,0.0,0.0,0.0,0.0,0.0,0.0,0.0,0.0,0.0,0.0,0.0,0.0,0.0,0.0,0.0,0.0,0.0,0.0,0.0,0.0,0.0,0.0,0.0,0.0,0.0,0.0,0.0,0.0,0.0,0.0,0.0,0.0,0.0,0.0,0.0,0.0,0.0,0.0,0.0,0.0,0.0,0.0,0.0,0.0,0.0,0.0,0.0,0.0,0.0,0.0,0.0,0.0,0.0,0.0,0.0,0.0,0.0,0.0,0.0,0.0,0.0,0.0,0.0,0.0,0.0,0.0,0.0,0.0,0.0,0.0,0.0,0.0,0.0,0.0,0.0,0.0,0.0,0.0,0.0,0.0,0.0,0.0,0.0,0.0,0.0,0.0,0.0,0.0,0.557,0.8106,0.9282,0.8788,0.7858,0.7221,0.0,0.0,0.0,0.0,0.0,0.0,0.0,0.0,0.0,0.0,0.0,0.0,0.0,0.0,0.0,0.0,0.0,0.0,0.0,0.0,0.0,0.0,0.0,0.0,0.0,0.0,0.0,0.0,0.0,0.0,0.0,0.0,0.0,0.0,0.0,0.0,0.0,0.0,0.0,0.0,0.0,0.0,0.0,0.0,0.0,0.0,0.0,0.0,0.0,0.0,0.0,0.0,0.0,0.0,0.0,0.0,0.0,0.0,0.0,0.0,0.0,0.0,0.0,0.0,0.0,0.0,0.0,0.0,0.0,0.0,0.0,0.0,0.0,0.0,0.0,0.0,0.0,0.0,0.0,0.0,0.0,0.0,0.0,0.0,0.0,0.0,0.0,0.0,0.0,0.0,0.0,0.0,0.0,0.0,0.0,0.0,0.0,0.0,0.0,0.0,0.0,0.0,0.0,0.0,0.0,0.0,0.0,0.0,0.593,0.975,1.1896,1.2654,1.1886,0.881,0.6711,0.0,0.0,0.0,0.0,0.0,0.0,0.0,0.0,0.0,0.0,0.0,0.0,0.0,0.0,0.0,0.0,0.0,0.0,0.0,0.0,0.0,0.0,0.0,0.0,0.0,0.0,0.0,0.0,0.0,0.0,0.0,0.0,0.0,0.0,0.0,0.0,0.0,0.0,0.0,0.0,0.0,0.0,0.0,0.0,0.0,0.0,0.0,0.0,0.0,0.0,0.0,0.0,0.0,0.0,0.0,0.0,0.0,0.0,0.0,0.0,0.0,0.0,0.0,0.0,0.0,0.0,0.0,0.0,0.0,0.0,0.0,0.0,0.0,0.0,0.0,0.0,0.0,0.0,0.0,0.0,0.0,0.0,0.0,0.0,0.0,0.0,0.0,0.0,0.0,0.0,0.0,0.0,0.0,0.0,0.0,0.0,0.0,0.0,0.0,0.0,0.0,0.0,0.0,0.0,0.0,0.0,0.0,0.0,0.0,0.8826,1.3551,1.5695,1.4813,1.1881,1.033,0.0,0.0,0.0,0.0,0.0,0.0,0.0,0.0,0.0,0.0,0.0,0.0,0.0,0.0,0.0,0.0,0.0,0.0,0.0,0.0,0.0,0.0,0.0,0.0,0.0,0.0,0.0,0.0,0.0,0.0,0.0,0.0,0.0,0.0,0.0,0.0,0.0,0.0,0.0,0.0,0.0,0.0,0.0,0.0,0.0,0.0,0.0,0.0,0.0,0.0,0.0,0.0,0.0,0.0,0.0,0.0,0.0,0.0,0.0,0.0,0.0,0.0,0.0,0.0,0.0,0.0,0.0,0.0,0.0,0.0,0.0,0.0,0.0,0.0,0.0,0.0,0.0,0.0,0.0,0.0,0.0,0.0,0.0,0.0,0.0,0.0,0.0,0.0,0.0,0.0,0.0,0.0,0.0,0.0,0.0,0.0,0.0,0.0,0.0,0.0,0.0,0.0,0.0,0.0,0.0,0.0,0.0,0.0,0.0,1.2468,1.7193,1.934,1.8314,1.4858,1.2804,1.2294,0.0,0.0,0.0,0.0,0.0,0.0,0.0,0.0,0.0,0.0,0.0,0.0,0.0,0.0,0.0,0.0,0.0,0.0,0.0,0.0,0.0,0.0,0.0,0.0,0.0,0.0,0.0,0.0,0.0,0.0,0.0,0.0,0.0,0.0,0.0,0.0,0.0,0.0,0.0,0.0,0.0,0.0,0.0,0.0,0.0,0.0,0.0,0.0,0.0,0.0,0.0,0.0,0.0,0.0,0.0,0.0,0.0,0.0,0.0,0.0,0.0,0.0,0.0,0.0,0.0,0.0,0.0,0.0,0.0,0.0,0.0,0.0,0.0,0.0,0.0,0.0,0.0,0.0,0.0,0.0,0.0,0.0,0.0,0.0,0.0,0.0,0.0,0.0,0.0,0.0,0.0,0.0,0.0,0.0,0.0,0.0,0.0,0.0,0.0,0.0,0.0,0.0,0.0,0.0,0.0,0.0,0.0,0.0,1.9154,2.2453,2.3532,2.2061,1.7636,1.4362,0.0,0.0,0.0,0.0,0.0,0.0,0.0,0.0,0.0,0.0,0.0,0.0,0.0,0.0,0.0,0.0,0.0,0.0,0.0,0.0,0.0,0.0,0.0,0.0,0.0,0.0,0.0,0.0,0.0,0.0,0.0,0.0,0.0,0.0,0.0,0.0,0.0,0.0,0.0,0.0,0.0,0.0,0.0,0.0,0.0,0.0,0.0,0.0,0.0,0.0,0.0,0.0,0.0,0.0,0.0,0.0,0.0,0.0,0.0,0.0,0.0,0.0,0.0,0.0,0.0,0.0,0.0,0.0,0.0,0.0,0.0,0.0,0.0,0.0,0.0,0.0,0.0,0.0,0.0,0.0,0.0,0.0,0.0,0.0,0.0,0.0,0.0,0.0,0.0,0.0,0.0,0.0,0.0,0.0,0.0,0.0,0.0,0.0,0.0,0.0,0.0,0.0,0.0,0.0,0.0,0.0,0.0,0.0,0.0,2.1303,2.6331,2.7949,2.5635,2.0693,1.7414,0.0,0.0,0.0,0.0,0.0,0.0,0.0,0.0,0.0,0.0,0.0,0.0,0.0,0.0,0.0,0.0,0.0,0.0,0.0,0.0,0.0,0.0,0.0,0.0,0.0,0.0,0.0,0.0,0.0,0.0,0.0,0.0,0.0,0.0,0.0,0.0,0.0,0.0,0.0,0.0,0.0,0.0,0.0,0.0,0.0,0.0,0.0,0.0,0.0,0.0,0.0,0.0,0.0,0.0,0.0,0.0,0.0,0.0,0.0,0.0,0.0,0.0,0.0,0.0,0.0,0.0,0.0,0.0,0.0,0.0,0.0,0.0,0.0,0.0,0.0,0.0,0.0,0.0,0.0,0.0,0.0,0.0,0.0,0.0,0.0,0.0,0.0,0.0,0.0,0.0,0.0,0.0,0.0,0.0,0.0,0.0,0.0,0.0,0.0,0.0,0.0,0.0,0.0,0.0,0.0,0.0,0.0,0.0,2.0634,2.4693,2.8798,3.0548,2.9823,2.5,2.1169,0.0,0.0,0.0,0.0,0.0,0.0,0.0,0.0,0.0,0.0,0.0,0.0,0.0,0.0,0.0,0.0,0.0,0.0,0.0,0.0,0.0,0.0,0.0,0.0,0.0,0.0,0.0,0.0,0.0,0.0,0.0,0.0,0.0,0.0,0.0,0.0,0.0,0.0,0.0,0.0,0.0,0.0,0.0,0.0,0.0,0.0,0.0,0.0,0.0,0.0,0.0,0.0,0.0,0.0,0.0,0.0,0.0,0.0,0.0,0.0,0.0,0.0,0.0,0.0,0.0,0.0,0.0,0.0,0.0,0.0,0.0,0.0,0.0,0.0,0.0,0.0,0.0,0.0,0.0,0.0,0.0,0.0,0.0,0.0,0.0,0.0,0.0,0.0,0.0,0.0,0.0,0.0,0.0,0.0,0.0,0.0,0.0,0.0,0.0,0.0,0.0,0.0,0.0,0.0,0.0,0.0,0.0,0.0,2.2219,2.8488,3.0311,3.2025,3.3623,2.9426,2.4937,0.0,0.0,0.0,0.0,0.0,0.0,0.0,0.0,0.0,0.0,0.0,0.0,0.0,0.0,0.0,0.0,0.0,0.0,0.0,0.0,0.0,0.0,0.0,0.0,0.0,0.0,0.0,0.0,0.0,0.0,0.0,0.0,0.0,0.0,0.0,0.0,0.0,0.0,0.0,0.0,0.0,0.0,0.0,0.0,0.0,0.0,0.0,0.0,0.0,0.0,0.0,0.0,0.0,0.0,0.0,0.0,0.0,0.0,0.0,0.0,0.0,0.0,0.0,0.0,0.0,0.0,0.0,0.0,0.0,0.0,0.0,0.0,0.0,0.0,0.0,0.0,0.0,0.0,0.0,0.0,0.0,0.0,0.0,0.0,0.0,0.0,0.0,0.0,0.0,0.0,0.0,0.0,0.0,0.0,0.0,0.0,0.0,0.0,0.0,0.0,0.0,0.0,0.0,0.0,0.0,0.0,0.0,0.0,2.3195,2.8856,3.1641,3.3581,3.4747,3.0331,2.5991,0.0,0.0,0.0,0.0,0.0,0.0,0.0,0.0,0.0,0.0,0.0,0.0,0.0,0.0,0.0,0.0,0.0,0.0,0.0,0.0,0.0,0.0,0.0,0.0,0.0,0.0,0.0,0.0,0.0,0.0,0.0,0.0,0.0,0.0,0.0,0.0,0.0,0.0,0.0,0.0,0.0,0.0,0.0,0.0,0.0,0.0,0.0,0.0,1.4323,0.0,0.0,0.0,0.0,0.0,0.0,0.0,0.0,0.0,0.0,0.0,0.0,0.0,0.0,0.0,0.0,0.0,0.0,0.0,0.0,0.0,0.0,0.0,0.0,0.0,0.0,0.0,0.0,0.0,0.0,0.0,0.0,0.0,0.0,0.0,0.0,0.0,0.0,0.0,0.0,0.0,0.0,0.0,0.0,0.0,0.0,0.0,0.0,0.0,0.0,0.0,0.0,0.0,0.0,0.0,0.0,0.0,0.0,0.0,2.6293,3.1396,3.3627,3.5431,3.6684,3.4338,2.9974,0.0,0.0,0.0,0.0,0.0,0.0,0.0,0.0,0.0,0.0,0.0,0.0,0.0,0.0,0.0,0.0,0.0,0.0,0.0,0.0,0.0,0.0,0.0,0.0,0.0,0.0,0.0,0.0,0.0,0.0,0.0,0.0,0.0,0.0,0.0,0.0,0.0,0.0,0.0,0.0,0.0,0.0,0.0,0.0,0.0,0.0,0.0,0.0,0.0,0.0,0.0,0.0,0.0,0.0,0.0,0.0,0.0,0.0,0.0,0.0,0.0,0.0,0.0,0.0,0.0,0.0,0.0,0.0,0.0,0.0,0.0,0.0,0.0,0.0,0.0,0.0,0.0,0.0,0.0,0.0,0.0,0.0,0.0,0.0,0.0,0.0,0.0,0.0,0.0,0.0,0.0,0.0,0.0,0.0,0.0,0.0,0.0,0.0,0.0,0.0,0.0,0.0,0.0,0.0,0.0,0.0,0.0,2.4833,2.9554,3.4701,3.6161,3.7553,3.9098,3.8888,3.4553,2.5813,0.0,0.0,0.0,0.0,0.0,0.0,0.0,0.0,0.0,0.0,0.0,0.0,0.0,0.0,0.0,0.0,0.0,0.0,0.0,0.0,0.0,0.0,0.0,0.0,0.0,0.0,0.0,0.0,0.0,0.0,0.0,0.0,0.0,0.0,0.0,0.0,0.0,0.0,0.8672,1.6169,0.0,0.0,0.0,0.0,0.0,0.0,0.0,0.0,1.5257,0.0,0.0,0.0,0.0,0.0,0.0,0.0,0.0,0.0,0.0,0.0,0.0,0.0,0.0,0.0,0.0,0.0,0.0,0.0,0.0,0.0,0.0,0.0,0.0,0.0,0.0,0.0,0.0,0.0,0.0,0.0,0.0,0.0,0.0,0.0,0.0,0.0,0.0,0.0,0.0,0.0,0.0,0.0,0.0,0.0,0.0,0.0,0.0,0.0,0.0,0.0,0.0,0.0,0.0,0.0,0.0,2.3084,2.5388,3.0153,3.7503,3.9499,4.0372,4.0338,4.059,3.6491,2.7833,0.0,0.0,0.0,0.0,0.0,0.0,0.0,0.0,0.0,0.0,0.0,0.0,0.0,0.0,0.0,0.0,0.0,0.0,0.0,0.0,0.0,0.0,0.0,0.0,0.0,0.0,0.0,0.0,0.0,0.0,0.0,0.0,0.0,0.0,0.0,0.0,0.0,0.0,0.0,2.02,2.2547,0.0,0.0,0.0,0.0,0.0,0.0,0.0,0.0,1.6434,0.0,0.0,0.0,0.0,0.0,0.0,0.0,0.0,0.0,0.0,0.0,0.0,0.0,0.0,0.0,0.0,0.0,0.0,0.0,0.0,0.0,0.0,0.0,0.0,0.0,0.0,0.0,0.0,0.0,0.0,0.0,0.0,0.0,0.0,0.0,0.0,0.0,0.0,0.0,0.0,0.0,0.0,0.0,0.0,0.0,0.0,0.0,0.0,0.0,0.0,0.0,0.0,0.0,0.0,0.0,2.4668,2.9627,3.4668,3.9731,4.1631,4.2317,4.1837,4.1738,3.7529,0.0,0.0,0.0,0.0,0.0,0.0,0.0,0.0,0.0,0.0,0.0,0.0,0.0,0.0,0.0,0.0,0.0,0.0,0.0,0.0,0.0,0.0,0.0,0.0,0.0,0.0,0.0,0.0,0.0,0.0,0.0,0.0,0.0,0.0,0.0,0.0,0.0,0.0,0.0,0.0,2.1806,2.4203,2.2883,0.0,0.0,0.0,0.0,0.0,0.0,1.7943,1.7356,0.0,0.0,0.0,0.0,0.0,0.0,0.0,0.0,0.0,0.0,0.0,0.0,0.0,0.0,0.0,0.0,0.0,0.0,0.0,0.0,0.0,0.0,0.0,0.0,0.0,0.0,0.0,0.0,0.0,0.0,0.0,0.0,0.0,0.0,0.0,0.0,0.0,0.0,0.0,0.0,0.0,0.0,0.0,0.0,0.0,0.0,0.0,0.0,0.0,0.0,0.0,0.0,0.0,0.0,0.0,2.6489,3.3843,3.9126,4.2046,4.3504,4.3953,4.3449,4.2837,3.8356,0.0,0.0,0.0,0.0,0.0,0.0,0.0,0.0,0.0,0.0,0.0,0.0,0.0,0.0,0.0,0.0,0.0,0.0,0.0,0.0,0.0,0.0,0.0,0.0,0.0,0.0,0.0,0.0,0.0,0.0,0.0,0.0,0.0,0.0,0.0,0.0,0.0,0.0,0.0,0.0,0.0,2.5363,2.5658,2.4262,0.0,0.0,0.0,0.0,1.937,2.0141,0.0,0.0,0.0,0.0,0.0,0.0,0.0,0.0,0.0,0.0,0.0,0.0,0.0,0.0,0.0,0.0,0.0,0.0,0.0,0.0,0.0,0.0,0.0,0.0,0.0,0.0,0.0,0.0,0.0,0.0,0.0,0.0,0.0,0.0,0.0,0.0,0.0,0.0,0.0,0.0,0.0,0.0,0.0,0.0,0.0,0.0,0.0,0.0,0.0,0.0,0.0,0.0,0.0,0.0,0.0,0.0,2.8782,3.5046,4.0477,4.4783,4.568,4.5744,4.5208,4.4177,3.9282,0.0,0.0,0.0,0.0,0.0,0.0,0.0,0.0,0.0,0.0,0.0,0.0,0.0,0.0,0.0,0.0,0.0,0.0,0.0,0.0,0.0,0.0,0.0,0.0,0.0,0.0,0.0,0.0,0.0,0.0,0.0,0.0,0.0,0.0,0.0,0.0,0.0,0.0,0.0,0.0,0.0,2.553,2.3141,2.3672,2.4089,0.0,0.0,2.3443,2.5628,2.7348,0.0,0.0,0.0,0.0,0.0,0.0,0.0,0.0,0.0,0.0,0.0,0.0,0.0,0.0,0.0,0.0,0.0,0.0,0.0,0.0,0.0,0.0,0.0,0.0,0.0,0.0,0.0,0.0,0.0,0.0,0.0,0.0,0.0,0.0,0.0,0.0,0.0,0.0,0.0,0.0,0.0,0.0,0.0,0.0,0.0,0.0,0.0,0.0,0.0,0.0,0.0,0.0,0.0,0.0,0.0,2.5953,3.0762,3.7839,4.326,4.6717,4.7079,4.6803,4.5974,4.4869,3.9829,0.0,0.0,0.0,0.0,0.0,0.0,0.0,0.0,0.0,0.0,0.0,0.0,0.0,0.0,0.0,0.0,0.0,0.0,0.0,0.0,0.0,0.0,0.0,0.0,0.0,0.0,0.0,0.0,0.0,0.0,0.0,0.0,0.0,0.0,0.0,0.0,0.0,0.0,0.0,0.0,0.0,0.0,2.7348,2.7192,0.0,0.0,0.0,2.6639,2.6933,0.0,0.0,0.0,0.0,0.0,0.0,0.0,0.0,0.0,0.0,0.0,0.0,0.0,0.0,0.0,0.0,0.0,0.0,0.0,0.0,0.0,0.0,0.0,0.0,0.0,0.0,0.0,0.0,0.0,0.0,0.0,0.0,0.0,0.0,0.0,0.0,0.0,0.0,0.0,0.0,0.0,0.0,0.0,0.0,0.0,0.0,0.0,0.0,0.0,0.0,0.0,0.0,0.0,0.0,0.0,0.0,0.0,3.2094,4.0516,4.5879,4.7836,4.7908,4.7516,4.6728,4.5633,0.0,0.0,0.0,0.0,0.0,0.0,0.0,0.0,0.0,0.0,0.0,0.0,0.0,0.0,0.0,0.0,0.0,0.0,0.0,0.0,0.0,0.0,0.0,0.0,0.0,0.0,0.0,0.7335,0.0,0.0,0.0,0.0,0.0,0.0,0.0,0.0,0.0,0.0,0.0,0.0,0.0,0.0,2.6891,3.0669,3.0287,3.0191,0.0,0.0,3.0078,2.9621,3.175,3.2312,0.0,0.0,0.0,0.0,0.0,0.0,0.0,0.0,0.0,0.0,0.0,0.0,0.0,0.0,0.0,0.0,0.0,0.0,0.0,0.0,0.0,0.0,0.0,0.0,0.0,0.0,0.0,0.0,0.0,0.0,0.0,0.0,0.0,0.0,0.0,0.0,0.0,0.0,0.0,0.0,0.0,0.0,0.0,0.0,0.0,0.0,0.0,0.0,0.0,0.0,0.0,0.0,0.0,0.0,0.0,3.2655,4.244,4.7708,4.7908,4.7908,4.7883,4.7782,4.6753,4.201,0.0,0.0,0.0,0.0,0.0,0.0,0.0,0.0,0.0,0.0,0.0,0.0,0.0,0.0,0.0,0.0,0.0,0.0,0.0,0.0,0.0,0.0,0.0,0.0,0.0,0.0,0.0,0.0,0.0,0.0,0.0,0.0,0.0,0.0,0.0,0.0,0.0,0.0,0.0,0.0,0.0,2.7091,2.9976,3.1149,3.295,0.0,0.0,3.4115,3.6424,3.8059,3.7472,3.2621,0.0,0.0,0.0,0.0,0.0,0.0,0.0,0.0,0.0,0.0,0.0,0.0,0.0,0.0,0.0,0.0,0.0,0.0,0.0,0.0,0.0,0.0,0.0,0.0,0.0,0.0,0.0,0.0,0.0,0.0,0.0,0.0,0.0,0.0,0.0,0.0,0.0,0.0,0.0,0.0,0.0,0.0,0.0,0.0,0.0,0.0,0.0,0.0,0.0,0.0,0.0,0.0,0.0,3.2248,3.3947,4.3476,4.8626,4.8937,4.8937,4.8786,4.8476,4.7365,4.3607,0.0,0.0,0.0,0.0,0.0,0.0,0.0,0.0,0.0,0.0,0.0,0.0,0.0,0.0,0.0,0.0,0.0,0.0,0.0,0.0,0.0,0.0,0.0,0.0,0.0,0.0,0.0,0.0,1.563,1.5863,1.4446,0.0,0.0,0.0,0.0,0.0,0.0,0.0,0.0,0.0,0.0,3.1829,3.4001,3.4824,0.0,0.0,3.7412,3.6947,3.8589,3.8458,3.7394,3.5153,3.3212,0.0,0.0,0.0,0.0,0.0,0.0,0.0,0.0,0.0,0.0,0.0,0.0,0.0,0.0,0.0,0.0,0.0,0.0,0.0,0.0,0.0,0.0,0.0,0.0,0.0,0.0,0.0,0.0,0.0,0.0,0.0,0.0,0.0,0.0,0.0,0.0,0.0,0.0,0.0,0.0,0.0,0.0,0.0,0.0,0.0,0.0,0.0,0.0,0.0,0.0,0.0,0.0,3.3195,3.5422,4.47,4.9809,5.0477,5.0518,5.0314,4.992,4.8538,4.526,0.0,0.0,0.0,0.0,0.0,0.0,0.0,0.0,0.0,0.0,0.0,0.0,0.0,0.0,0.0,0.0,0.0,0.0,0.0,0.0,0.0,0.0,0.0,0.0,0.0,0.0,0.0,0.0,1.7039,1.7015,1.6717,0.0,0.0,0.0,0.0,0.0,0.0,0.0,0.0,0.0,0.0,3.5105,3.7177,3.7777,3.8529,3.9913,3.9236,3.8769,3.9364,3.8616,3.7462,3.6105,0.0,0.0,0.0,0.0,0.0,0.0,0.0,0.0,0.0,0.0,0.0,0.0,0.0,0.0,0.0,0.0,0.0,0.0,0.0,0.0,0.0,0.0,0.0,0.0,0.0,0.0,0.0,0.0,0.0,0.0,1.2178,0.0,0.0,0.0,0.0,0.0,0.0,0.0,0.0,0.0,0.0,0.0,0.0,0.0,0.0,0.0,0.0,0.0,0.0,0.0,0.0,0.0,0.0,3.4052,3.6821,4.6191,5.1523,5.245,5.2553,5.2481,5.2412,5.0446,4.7051,4.2116,0.0,0.0,0.0,0.0,0.0,0.0,0.0,0.0,0.0,0.0,0.0,0.0,0.0,0.0,0.0,0.0,0.0,0.0,0.0,0.0,0.0,0.0,0.0,0.0,0.0,0.0,1.3644,1.4458,1.6633,0.0,0.0,0.0,0.0,0.0,0.0,0.0,0.0,0.0,0.0,3.3984,3.5943,3.8687,3.9423,4.0074,4.1154,4.0398,3.9534,3.9082,3.932,3.8542,0.0,0.0,0.0,0.0,0.0,0.0,0.0,0.0,0.0,0.0,0.0,0.0,0.0,0.0,0.0,0.0,0.0,0.0,0.0,0.0,0.0,0.0,0.0,0.0,0.0,0.0,0.0,1.6027,1.576,0.0,0.0,0.0,0.0,0.0,0.0,0.0,0.0,0.0,0.0,0.0,3.3548,3.5547,0.0,0.0,0.0,0.0,0.0,0.0,0.0,0.0,0.0,0.0,0.0,0.0,3.6103,3.8678,4.7429,5.228,5.2588,5.263,5.263,5.2588,5.1512,4.8184,4.2417,0.0,0.0,0.0,0.0,0.0,0.0,0.0,0.0,0.0,0.0,0.0,0.0,0.0,0.0,0.0,0.0,0.0,0.0,0.0,0.0,0.0,0.0,0.0,0.0,0.0,1.8098,0.0,0.0,0.0,0.0,0.0,0.0,0.0,0.0,0.0,0.0,0.0,3.0672,3.4806,3.7897,4.0232,4.1518,4.181,4.2264,0.0,0.0,0.0,0.0,0.0,0.0,0.0,0.0,0.0,0.0,0.0,0.0,0.0,0.0,3.2054,2.8482,2.7577,2.7174,2.6517,0.0,0.0,0.0,0.0,0.0,0.0,0.0,0.0,0.0,0.0,0.0,0.0,0.0,0.0,2.1662,0.0,2.073,0.0,0.0,0.0,0.0,0.0,0.0,0.0,0.0,3.5716,3.8265,3.8743,4.04,3.9949,0.0,3.6974,3.3902,0.0,0.0,0.0,0.0,0.0,0.0,0.0,0.0,3.8593,4.1802,4.9184,5.3261,5.3595,5.361,5.3501,5.3269,5.1969,4.8959,4.4023,4.0425,3.7256,0.0,0.0,0.0,0.0,0.0,0.0,0.0,0.0,0.0,0.0,0.0,0.0,0.0,0.0,0.0,0.0,0.0,0.0,0.0,0.0,0.0,0.0,0.0,2.1845,0.0,0.0,0.0,0.0,0.0,0.0,0.0,0.0,0.0,2.728,3.1204,3.5257,3.8657,4.1203,4.2964,4.3478,0.0,0.0,0.0,0.0,0.0,0.0,0.0,3.8994,3.9132,3.7701,3.6508,3.6446,3.7245,3.7738,3.7247,0.0,0.0,3.4124,3.3068,3.2641,3.2015,3.1271,3.1109,3.2316,3.4746,3.6082,0.0,0.0,0.0,0.0,0.0,0.0,0.0,0.0,2.919,2.9002,0.0,2.6607,0.0,0.0,0.0,0.0,0.0,2.9345,0.0,0.0,4.3065,4.507,4.4564,4.5095,4.4583,4.3101,4.2925,4.1509,3.8693,3.4306,0.0,0.0,0.0,0.0,0.0,0.0,4.1521,4.6261,5.1468,5.4599,5.5496,5.554,5.5273,5.4654,5.2028,4.9512,4.7004,4.3095,4.0135,3.8476,3.175,0.0,0.0,0.0,0.0,0.0,0.0,0.0,0.0,0.0,0.0,0.0,0.0,0.0,0.0,0.0,0.0,0.0,0.0,0.0,0.0,2.504,0.0,0.0,0.0,0.0,0.0,0.0,0.0,0.0,0.0,0.0,3.3718,3.5953,3.906,4.3186,0.0,0.0,0.0,0.0,4.389,4.3915,4.3,4.216,4.1603,4.1895,4.1984,4.1503,0.0,0.0,4.0212,4.1594,4.2256,4.0261,4.1576,4.2243,3.9685,3.8518,3.7967,3.7655,3.7344,3.7217,3.706,3.869,4.0611,3.8316,0.0,0.0,0.0,0.0,3.2053,3.3113,3.5048,3.4864,3.4209,3.3201,3.2455,0.0,0.0,0.0,0.0,0.0,0.0,3.5358,4.0011,4.1448,4.321,4.5221,4.5397,4.502,4.4152,4.4152,4.3715,4.2976,4.2613,3.7854,2.9125,0.0,0.0,0.0,0.0,4.6183,4.9399,5.3948,5.648,5.678,5.678,5.6708,5.6506,5.3853,5.2095,5.1377,4.7937,4.4357,4.0811,3.7586,0.0,0.0,0.0,0.0,0.0,0.0,0.0,0.0,0.0,0.0,0.0,0.0,0.0,0.0,0.0,0.0,0.0,0.0,0.0,2.5817,2.7337,2.7737,0.0,0.0,0.0,0.0,0.0,0.0,0.0,0.0,0.0,3.962,3.9888,4.0919,0.0,0.0,4.4895,4.464,4.5156,4.5583,4.5598,4.5321,0.0,0.0,4.3427,4.2975,4.3561,4.3951,4.3926,4.3299,4.3725,4.394,4.3288,4.37,4.3883,4.3194,4.2243,4.1592,4.1447,4.1376,4.1316,4.127,4.1812,4.2807,4.5439,4.0798,3.7724,3.6824,3.7409,3.7207,3.8867,4.1663,4.0849,4.0309,3.9904,3.8257,3.6278,3.403,3.3261,0.0,0.0,0.0,3.9639,4.404,4.4585,4.5744,4.7347,4.7398,4.6868,4.5909,4.5693,4.5916,4.6518,4.7433,4.4478,3.7923,0.0,0.0,4.021,4.5866,5.007,5.2665,5.5711,5.7303,5.7303,5.7056,5.694,5.6897,5.5107,5.3951,5.3543,5.1362,4.8488,4.4915,4.2237,3.9118,0.0,0.0,0.0,0.0,0.0,0.0,0.0,0.0,0.0,0.0,0.0,2.166,0.0,0.0,0.0,0.0,2.7936,2.9815,3.1356,3.2499,0.0,0.0,0.0,0.0,0.0,0.0,0.0,3.5287,3.9333,4.2532,4.3893,4.4368,4.4626,4.4769,4.571,4.6326,4.6213,0.0,4.7773,4.7773,4.7788,4.7567,4.7001,4.5772,4.4979,4.5215,4.5282,4.5282,4.5267,4.5267,4.5389,4.5726,4.5828,4.5944,4.6311,4.5831,4.5086,4.4367,4.4489,4.474,4.474,4.4892,4.5447,5.141,4.9993,4.3727,4.152,4.2116,4.1703,4.4266,4.8517,4.6688,4.6592,4.7474,4.3702,4.1129,3.9525,3.7059,0.0,4.1591,4.3045,4.5801,4.9677,5.0706,5.0857,5.0369,5.0343,4.959,4.8197,4.7773,4.8289,4.9696,4.9937,5.0056,5.0065,4.9046,4.8688,4.9086,5.1176,5.3605,5.6164,5.7151,5.7632,5.7603,5.702,5.67,5.6727,5.6016,5.5227,5.4411,5.3675,5.2225,4.9901,4.6169,4.2928,4.0361,0.0,0.0,0.0,0.0,0.0,0.0,0.0,0.0,0.0,0.0,0.0,0.0,0.0,0.0,0.0,3.6934,0.0,3.8843,3.8831,0.0,0.0,0.0,3.2291,2.7732,3.3411,3.7827,3.8363,0.0,0.0,4.7011,4.886,4.9261,4.7018,4.7448,4.8121,4.8633,4.9437,5.0077,4.9946,5.0019,4.9847,4.9206,4.8426,4.7681,4.7081,4.6697,4.6772,4.6762,4.6772,4.7061,4.7792,4.7965,4.8174,4.9075,4.9137,4.8785,4.6932,4.7026,4.7462,4.731,4.7736,4.815,5.3604,5.259,5.0966,4.9077,4.7146,4.7775,4.8722,4.9759,4.9337,4.861,4.7596,4.5933,4.4953,4.4594,4.4677,4.616,4.8749,4.9397,5.0469,5.1782,5.1692,5.1332,5.0747,5.0774,5.0801,5.0872,5.1253,5.1871,5.2722,5.395,5.475,5.5237,5.6074,5.5394,5.3355,5.6028,5.8264,5.9824,6.0065,6.0193,6.0177,5.9567,5.921,5.9224,5.7687,5.6785,5.6523,5.5503,5.4116,5.2363,5.1412,4.9774,4.721,4.036,0.0,0.0,0.0,0.0,0.0,0.0,0.0,0.0,0.0,2.9137,2.6865,0.0,3.5679,0.0,3.9748,4.0991,3.8479,3.8283,0.0,0.0,3.6579,3.5708,3.7799,3.9503,4.1611,4.4464,4.6557,4.8351,4.9758,5.0371,5.064,5.0483,5.0303,5.0047,4.984,5.0265,5.0679,5.0738,5.0782,5.0638,5.0536,5.0315,5.0203,5.0454,5.0085,4.9826,4.9811,4.9811,4.99,5.0108,5.0138,5.0241,5.0466,5.1034,5.1332,5.0805,4.9716,4.8523,4.8081,4.8823,4.9599,5.6305,5.5403,5.5416,5.4138,5.2106,5.1592,5.1853,5.2641,5.2008,5.1201,5.0249,4.9083,4.8507,4.8622,4.9793,5.0905,5.1917,5.2896,5.3615,5.4122,5.436,5.4294,5.3969,5.3954,5.3895,5.383,5.4181,5.4766,5.559,5.6997,5.826,5.9334,6.0717,6.0675,5.9296,5.9815,6.0289,6.0641,6.0954,6.109,6.109,6.0745,6.0116,5.9235,5.8784,5.8116,5.7255,5.6842,5.569,5.357,5.2997,5.1479,4.8712,4.373,4.0809,0.0,0.0,0.0,0.0,0.0,0.0,0.0,0.0,0.0,0.0,0.0,3.8211,0.0,4.153,4.295,4.015,4.0835,4.1571,4.1892,4.0563,4.0361,4.2075,4.3599,4.5645,4.8386,4.9609,5.0693,5.1794,5.2518,5.3162,5.3751,5.4054,5.372,5.2641,5.2883,5.3349,5.3321,5.3364,5.308,5.2485,5.2316,5.2287,5.2188,5.1927,5.1707,5.1692,5.1485,5.1426,5.1807,5.1703,5.1686,5.208,5.2529,5.293,5.279,5.1977,5.1098,5.0667,5.1127,5.166,5.9015,5.8239,5.821,5.7721,5.6775,5.4676,5.4598,5.5847,5.4501,5.3798,5.3553,5.2198,5.1669,5.1881,5.3228,5.3738,5.3563,5.5197,5.6132,5.6608,5.7636,5.8062,5.7988,5.7988,5.7612,5.6938,5.7015,5.7584,5.8606,5.9821,6.11,6.2558,6.3622,6.4395,6.4755,6.2705,6.1283,6.0609,6.1014,6.1225,6.121,6.115,6.0282,5.8637,5.9548,5.9306,5.7603,5.7949,5.705,5.4583,5.3473,5.1564,4.8639,4.645,4.4004,0.0,3.9511,0.0,0.0,0.0,0.0,0.0,0.0,0.0,0.0,3.9798,4.0111,3.8856,4.3037,4.501,4.3104,4.4673,4.539,4.4398,4.5184,4.5272,4.4101,4.6715,4.9495,5.1395,5.2262,5.2922,5.3864,5.5126,5.6219,5.6798,5.7623,5.757,5.6278,5.6318,5.6628,5.6764,5.6764,5.6104,5.4966,5.4669,5.4431,5.3682,5.3511,5.3271,5.3384,5.2954,5.2824,5.3497,5.3323,5.3165,5.3908,5.4007,5.3993,5.4078,5.3993,5.3866,5.3585,5.3571,5.3853,6.0639,6.0497,6.0483,6.0368,6.0153,5.9709,5.8462,5.6673,5.6135,5.509,5.3656,5.3367,5.363,5.4381,5.5446,5.654,5.7612,5.8755,5.9319,5.9417,5.9637,5.948,5.903,5.9015,5.9447,6.0281,6.0818,6.173,6.292,6.3653,6.4174,6.4457,6.471,6.462,6.4216,0.0,0.0,0.0,6.2361,6.1912,6.1896,6.1389,6.094,6.0521,6.0236,0.0,5.9532,5.9129,5.842,5.7395,5.7599,0.0,0.0,0.0,0.0,0.0,0.0,0.0,0.0,0.0,0.0,0.0,4.1266,4.1567,4.0837,4.3761,4.488,4.3011,4.5598,4.728,4.6878,4.7179,4.7359,4.7182,4.8009,4.8696,4.9007,4.9909,5.1722,5.518,5.501,5.5287,5.6996,5.8089,5.8768,5.9267,5.9674,5.9875,5.9864,5.9153,5.874,5.874,5.8681,5.8345,5.7346,5.7345,5.7291,5.7155,5.6715,5.6448,5.6391,5.6306,5.6236,5.6491,5.6037,5.5665,5.5851,5.552,5.5376,5.5794,5.5894,5.5567,5.446,5.4331,5.4567,6.2825,0.0,6.2885,6.2855,0.0,6.2885,6.2231,6.0822,5.9379,5.7901,5.6431,5.6416,5.6659,5.7147,5.8263,5.9173,5.994,6.0752,6.1129,6.1159,6.1797,6.192,6.1644,6.1968,6.2455,6.3089,6.3402,6.3922,6.4546,6.5188,6.5473,6.5488,6.5817,6.5832,6.5503,6.5488,6.5159,6.45,6.3887,6.3364,6.3063,6.272,6.1898,6.0685,0.0,0.0,0.0,0.0,0.0,0.0,0.0,0.0,0.0,0.0,0.0,4.7398,4.4028,4.2071,4.2096,4.2598,4.3585,4.5169,4.6426,4.6594,4.5379,4.6845,4.745,4.6688,4.742,4.7908,4.7908,4.7908,4.8251,4.9033,4.9827,5.089,5.2459,5.3353,5.5091,5.7808,5.7754,5.7714,5.9056,5.9506,5.9883,6.028,6.0805,6.1185,6.128,6.0732,6.02,6.0156,5.9967,5.9773,5.9552,5.9369,5.9435,5.9491,5.9379,5.9196,5.9197,5.8915,5.8731,5.8688,5.8233,5.783,5.7816,5.757,5.7468,5.7743,5.783,5.7456,5.638,5.6265,5.646,6.468,6.4246,6.477,6.468,6.4231,6.4889,6.5174,6.5039,0.0,0.0,0.0,6.0078,6.0107,6.0224,6.1266,6.1736,6.1838,6.2346,6.263,6.2646,6.3677,6.4186,6.4216,6.474,6.5054,6.5188,6.5174,6.5233,6.5398,6.6026,6.637,6.64,6.6909,6.7119,6.6969,6.646,6.5906,6.5353,6.4994,6.456,6.4036,6.4006,6.2959,6.0819,6.1746,6.1493,5.9907,6.0641,6.0073,5.7962,5.7812,5.6568,5.3879,5.2547,5.1558,5.0823,4.96,4.8875,4.8776,4.8862,4.9306,5.0216,5.0651,5.0614,5.0002,4.9747,4.9728,4.9971,4.9237,4.8784,4.8768,4.8768,4.9385,5.095,5.1768,5.3068,5.5026,5.6488,5.7963,5.9942,5.9874,5.9858,6.0433,6.0681,6.0765,6.096,6.1724,6.2183,6.1962,6.1693,6.1454,6.1451,6.1222,6.1013,6.1048,6.1066,6.0934,6.0916,6.0988,6.109,6.102,6.0696,6.0399,6.0252,5.9855,5.9451,5.9408,5.9219,5.935,5.9437,5.9437,5.9306,5.8871,5.8841,5.8823,6.4934,6.4874,6.4964,6.4949,6.4919,6.5577,6.5862,6.5772,6.4606,6.3832,6.3397,6.3426,6.3577,6.3832,6.404,6.4234,6.4456,6.4545,6.4575,0.0,6.48,6.4845,6.4845,6.4934,6.5308,6.5817,6.5847,6.6146,6.6729,6.7403,6.7748,6.7718,6.7822,6.7598,6.7029,6.6924,6.6819,6.667,6.5024,6.4096,6.4006,6.4006,6.3857,6.3482,6.3123,6.2854,6.2569,6.1613,6.094,6.0551,6.0521,5.9931,5.8722,5.744,5.6217,5.4781,5.3553,5.2665,5.2138,5.2538,5.3062,5.3597,5.2835,5.2273,5.2279,5.3292,5.3488,5.2462,5.2133,5.2107,5.2107,5.2046,5.2502,5.3741,5.5134,5.6196,5.6698,5.8057,5.9379,6.0382,6.0703,6.1185,6.1836,6.2323,6.2636,6.2692,6.2929,6.2974,6.2899,6.2869,6.2834,6.2841,6.2773,6.2418,6.1889,6.23,6.2141,6.1224,6.121,6.1269,6.1269,6.1171,6.1087,6.0995,6.0574,6.0231,6.0174,5.9625,5.9771,6.0103,6.0247,6.0348,6.0871,6.1204,6.1144,6.5877,6.5607,6.5936,6.5877,6.5607,6.6251,6.6745,6.6999,6.6234,6.532,6.4409,6.438,6.4455,6.462,6.474,6.4875,6.4994,6.4994,6.4994,6.5024,6.5383,6.5757,6.6056,6.6101,6.6624,6.7537,6.7284,6.7418,6.8046,6.8421,6.8541,6.8541,6.8541,6.8375,6.8076,6.7732,6.7538,6.7493,6.6296,6.5443,6.5114,6.5084,6.4889,6.456,6.4261,6.4156,6.4126,6.3199,6.251,6.2181,6.1822,6.1038,5.9768,5.8842,5.7767,5.6536,5.561,5.4698,5.3739,5.4399,5.5099,5.5625,5.5404,5.5639,5.6671,5.6977,5.6417,5.4686,5.4007,5.3687,5.3687,5.398,5.4738,5.6112,5.7212,5.8468,5.9985,6.0832,6.1719,6.2631,6.3059,6.337,6.3634,6.3932,6.4022,6.3904,6.4126,6.4273,6.3706,6.3602,6.3466,6.3177,6.309,6.2927,6.2535,6.2787,6.2803,6.2255,6.2181,6.2181,6.2181,6.2181,6.2151,6.2181,6.1909,6.1794,6.1751,6.1564,6.1521,6.1622,6.1766,6.2043,6.238,6.2586,6.2305,6.7074,6.649,6.7014,6.6999,6.6714,6.7238,6.7762,6.8137,6.7493,6.6428,6.5231,6.5127,6.5142,6.5157,6.5368,6.5458,6.5443,6.5458,6.5458,6.5518,6.5996,6.658,6.7164,6.7224,6.7852,6.8824,6.8451,6.8511,6.8974,6.9153,6.9213,6.9213,6.9213,6.9153,6.9004,6.8481,6.8167,6.7972,6.7493,6.6909,6.6251,6.6221,6.5981,6.5518,6.5293,6.5233,6.5203,6.456,6.4006,6.3528,6.3019,6.2194,6.0982,6.0414,5.9753,5.8889,5.8347,5.7571,5.6553,5.6923,5.7499,5.7953,5.8202,5.8927,6.0077,5.999,5.8927,5.7001,5.6065,5.5676,5.5926,5.6285,5.7208,5.8771,5.9552,6.0833,6.2894,6.3445,6.3862,6.483,6.4994,6.4949,6.4994,6.4994,6.483,6.4696,6.5143,6.5113,6.4425,6.4305,6.4125,6.3676,6.3303,6.3108,6.3108,6.3092,6.3092,6.3108,6.3048,6.2988,6.2988,6.3048,6.3078,6.3018,6.3048,6.302,6.3199,6.3229,6.326,6.338,6.3366,6.3351,6.3381,6.3499,6.3228,6.8375,6.7868,6.7822,6.8241,6.8645,6.8734,6.8794,6.8794,6.8181,6.7478,6.6714,6.6789,6.6714,6.6789,6.6744,6.6759,6.6759,6.6789,6.6759,6.6759,6.6849,6.7238,6.7852,6.7868,6.8301,6.8944,6.8884,6.8854,6.9093,6.9648,6.9887,6.9917,6.9917,6.9618,6.9093,6.8944,6.863,6.8002,6.7928,6.7598,6.6954,6.6924,6.6879,6.6819,6.6221,6.5906,6.5877,6.5263,6.4874,6.4829,6.474,6.4635,6.4457,6.4383,6.4085,6.3424,6.3303,6.3044,6.2269,6.1818,6.1407,6.1614,6.126,6.1121,6.1067,6.1292,6.0838,5.9509,5.9079,5.9137,5.9827,5.9925,6.0576,6.1995,6.2894,6.375,6.4005,6.4501,6.489,6.4949,6.5144,6.5024,6.5144,6.5174,6.5084,6.5024,6.5218,6.5293,6.4994,6.5173,6.5278,6.4724,6.3917,6.3287,6.3227,6.3108,6.3287,6.3227,6.3168,6.3243,6.3347,6.3287,6.3138,6.3482,6.3243,6.3452,6.3782,6.3947,6.4111,6.4396,6.4382,6.4263,6.4323,6.4487,6.4216,6.8032,6.7433,6.7403,6.8032,6.8944,6.9004,6.9004,6.8944,6.8317,6.7613,6.7029,6.6999,6.6999,6.6999,6.6999,6.6999,6.6999,6.6999,6.6999,6.6999,6.6999,6.7553,6.8451,6.7717,6.8151,6.9409,6.8794,6.884,6.9588,7.0217,7.053,7.053,7.053,7.038,7.0081,6.9363,6.8854,6.8571,6.7822,6.7254,6.7029,6.6999,6.6999,6.6969,6.6729,6.658,6.652,6.5936,6.5577,6.5532,6.5233,6.4994,6.4994,6.4994,6.489,6.4606,6.3934,6.3397,6.3095,6.2847,6.2498,6.2098,6.2272,6.2333,6.2204,6.2317,6.2272,6.2108,6.1441,6.118,6.1483,6.2151,6.296,6.3651,6.4244,6.4784,6.5201,6.5412,6.5727,6.6086,6.6191,6.6161,6.6191,6.6191,6.6011,6.5787,6.5892,6.6011,6.5697,6.5757,6.5772,6.5548,6.4814,6.4306,6.4186,6.4216,6.4216,6.4201,6.4201,6.4216,6.4186,6.4216,6.4246,6.4171,6.4111,6.4201,6.453,6.459,6.474,6.5009,6.4979,6.48,6.5099,6.5084,6.471,6.8151,6.7597,6.7553,6.8122,6.9004,6.9393,6.9333,6.8974,6.8481,6.7822,6.7029,6.6999,6.6999,6.6999,6.6999,6.6999,6.6999,6.6999,6.6999,6.6999,6.6999,6.7597,6.8525,6.7792,6.8122,6.9333,6.875,6.878,6.9708,7.0141,7.038,7.038,7.038,7.0364,7.029,6.9423,6.8884,6.8645,6.7732,6.7284,6.7284,6.7284,6.7194,6.7044,6.7194,6.7194,6.7014,6.652,6.6281,6.6251,6.5772,6.5547,6.5547,6.5547,6.5547,6.5458,6.4516,6.3994,6.4157,6.4013,6.3591,6.2951,6.3112,6.3102,6.2981,6.2926,6.3325,6.3984,6.3731,6.3441,6.3308,6.4055,6.4639,6.4868,6.5322,6.5787,6.6206,6.6265,6.646,6.6909,6.6879,6.6999,6.6969,6.6909,6.6729,6.643,6.664,6.6864,6.643,6.6281,6.6281,6.6251,6.5862,6.5398,6.5114,6.4904,6.4994,6.4949,6.4845,6.4725,6.4994,6.5054,6.5054,6.4739,6.4949,6.5114,6.5248,6.5278,6.5398,6.5518,6.5532,6.5592,6.5982,6.5757,6.5622,6.9528,6.8914,6.8884,6.8914,6.9093,7.026,7.0111,6.9064,6.8944,6.8226,6.7134,6.6999,6.6999,6.6999,6.6999,6.6999,6.6999,6.6999,6.6999,6.6999,6.6999,6.7373,6.8002,6.7972,6.8301,6.899,6.8794,6.8824,6.9034,6.9093,6.9064,6.9123,6.9183,6.9153,6.9153,6.9034,6.8675,6.8211,6.7987,6.7928,6.7958,6.7928,6.7703,6.7194,6.7613,6.7673,6.7134,6.7014,6.6954,6.6939,6.6879,6.6849,6.6879,6.6849,6.6819,6.6789,6.622,6.61,6.6504,6.6099,6.5452,6.4838,6.4302,6.3725,6.3274,6.3322,6.3871,6.4842,6.5911,6.6274,6.5853,6.5905,6.6218,6.6651,6.6833,6.6924,6.6909,6.6849,6.6939,6.6999,6.6999,6.6999,6.6999,6.6999,6.6969,6.6879,6.6939,6.6954,6.6879,6.6879,6.6879,6.6879,6.6729,6.646,6.5368,6.5338,6.5233,6.5263,6.5263,6.477,6.5024,6.5248,6.5263,6.5278,6.5323,6.5518,6.5817,6.6056,6.6251,6.64,6.6535,6.67,6.6596,6.682,6.67,6.8974,6.8451,6.9289,6.9393,6.9153,7.035,7.041,6.9602,6.9183,6.8511,6.7673,6.7194,6.6999,6.6999,6.6999,6.6999,6.6999,6.6999,6.6999,6.6999,6.6999,6.7343,6.7898,6.7598,6.7703,6.8211,6.7942,6.7942,6.8391,6.878,6.9004,6.9004,6.9004,6.9004,6.8944,6.8571,6.8421,6.8555,6.8257,6.8002,6.8092,6.8794,6.875,6.7762,6.8286,6.8331,6.7673,6.8062,6.7912,6.7029,6.7403,6.7433,6.7029,6.6999,6.7194,6.7493,6.7014,6.6729,6.6909,6.6759,6.6156,6.5171,6.5614,6.534,6.4669,6.4994,6.5747,6.6284,6.7027,6.7553,6.7921,6.7911,6.7826,6.7686,6.7643,6.7463,6.7089,6.6999,6.6999,6.6999,6.6999,6.6999,6.6999,6.6999,6.6999,6.6999,6.6999,6.6999,6.6999,6.6999,6.6999,6.6999,6.6969,6.6849,6.646,6.6295,6.6295,6.6295,6.6235,6.616,6.6296,6.6221,6.6236,6.6176,6.6086,6.6086,6.649,6.652,6.6729,6.6789,6.6999,6.6999,6.6969,6.6999,6.6999,6.875,6.8541,6.9544,6.9602,6.9183,7.038,7.056,6.9977,6.9512,6.8944,6.8301,6.7852,6.7657,6.7627,6.7643,6.7493,6.7313,6.7134,6.6999,6.6999,6.6999,6.7238,6.7523,6.7224,6.7224,6.7553,6.7254,6.7254,6.7673,6.8122,6.8345,6.8315,6.8345,6.8361,6.8301,6.8092,6.8197,6.8271,6.8107,6.8107,6.8361,6.8914,6.9123,6.878,6.9109,6.9019,6.8361,6.8764,6.863,6.7837,6.8092,6.8122,6.7703,6.7627,6.7732,6.7928,6.7583,6.7194,6.7074,6.7224,6.6725,6.5506,6.6073,6.6161,6.5204,6.597,6.6707,6.7257,6.7891,6.8544,6.91,6.9303,6.9049,6.8481,6.8331,6.8151,6.7717,6.7505,6.7461,6.7449,6.7419,6.7254,6.7029,6.6999,6.6999,6.6999,6.6999,6.6999,6.6999,6.6999,6.6999,6.6999,6.6999,6.6999,6.6789,6.6729,6.6729,6.6714,6.6714,6.6909,6.6999,6.6999,6.6999,6.6999,6.6999,6.6999,6.6999,6.6999,6.6999,6.6999,6.6999,6.6999,6.6999,6.6999,6.6999,6.9004,6.9093,6.9738,6.9678,6.9303,7.038,7.056,7.0127,6.9977,6.9542,6.9004,6.8914,6.8764,6.89,6.8876,6.8619,6.8022,6.7512,6.7151,6.7014,6.6999,6.6999,6.7059,6.7029,6.6999,6.7104,6.7029,6.6999,6.7089,6.7178,6.7178,6.7089,6.7178,6.7238,6.7059,6.7613,6.7643,6.7463,6.7778,6.8287,6.8824,6.8481,6.875,6.9648,6.9887,6.9632,6.9049,6.9034,6.8974,6.8824,6.8824,6.8974,6.8675,6.8764,6.866,6.8107,6.7958,6.7658,6.7254,6.7598,6.7254,6.6397,6.6116,6.6039,6.5542,6.5964,6.6821,6.7723,6.849,6.9197,6.9752,6.9887,6.9602,6.9123,6.8944,6.8974,6.8793,6.8547,6.8292,6.8274,6.8169,6.7703,6.7224,6.7104,6.7134,6.7029,6.6999,6.6999,6.6999,6.6999,6.6999,6.6999,6.6999,6.6999,6.6999,6.6969,6.6969,6.6969,6.6939,6.6999,6.6999,6.6999,6.6999,6.6999,6.6999,6.6999,6.6999,6.6999,6.6999,6.6999,6.6999,6.7029,6.6999,6.6999,6.6999,6.9273,6.9722,7.038,7.0231,6.9766,7.0544,7.0769,7.056,7.0171,6.9887,6.9618,6.9183,6.9004,6.9163,6.9649,6.9594,6.8956,6.8713,6.8077,6.7151,6.6999,6.6999,6.6999,6.6999,6.6999,6.6999,6.6999,6.6999,6.6999,6.6999,6.6999,6.6999,6.6999,6.6999,6.6999,6.7224,6.7373,6.7703,6.7898,6.8137,6.8347,6.8571,6.8884,6.9273,6.9768,6.9887,6.9708,6.9662,6.9229,6.8421,6.8301,6.8122,6.7912,6.8495,6.866,6.8092,6.8002,6.8181,6.8256,6.7703,6.7449,6.7313,6.7352,6.7053,6.6624,6.7352,6.7917,6.8106,6.8585,6.9243,6.9828,7.0023,6.9708,6.9064,6.9393,6.9482,6.9167,6.8926,6.893,6.9116,6.8889,6.8391,6.7882,6.7688,6.7538,6.7134,6.7029,6.7029,6.6999,6.6999,6.6999,6.6999,6.6999,6.6999,6.6999,6.6999,6.6999,6.6999,6.6999,6.6999,6.6999,6.6999,6.6999,6.6999,6.6999,6.6999,6.6999,6.7181,6.7318,6.7212,6.7273,6.7197,6.7045,6.7,6.7047,6.9393,7.0037,7.0649,7.053,7.0035,7.062,7.0903,7.0859,7.05,7.032,7.0295,7.0301,7.0096,7.0119,7.0863,7.0539,6.9486,6.938,6.8547,6.7181,6.6999,6.6999,6.6999,6.6999,6.6999,6.6999,6.6999,6.6999,6.6999,6.6999,6.6999,6.6999,6.6999,6.6999,6.7029,6.7254,6.7523,6.7688,6.7852,6.8002,6.8002,6.8181,6.8495,6.8944,6.9169,6.9498,6.9887,6.9558,6.899,6.8481,6.8361,6.8241,6.8181,6.8704,6.8794,6.8511,6.8361,6.8391,6.8256,6.7942,6.7643,6.7703,6.7868,6.7673,6.7343,6.8046,6.8361,6.8181,6.86,6.9183,6.9558,6.9887,6.9768,6.9468,6.9961,7.0111,6.9752,6.9692,6.9664,6.9728,6.9516,6.9065,6.8571,6.8361,6.8107,6.7553,6.7373,6.7194,6.7134,6.6999,6.6999,6.6999,6.6999,6.6999,6.6999,6.6999,6.6999,6.6999,6.6999,6.6999,6.6999,6.6999,6.6999,6.6999,6.6999,6.6999,6.7014,6.7849,6.8228,6.7956,6.8016,6.8499,6.8648,6.7351,6.717,6.9456,7.0129,7.0682,7.0622,7.0187,7.0679,7.0903,7.0919,7.1005,7.1023,7.12,7.1908,7.1995,7.1691,7.2313,7.163,6.9834,6.959,6.8758,6.7531,6.7091,6.6999,6.6999,6.6999,6.7091,6.7183,6.7168,6.7198,6.7472,6.7442,6.7091,6.7183,6.7198,6.7045,6.7105,6.7613,6.7568,6.7224,6.7628,6.7868,6.7868,6.7403,6.7627,6.8794,6.8451,6.8706,6.9528,6.881,6.8361,6.8764,6.872,6.896,6.9498,6.9303,6.9109,6.887,6.8914,6.8315,6.7687,6.7956,6.8181,6.7388,6.7628,6.7718,6.7224,6.7553,6.7912,6.7882,6.8451,6.8944,6.9123,6.9648,6.9947,7.0127,7.047,7.0723,7.0843,7.0799,7.0516,7.0173,7.0007,6.9798,6.9169,6.9064,6.869,6.8122,6.7898,6.7628,6.7164,6.6999,6.6999,6.6999,6.6999,6.6999,6.6999,6.6999,6.6999,6.6999,6.7014,6.706,6.7045,6.7045,6.6999,6.6999,6.7199,6.7152,6.7592,6.8561,6.9349,6.956,6.9903,7.0444,6.9932,6.8705,6.7924,7.025,7.102,7.1184,7.1025,7.0696,7.0859,7.0919,7.1032,7.1709,7.1918,7.2202,7.3077,7.3043,7.2544,7.3315,7.2565,7.074,7.0345,6.9594,6.8105,6.7289,6.7029,6.6999,6.7029,6.7396,6.7954,6.8029,6.8357,6.8959,6.8857,6.8563,6.8059,6.7954,6.7623,6.7167,6.7194,6.7194,6.7044,6.7119,6.7284,6.7268,6.7119,6.7403,6.8092,6.8077,6.8407,6.9109,6.8451,6.7792,6.7583,6.8032,6.8301,6.8676,6.9229,6.9229,6.863,6.8704,6.8645,6.7928,6.7643,6.7567,6.7703,6.7433,6.7194,6.7029,6.7164,6.7284,6.7373,6.7852,6.8541,6.9004,6.9648,7.0157,7.059,7.0799,7.0903,7.0903,7.0873,7.0829,7.0709,7.062,7.0306,6.9901,6.9662,6.9303,6.8421,6.8047,6.7838,6.7373,6.6999,6.6999,6.6999,6.6999,6.6999,6.6999,6.6999,6.6999,6.6999,6.7045,6.7122,6.7137,6.7121,6.706,6.6999,6.7683,6.7847,6.8724,6.9721,7.0312,7.1146,7.1431,7.1752,7.1169,7.0223,6.9454,7.1037,7.1644,7.1644,7.1562,7.1355,7.1369,7.1355,7.15,7.2075,7.247,7.2844,7.3798,7.3762,7.312,7.3908,7.2816,7.056,7.0334,6.9593,6.8523,6.7864,6.7638,6.7608,6.7608,6.8059,6.8857,6.8961,6.9207,6.9598,6.9713,6.9222,6.8505,6.8386,6.7894,6.706,6.6999,6.6999,6.6999,6.6999,6.6999,6.6999,6.6999,6.7373,6.7762,6.7808,6.7882,6.8421,6.8181,6.7792,6.7583,6.7792,6.8122,6.8421,6.881,6.9019,6.8736,6.875,6.8391,6.8032,6.7613,6.7463,6.7493,6.7164,6.7029,6.7059,6.7224,6.7433,6.7523,6.8287,6.8945,6.9409,7.0007,7.0486,7.0799,7.0903,7.0903,7.0903,7.0903,7.0903,7.0903,7.0889,7.0799,7.041,7.038,6.9858,6.9125,6.863,6.8181,6.7613,6.7268,6.6999,6.6999,6.6999,6.6999,6.7045,6.7075,6.7548,6.7548,6.7834,6.7789,6.7714,6.7729,6.7865,6.8014,6.8352,6.8963,6.9979,7.1042,7.2038,7.2677,7.2895,7.2812,7.2359,7.0439,6.9911,7.1793,7.2072,7.204,7.2025,7.2025,7.2055,7.2025,7.2151,7.2563,7.2891,7.3385,7.4447,7.4382,7.3427,7.4152,7.2928,7.0064,7.0121,6.9458,6.8857,6.8549,6.8594,6.8784,6.8357,6.8872,6.9667,6.9839,6.9899,7.0027,6.9925,6.9309,6.8638,6.8386,6.7955,6.7378,6.7178,6.7164,6.7328,6.7433,6.7373,6.7284,6.7224,6.7433,6.7613,6.7568,6.7673,6.8092,6.8167,6.8167,6.8257,6.8047,6.8211,6.8675,6.8361,6.8526,6.9155,6.8586,6.8047,6.7852,6.7718,6.7598,6.7164,6.7134,6.7104,6.7284,6.7732,6.8092,6.8092,6.9259,6.9798,7.0127,7.059,7.0799,7.0903,7.0903,7.0903,7.0903,7.0903,7.0903,7.0903,7.0903,7.0903,7.0903,7.0859,7.062,6.9648,6.9199,6.866,6.8107,6.7644,6.7284,6.6999,6.6999,6.6999,6.7075,6.7167,6.7849,6.8312,6.8872,6.9032,6.893,6.8961,6.9109,6.9373,6.976,7.0459,7.1393,7.2497,7.3594,7.395,7.3986,7.4029,7.3677,7.047,6.8895,7.2414,7.2703,7.2468,7.2358,7.2312,7.2312,7.2469,7.2782,7.3631,7.407,7.4566,7.5495,7.5242,7.4278,7.4351,7.3169,7.0971,7.0704,7.0293,6.9495,6.9425,6.9882,7.0027,6.9236,6.9381,7.0406,7.0784,7.077,7.0757,7.0561,6.997,6.8579,6.8449,6.8197,6.7812,6.7703,6.8062,6.8435,6.8495,6.8181,6.7822,6.7778,6.7628,6.7433,6.7598,6.8092,6.8615,6.878,6.9049,6.9079,6.8181,6.7792,6.8615,6.8361,6.8241,6.8407,6.8287,6.7778,6.7389,6.7343,6.7224,6.7224,6.7553,6.7808,6.7822,6.8391,6.8734,6.89,6.9528,7.0217,7.059,7.0799,7.0873,7.0903,7.0903,7.0903,7.0903,7.0903,7.0903,7.0903,7.0903,7.0903,7.0903,7.0903,7.062,7.0081,6.9632,6.9153,6.8646,6.8108,6.7644,6.7254,6.7289,6.735,6.7563,6.7879,6.8754,6.9352,6.9884,7.0499,7.0369,7.0244,7.0454,7.0774,7.1185,7.2042,7.305,7.3901,7.4996,7.5028,7.4732,7.4023,7.273,6.996,6.8471,7.335,7.337,7.32,7.3216,7.3339,7.3355,7.3523,7.392,7.4569,7.5014,7.5381,7.6034,7.5628,7.4646,7.4489,7.3339,7.1542,7.1076,7.0826,7.0406,7.0378,7.0886,7.1342,7.0578,7.0406,7.1575,7.1757,7.1561,7.1232,7.0896,7.0124,6.8611,6.8677,6.8516,6.8052,6.8002,6.8331,6.875,6.8675,6.8451,6.8451,6.8451,6.8151,6.7613,6.7838,6.8211,6.8451,6.8166,6.8615,6.8854,6.8002,6.7613,6.8615,6.8391,6.8167,6.8361,6.7762,6.7852,6.7747,6.7673,6.7643,6.7897,6.8301,6.8391,6.863,6.9064,6.9409,6.9618,7.0037,7.0606,7.0843,7.0903,7.0903,7.0903,7.0903,7.0903,7.0903,7.0903,7.0903,7.0903,7.0903,7.0903,7.0903,7.0903,7.0843,7.047,7.0021,6.9542,6.9229,6.8692,6.8033,6.7676,6.7714,6.7834,6.8059,6.8725,6.987,7.0466,7.0969,7.1693,7.21,7.1953,7.1803,7.2293,7.2862,7.3866,7.4863,7.564,7.563,7.5145,7.4446,7.3432,7.2012,6.9959,6.8937,7.4239,7.3981,7.3966,7.4194,7.4449,7.4509,7.4704,7.5045,7.5325,7.5574,7.5861,7.6163,7.5771,7.496,7.4613,7.3247,7.1689,7.1328,7.126,7.0603,7.0872,7.1301,7.1648,7.1135,7.0997,7.2181,7.21,7.1621,7.0743,7.0578,6.9619,6.8571,6.8651,6.8606,6.8202,6.8181,6.8481,6.8884,6.878,6.863,6.8854,6.893,6.8555,6.8062,6.7958,6.8002,6.8002,6.7762,6.7807,6.8794,6.7822,6.7867,6.8315,6.8301,6.8032,6.8571,6.7768,6.7844,6.832,6.8383,6.8461,6.9008,6.9139,6.9153,6.9273,6.9692,7.0037,7.026,7.056,7.0829,7.0903,7.0903,7.0903,7.0903,7.0903,7.0903,7.0903,7.0903,7.0903,7.0903,7.0903,7.0903,7.0903,7.0903,7.0903,7.0829,7.0396,7.0009,6.9666,6.9234,6.8577,6.7981,6.7941,6.8814,6.9207,6.9899,7.101,7.1757,7.2228,7.2831,7.3509,7.332,7.3242,7.4037,7.4769,7.5504,7.5779,7.5916,7.5653,7.5066,7.3944,7.2737,7.1365,7.0007,6.9368,7.4374,7.4314,7.4314,7.4509,7.4838,7.5121,7.5384,7.5647,7.5731,7.5937,7.6253,7.6278,7.6072,7.5446,7.4808,7.3279,7.1666,7.1561,7.1287,7.042,7.0673,7.1315,7.108,7.0578,7.0519,7.1108,7.1218,7.0438,6.94,6.8785,6.8765,6.8136,6.7831,6.7886,6.8649,6.8824,6.8914,6.9213,6.9289,6.9289,6.9123,6.9064,6.8764,6.8181,6.8122,6.8002,6.7958,6.7898,6.8211,6.8824,6.8241,6.8033,6.8112,6.7692,6.7558,6.7635,6.8122,6.844,6.8524,6.8955,6.9029,6.9181,6.9468,6.9798,6.9977,7.0277,7.038,7.062,7.0739,7.0903,7.0903,7.0903,7.0903,7.0903,7.0903,7.0903,7.0903,7.0903,7.0903,7.0903,7.0903,7.0903,7.0903,7.0903,7.0903,7.1002,7.097,7.0491,7.0042,6.9623,6.9083,6.853,6.8076,6.9329,7.048,7.133,7.2249,7.3109,7.3642,7.3996,7.4429,7.4395,7.4677,7.5114,7.5581,7.6083,7.6243,7.614,7.5263,7.434,7.3138,7.1941,7.0843,6.978,6.9204,7.4929,7.4944,7.5075,7.5308,7.56,7.5792,7.6124,7.6477,7.6552,7.6807,7.7046,7.6897,7.6317,7.5597,7.4904,7.3293,7.1758,7.1511,7.0955,7.0095,7.0603,7.077,7.042,6.9825,6.9653,6.9741,6.9626,6.9584,6.8934,6.8599,6.8259,6.8084,6.7942,6.8421,6.8944,6.9333,6.9602,6.9812,6.9632,6.9528,6.9498,6.9498,6.9139,6.869,6.8375,6.8181,6.7553,6.7463,6.7613,6.7915,6.8105,6.8183,6.8243,6.8317,6.8178,6.809,6.89,6.9495,6.9366,6.9946,7.0292,7.0047,7.0037,7.0187,7.0217,7.0201,7.0141,7.0426,7.0799,7.0903,7.0903,7.0873,7.0903,7.0903,7.0903,7.0903,7.0903,7.0903,7.0903,7.0903,7.0903,7.0903,7.0903,7.0903,7.0903,7.1067,7.1389,7.1096,7.0603,7.0369,7.0083,6.9988,6.9757,7.0628,7.1926,7.282,7.3578,7.4377,7.5008,7.535,7.5392,7.534,7.5425,7.568,7.6153,7.634,7.6273,7.6006,7.4815,7.3584,7.2424,7.1324,7.0475,6.9692,6.9164,7.5489,7.5518,7.5792,7.6049,7.631,7.6382,7.6694,7.713,7.7172,7.7491,7.7984,7.7563,7.6856,7.5859,7.4622,7.3063,7.0963,7.083,7.0109,6.9336,6.991,7.007,6.9595,6.9193,6.8886,6.8741,6.8268,6.8423,6.8485,6.8227,6.8061,6.8039,6.8481,6.872,6.881,6.9079,6.9887,6.9662,6.9423,6.9139,6.9468,6.9678,6.9468,6.89,6.8794,6.8166,6.7208,6.7089,6.7273,6.7623,6.803,6.8476,6.877,6.9497,6.9703,6.9486,7.0432,7.0717,7.0754,7.0985,7.1076,7.0497,7.0053,7.0111,7.0111,6.9632,6.9303,6.9798,7.0336,7.0649,7.062,7.0799,7.0873,7.0903,7.0903,7.0903,7.0903,7.0903,7.0903,7.0903,7.0903,7.0905,7.0908,7.097,7.0986,7.1566,7.1854,7.2116,7.1705,7.1765,7.1662,7.1789,7.1913,7.2403,7.3356,7.4348,7.5041,7.573,7.6292,7.6701,7.6525,7.6314,7.6267,7.6057,7.5828,7.5916,7.5899,7.5565,7.4294,7.3015,7.179,7.0949,7.0504,6.9977,6.9451,7.5745,7.576,7.6092,7.6282,7.6367,7.6613,7.691,7.7185,7.7227,7.756,7.8201,7.8025,7.7684,7.6596,7.4275,7.2083,7.0529,6.9813,6.9076,6.8014,6.8564,6.8902,6.8431,6.7623,6.7984,6.8014,6.7548,6.7228,6.747,6.7395,6.7559,6.7853,6.7703,6.7537,6.8287,6.8586,6.7942,6.7732,6.8002,6.8257,6.8466,6.89,6.872,6.8421,6.8122,6.79,6.7302,6.7274,6.7517,6.8208,6.8387,6.8844,6.9495,7.0406,7.1224,7.1604,7.1903,7.1813,7.1396,7.1487,7.1123,7.0257,6.9498,6.9243,6.9123,6.9213,6.9034,6.9093,6.9722,7.0067,7.0187,7.053,7.0769,7.0753,7.0603,7.0739,7.0845,7.0649,7.0679,7.0903,7.0903,7.091,7.0945,7.1053,7.1196,7.1837,7.2361,7.2614,7.3007,7.3184,7.3289,7.3412,7.3548,7.404,7.4751,7.5725,7.6393,7.7034,7.7365,7.7808,7.7496,7.7096,7.6492,7.6243,7.5987,7.5443,7.5061,7.4488,7.3537,7.2596,7.1535,7.1115,7.0875,7.032,6.9678,7.6253,7.6092,7.6439,7.6585,7.6613,7.6726,7.7032,7.7361,7.743,7.7984,7.8617,7.8444,7.7651,7.6001,7.2846,7.072,6.9732,6.9236,6.8297,6.7442,6.7834,6.8089,6.7638,6.7213,6.7335,6.7381,6.7244,6.7091,6.6999,6.7059,6.7343,6.7822,6.7703,6.7732,6.7958,6.8361,6.8405,6.8256,6.8122,6.8227,6.8466,6.8481,6.8466,6.8542,6.8198,6.7952,6.7941,6.8243,6.8573,6.9323,6.988,7.068,7.1094,7.1715,7.2457,7.399,7.2796,7.207,7.1705,7.1731,7.0847,6.9706,6.881,6.8301,6.8136,6.8525,6.8734,6.8435,6.9049,6.9379,6.9439,6.9662,6.9752,6.9842,7.0021,7.0401,7.0491,7.0426,7.041,7.0649,7.0959,7.1166,7.1147,7.0839,7.1292,7.235,7.2875,7.317,7.4044,7.4982,7.5048,7.5098,7.5273,7.5487,7.6248,7.7099,7.7594,7.8097,7.8093,7.8371,7.8264,7.7875,7.6864,7.6715,7.69,7.6045,7.4663,7.3781,7.3185,7.2313,7.1389,7.1115,7.0859,7.0428,7.0045,7.6779,7.6666,7.6769,7.6829,7.6829,7.6829,7.7046,7.7458,7.7472,7.8006,7.8538,7.8118,7.687,7.5044,7.222,7.0412,6.967,6.8784,6.7879,6.7548,6.7548,6.7593,6.7244,6.7014,6.7014,6.6999,6.706,6.6999,6.6999,6.7029,6.7254,6.7732,6.7583,6.7658,6.7822,6.8032,6.8166,6.8136,6.7822,6.7912,6.8181,6.7942,6.8357,6.8541,6.8529,6.8365,6.8924,6.9123,6.9535,7.0292,7.0971,7.1586,7.2055,7.2296,7.3053,7.3891,7.2901,7.1734,7.1372,7.1088,7.0311,6.918,6.8181,6.7583,6.7328,6.8016,6.8391,6.7762,6.8361,6.866,6.8764,6.8914,6.9153,6.9213,6.9183,6.9654,7.0097,7.0284,7.0399,7.065,7.1085,7.1767,7.1522,7.0815,7.1307,7.2689,7.3366,7.3789,7.5015,7.6423,7.6652,7.6611,7.6736,7.6954,7.7581,7.8287,7.8808,7.8651,7.8635,7.8053,7.7351,7.705,7.6335,7.6617,7.7072,7.602,7.4295,7.3599,7.2906,7.1918,7.1115,7.1002,7.0769,7.0389,7.0404,7.7292,7.7472,7.7008,7.6858,7.6858,7.6829,7.698,7.7297,7.7241,7.7389,7.7594,7.6749,7.584,7.4516,7.2622,7.0763,6.9658,6.8785,6.7849,6.7229,6.7075,6.7152,6.6999,6.6999,6.6999,6.6999,6.6999,6.6999,6.6999,6.6999,6.7044,6.7074,6.7208,6.7134,6.7194,6.7388,6.7448,6.7479,6.733,6.7453,6.7619,6.7637,6.8137,6.9015,6.8924,6.899,7.029,7.0246,7.0286,7.106,7.1473,7.1964,7.2533,7.2517,7.3156,7.3576,7.2255,7.1227,7.0947,7.0204,6.9154,6.8239,6.7553,6.7148,6.7059,6.7029,6.7089,6.7254,6.7792,6.8017,6.8241,6.8541,6.8615,6.8585,6.8495,6.8659,6.9394,7.0428,7.057,7.0695,7.1242,7.2073,7.2558,7.1948,7.2307,7.3666,7.468,7.5168,7.6504,7.7773,7.7966,7.8053,7.8153,7.8404,7.8818,7.9085,7.8687,7.8053,7.7675,7.6582,7.5389,7.5229,7.5273,7.5519,7.5621,7.4787,7.4204,7.3668,7.286,7.1588,7.0926,7.098,7.0902,7.0592,7.0755,7.7513,7.7582,7.7361,7.7297,7.7283,7.7102,7.7199,7.7334,7.7074,7.6784,7.6631,7.5656,7.4775,7.3653,7.1601,7.0209,6.9353,6.8091,6.7456,6.7137,6.6999,6.6999,6.6999,6.7029,6.6999,6.6999,6.6999,6.6999,6.6999,6.6999,6.6999,6.6999,6.6999,6.6999,6.6999,6.7045,6.7045,6.7152,6.7472,6.791,6.8889,6.9011,6.9619,7.0953,7.1112,7.0971,7.147,7.2162,7.216,7.2146,7.2378,7.2727,7.2902,7.271,7.3013,7.3489,7.1644,7.0577,7.0401,6.9534,6.8379,6.762,6.7148,6.6999,6.6999,6.6999,6.6999,6.7089,6.7254,6.7556,6.7508,6.7613,6.7657,6.7747,6.7913,6.8064,6.8953,7.0235,7.0962,7.1159,7.1856,7.2653,7.305,7.3273,7.3876,7.4678,7.5641,7.6604,7.7694,7.8493,7.8532,7.8589,7.8636,7.8767,7.914,7.8804,7.8324,7.7483,7.6631,7.5391,7.4176,7.3902,7.4011,7.42,7.4399,7.4019,7.3745,7.3638,7.2945,7.1808,7.1311,7.1166,7.1016,7.0801,7.1227,7.7911,7.7992,7.7992,7.7842,7.7596,7.7389,7.7347,7.7361,7.6915,7.6231,7.551,7.4452,7.3667,7.263,7.1274,6.9834,6.9349,6.838,6.7591,6.7271,6.7224,6.7284,6.7284,6.7313,6.7403,6.7254,6.7029,6.6999,6.6999,6.6999,6.6999,6.6999,6.6999,6.6999,6.7045,6.7198,6.7259,6.7426,6.8238,6.8907,7.0036,7.04,7.1354,7.2544,7.2607,7.2876,7.308,7.359,7.3412,7.3311,7.3364,7.3644,7.3414,7.3103,7.2992,7.2467,7.1386,6.9748,6.9553,6.8842,6.7729,6.7181,6.7029,6.6999,6.6999,6.6999,6.6999,6.7029,6.7152,6.7259,6.729,6.7668,6.8227,6.8588,6.8228,6.841,6.9549,7.0741,7.1268,7.1691,7.2698,7.3958,7.3892,7.4304,7.4861,7.558,7.6532,7.7201,7.7752,7.8342,7.8506,7.8607,7.8707,7.8875,7.9021,7.8203,7.726,7.6062,7.5206,7.4261,7.3348,7.2969,7.2644,7.2742,7.2951,7.3225,7.3122,7.2833,7.2523,7.2152,7.1674,7.1224,7.127,7.1187,7.1886,7.8631,7.885,7.887,7.8384,7.7747,7.761,7.7472,7.7297,7.676,7.5725,7.4288,7.3035,7.2408,7.2101,7.1226,7.0463,6.9565,6.9108,6.838,6.7466,6.7433,6.7778,6.7808,6.7732,6.7553,6.7748,6.7373,6.6999,6.6999,6.6999,6.6999,6.7167,6.7259,6.7198,6.7091,6.7593,6.7864,6.8119,6.9362,6.9967,7.0676,7.1365,7.2899,7.3744,7.3973,7.4357,7.4553,7.4573,7.4255,7.3901,7.3873,7.4005,7.3881,7.29,7.2508,7.2267,7.0121,6.8816,6.8418,6.7532,6.7137,6.7045,6.6999,6.6999,6.6999,6.6999,6.7091,6.7213,6.7487,6.7774,6.8059,6.8386,6.893,6.9234,6.8872,6.9122,7.0295,7.1312,7.1853,7.2466,7.4215,7.5669,7.5316,7.5314,7.583,7.6537,7.7438,7.7871,7.7899,7.8,7.8123,7.8437,7.8557,7.8347,7.8189,7.7204,7.6171,7.4911,7.3789,7.2924,7.2186,7.1621,7.1406,7.1402,7.1294,7.1342,7.1643,7.1888,7.1748,7.1645,7.149,7.1191,7.1337,7.1758,7.2558,7.9153,7.9245,7.9245,7.9054,7.8724,7.8141,7.7889,7.7541,7.6328,7.467,7.2964,7.2167,7.1483,7.0991,7.0717,7.0275,6.9737,6.8648,6.7872,6.772,6.7553,6.7313,6.7373,6.7493,6.7403,6.7313,6.7059,6.7045,6.6999,6.7137,6.7335,6.7548,6.8014,6.7999,6.7909,6.8238,6.874,6.9391,7.0361,7.1251,7.2373,7.3502,7.4474,7.5383,7.5665,7.5735,7.5495,7.516,7.4897,7.4347,7.4256,7.4231,7.4193,7.3336,7.3272,7.2822,7.1109,6.9045,6.8059,6.7091,6.7029,6.706,6.7014,6.7014,6.6999,6.6999,6.7168,6.7532,6.7879,6.8193,6.8565,6.8727,6.9149,6.9736,6.9779,7.0188,7.1043,7.1938,7.266,7.3266,7.4597,7.5381,7.5511,7.5412,7.5908,7.6048,7.6657,7.7041,7.7149,7.7321,7.7481,7.8055,7.8215,7.7862,7.73,7.6152,7.51,7.3923,7.2767,7.1716,7.1049,7.062,7.0523,7.068,7.0033,6.9447,7.0226,7.0881,7.1113,7.1135,7.1154,7.1492,7.1844,7.2485,7.3414,7.9531,7.9544,7.9531,7.9531,7.944,7.8817,7.8444,7.7883,7.6024,7.413,7.2827,7.1989,7.1028,7.0255,6.9993,6.9528,6.9259,6.8496,6.7748,6.7673,6.7523,6.7463,6.7433,6.7313,6.7523,6.733,6.7319,6.7335,6.7396,6.7578,6.7894,6.8401,6.9149,6.941,6.9352,6.9641,7.0109,7.0916,7.1872,7.2998,7.4077,7.5026,7.5823,7.6417,7.6659,7.6622,7.5952,7.5647,7.5515,7.485,7.463,7.463,7.4581,7.4223,7.4046,7.329,7.206,7.0061,6.8885,6.8474,6.8474,6.8148,6.7472,6.7029,6.7045,6.7229,6.7472,6.7834,6.8238,6.8711,6.9138,6.9269,7.0155,7.0767,7.1246,7.1669,7.2599,7.3555,7.3678,7.424,7.4609,7.5231,7.5568,7.5604,7.5765,7.5743,7.5777,7.6115,7.6454,7.6613,7.6874,7.7343,7.7464,7.6941,7.6061,7.4928,7.3881,7.2875,7.195,7.1037,7.0701,7.0403,7.0212,6.9878,6.9206,6.89,6.9407,6.9919,7.0574,7.0995,7.1205,7.1625,7.2278,7.3206,7.4152,7.9814,7.9814,7.9814,7.9814,7.9763,7.9505,7.9054,7.827,7.5816,7.4481,7.3926,7.172,7.0491,7.0025,6.9981,6.9398,6.8576,6.8246,6.7825,6.7464,6.7538,6.7688,6.7732,6.7732,6.7691,6.7815,6.7879,6.7804,6.7969,6.846,6.8816,6.934,7.0339,7.0868,7.1145,7.1402,7.1796,7.2513,7.3481,7.4411,7.5214,7.58,7.6441,7.6804,7.6678,7.6485,7.6118,7.6005,7.5747,7.5508,7.5556,7.5592,7.5234,7.4381,7.3922,7.3212,7.2156,7.1201,7.0304,7.0007,6.9581,6.8828,6.7894,6.732,6.7305,6.7729,6.7939,6.8416,6.8932,6.9398,6.9847,7.0858,7.1888,7.2405,7.2907,7.3676,7.4712,7.5146,7.5,7.5182,7.5364,7.5652,7.564,7.5676,7.5676,7.5676,7.5676,7.5743,7.6014,7.598,7.6229,7.6545,7.6459,7.5861,7.4909,7.3892,7.2965,7.2091,7.1592,7.0827,7.0518,7.0192,6.9861,6.9371,6.8535,6.8401,6.9034,6.9732,7.044,7.082,7.1278,7.202,7.2736,7.3904,7.5,8.0095,8.0095,8.0095,8.0107,8.0082,8.0006,7.942,7.823,7.5999,7.4514,7.3405,7.1235,6.9949,6.935,6.9906,6.9432,6.91,6.8784,6.839,6.8011,6.7465,6.7329,6.7344,6.7481,6.7605,6.7895,6.8061,6.8268,6.8698,6.9284,6.9999,7.0592,7.1452,7.2299,7.3025,7.3491,7.3665,7.4001,7.4884,7.5426,7.6032,7.6625,7.6939,7.6635,7.6601,7.6352,7.6048,7.5912,7.5676,7.5676,7.5676,7.5676,7.5592,7.5234,7.4871,7.363,7.2717,7.1853,7.0822,7.0265,6.9925,6.9509,6.8519,6.8475,6.8417,6.8461,6.8566,6.8992,6.9485,6.9933,7.0515,7.147,7.2371,7.2966,7.3568,7.4584,7.5448,7.5556,7.5436,7.5472,7.5676,7.5676,7.5676,7.5676,7.5676,7.5676,7.5676,7.5676,7.5676,7.5676,7.5743,7.6082,7.5947,7.5454,7.4218,7.3127,7.2221,7.1383,7.0925,7.0595,7.038,7.0038,6.9559,6.9094,6.855,6.8505,6.8814,6.9501,7.015,7.1074,7.1643,7.2413,7.3258,7.4344,7.5625,8.0209,8.0209,8.0209,8.0209,8.0209,8.0209,7.9768,7.8763,7.6439,7.4689,7.355,7.1149,6.9498,6.8753,6.9071,6.9075,6.8742,6.8287,6.8076,6.8107,6.7514,6.7712,6.7667,6.7714,6.8152,6.8466,6.8775,6.8961,6.947,7.0328,7.1108,7.1936,7.261,7.3485,7.4276,7.493,7.5404,7.5575,7.5878,7.6267,7.6779,7.7232,7.686,7.6702,7.6702,7.6082,7.5811,7.5709,7.5676,7.5676,7.5676,7.5676,7.5676,7.5616,7.5532,7.4493,7.4231,7.3515,7.275,7.2261,7.1465,7.0753,7.016,7.0304,6.9813,6.9513,6.9429,6.953,6.9947,7.0433,7.1074,7.173,7.2451,7.3162,7.4147,7.5134,7.5436,7.5628,7.5652,7.5652,7.5676,7.5676,7.5676,7.5676,7.5676,7.5676,7.5676,7.5676,7.5676,7.5676,7.5676,7.5845,7.5619,7.524,7.3918,7.2763,7.188,7.1084,7.0315,7.0077,7.0072,7.0137,6.9959,6.9426,6.8801,6.886,6.8932,6.9255,6.9832,7.0704,7.142,7.2004,7.2972,7.4443,7.5858,8.0209,8.0209,8.0209,8.0209,8.0209,8.0209,8.0183,7.9824,7.6888,7.5203,7.4028,7.1261,6.9237,6.8443,6.871,6.882,6.891,6.8742,6.9149,6.8719,6.847,6.8713,6.927,6.8951,6.9738,7.021,7.0445,7.0528,7.0568,7.1342,7.2325,7.3297,7.4072,7.4639,7.487,7.6176,7.6629,7.6494,7.6889,7.7269,7.734,7.7413,7.721,7.7244,7.6567,7.5709,7.5709,7.5676,7.5676,7.5676,7.5676,7.5676,7.5676,7.5676,7.5592,7.5472,7.5161,7.4773,7.4265,7.3912,7.3734,7.3316,7.3141,7.2114,7.103,7.024,7.003,7.0004,7.0391,7.0799,7.1365,7.2197,7.2959,7.3709,7.4609,7.5279,7.5556,7.5676,7.5676,7.5676,7.5676,7.5676,7.5676,7.5676,7.5676,7.5676,7.5676,7.5676,7.5676,7.5676,7.5676,7.5676,7.5544,7.5173,7.4177,7.3011,7.1791,7.0907,7.0032,6.9945,7.0221,7.036,7.0449,6.9799,6.9149,6.9049,6.9153,6.9195,6.9321,6.991,7.0626,7.1301,7.2611,7.441,7.5769,8.0209,8.0209,8.0209,8.0209,8.0209,8.0209,8.0196,7.9905,7.6883,7.5155,7.4021,7.1218,6.906,6.8375,6.938,6.9659,6.948,7.0261,7.1238,7.1075,7.0496,7.0628,7.1624,7.1299,7.1849,7.2397,7.2568,7.2241,7.231,7.2776,7.3376,7.4209,7.4972,7.5396,7.5649,7.705,7.7524,7.7266,7.7862,7.7807,7.7333,7.7515,7.7481,7.6736,7.5743,7.5676,7.5676,7.5676,7.5676,7.5676,7.5676,7.5676,7.5676,7.5676,7.5676,7.5616,7.5388,7.517,7.4987,7.4717,7.426,7.3586,7.2887,7.2207,7.1497,7.0896,7.0578,7.0627,7.0757,7.1148,7.1721,7.261,7.3465,7.424,7.499,7.5364,7.5676,7.5676,7.5676,7.5676,7.5676,7.5676,7.5676,7.5676,7.5676,7.5676,7.5676,7.5676,7.5676,7.5676,7.5676,7.5676,7.5676,7.5243,7.4139,7.2992,7.1688,7.0701,6.9849,6.999,7.0325,7.0669,7.0816,7.0112,6.9579,6.9538,6.9282,6.8638,6.8838,6.9535,7.0444,7.141,7.2913,7.4681,7.5778,8.0209,8.0209,8.0209,8.0209,8.0112,7.9806,7.9606,7.9135,7.6698,7.4936,7.3685,7.1079,6.9347,6.8894,6.9999,7.0976,7.0808,7.1781,7.2383,7.2581,7.2585,7.2776,7.3088,7.3334,7.3642,7.4009,7.3492,7.3279,7.3711,7.3902,7.4297,7.5358,7.6021,7.6396,7.6758,7.7807,7.8234,7.7964,7.8708,7.8336,7.7401,7.7582,7.7481,7.6487,7.5946,7.5811,7.5676,7.5676,7.5676,7.5676,7.5676,7.5676,7.5676,7.5676,7.5676,7.5662,7.5494,7.5243,7.5134,7.4856,7.4485,7.403,7.396,7.379,7.3083,7.2439,7.1328,7.1268,7.0785,7.105,7.1825,7.2703,7.3562,7.4348,7.5039,7.5568,7.5676,7.5676,7.5676,7.5676,7.5676,7.5676,7.5676,7.5676,7.5676,7.5676,7.5676,7.5676,7.5676,7.5676,7.5676,7.564,7.5604,7.4699,7.3283,7.2314,7.1324,7.0459,6.9612,6.9938,7.0283,7.0927,7.1136,7.1026,7.0707,7.0205,6.9782,6.9091,6.9073,6.9811,7.0757,7.1725,7.3336,7.4735,7.5537,8.0209,8.0209,8.0209,8.0209,8.0061,7.9295,7.8855,7.8372,7.6368,7.4673,7.3291,7.1101,7.0201,6.9994,7.0224,7.1443,7.2387,7.2886,7.3369,7.4142,7.3577,7.465,7.4984,7.4724,7.5361,7.5286,7.4742,7.4558,7.4655,7.5063,7.5825,7.6784,7.7164,7.7413,7.7988,7.8551,7.8775,7.8403,7.8539,7.8517,7.8191,7.7865,7.7278,7.6657,7.6149,7.5743,7.5676,7.5676,7.5676,7.5676,7.5676,7.5676,7.5676,7.5676,7.5676,7.564,7.5628,7.5568,7.5568,7.5508,7.5484,7.552,7.5676,7.5243,7.4373,7.3388,7.2278,7.1461,7.0995,7.1227,7.2028,7.2742,7.3588,7.451,7.5207,7.5676,7.5676,7.5676,7.5676,7.5676,7.5676,7.5676,7.5676,7.5676,7.5676,7.5676,7.5676,7.5676,7.5676,7.5676,7.5676,7.5568,7.5506,7.429,7.2881,7.2327,7.1732,6.9976,6.928,6.9743,7.0509,7.1928,7.2737,7.2683,7.2253,7.1347,7.0547,6.9856,7.0035,7.0241,7.1233,7.2261,7.3245,7.4477,7.507,8.0209,8.0209,8.0209,8.0209,8.0036,7.9269,7.8596,7.7655,7.5511,7.4286,7.3475,7.1734,7.0449,7.0013,7.0779,7.2127,7.3877,7.4113,7.5784,7.7181,7.621,7.7154,7.7655,7.7034,7.7612,7.7158,7.6365,7.6032,7.5894,7.6632,7.7082,7.7084,7.8302,7.8179,7.7367,7.8065,7.8674,7.8234,7.8044,7.8056,7.7853,7.7379,7.6657,7.6149,7.5777,7.5709,7.5676,7.5676,7.5676,7.5676,7.5676,7.5676,7.5676,7.5676,7.5676,7.5676,7.5676,7.5676,7.5676,7.5676,7.5676,7.5676,7.5544,7.5051,7.426,7.3465,7.2358,7.1282,7.1078,7.1598,7.2264,7.2821,7.3568,7.4757,7.564,7.5676,7.5676,7.5676,7.5676,7.5676,7.5676,7.5676,7.5676,7.5676,7.5676,7.5676,7.5676,7.5676,7.5676,7.5676,7.5676,7.5544,7.5434,7.4601,7.354,7.3303,7.2526,7.047,6.9205,7.0018,7.1447,7.3683,7.4302,7.3652,7.3012,7.2141,7.1388,7.0676,7.0704,7.0993,7.1916,7.2846,7.3718,7.4423,7.517]}]]